GEFSNGP_850_meantemp_000.txt.gz
Temperature
19 19 21 21 21 22 21 20 18 18 16 16 17 16 16 16 15 15 15 15 15 16 17 17 17 18 18 18 18 17 16 16 15 15 14 13 13 13 12 12 12 11 12 12
20 21 21 20 21 21 21 20 18 16 17 17 17 15 14 14 13 13 13 13 14 15 16 16 16 16 16 17 17 17 17 16 15 14 14 13 13 13 12 12 11 11 12 12
18 19 19 18 20 20 18 17 17 16 15 14 14 12 11 12 12 12 12 12 12 14 15 15 15 14 15 16 16 17 16 16 16 15 14 13 13 13 12 12 11 11 11 12
17 18 18 20 20 18 15 13 13 12 10 10 10 11 11 11 11 11 12 12 12 12 13 13 13 13 13 14 15 16 16 16 16 15 14 13 13 13 12 12 11 11 12 12
16 17 18 20 19 19 18 12 11 10 9 9 9 11 11 11 12 11 11 12 12 12 12 12 12 13 12 12 14 15 15 15 15 15 14 14 13 13 12 11 11 11 12 12
16 16 16 16 16 15 17 12 9 8 8 7 8 8 9 10 10 11 11 10 10 11 11 11 10 11 11 11 11 12 13 13 13 15 15 14 14 13 12 11 11 12 12 11
16 16 17 13 13 15 15 10 8 8 8 8 7 7 8 9 9 9 10 10 10 10 10 10 10 10 10 10 10 10 11 12 13 13 14 14 14 13 12 12 11 12 12 12
16 16 13 11 12 11 9 9 10 10 9 9 9 9 10 10 10 10 10 10 10 10 10 10 10 10 10 9 9 9 9 10 11 11 13 14 14 13 12 12 11 12 12 12
13 12 11 10 10 10 11 11 11 10 11 11 10 10 10 10 10 10 10 10 10 9 9 9 10 9 9 9 9 9 9 8 9 9 11 13 13 12 12 12 12 11 11 12
11 10 11 11 12 11 11 10 11 11 11 11 10 10 9 9 9 9 10 9 9 9 9 9 9 9 9 8 8 8 8 8 8 9 9 11 13 12 12 12 12 12 11 12
10 10 11 11 12 11 11 11 11 11 11 10 9 9 9 9 9 10 9 9 9 9 9 9 9 9 9 8 8 8 8 8 8 8 9 9 11 12 12 12 12 12 12 12
9 11 10 11 13 12 12 12 12 11 11 11 10 9 10 10 9 9 9 9 9 9 9 9 8 8 8 8 8 8 8 7 7 8 8 9 11 12 12 11 11 12 12 12
12 12 12 12 12 12 11 11 11 11 10 10 10 10 9 9 8 8 7 7 8 8 8 8 8 8 8 8 7 7 7 7 7 7 8 8 10 11 12 11 11 11 11 12
12 12 12 11 11 11 11 10 10 10 10 10 9 9 8 8 7 7 6 6 6 7 8 8 9 8 8 7 7 7 7 7 7 7 7 8 9 11 12 12 12 11 11 11
11 11 11 11 11 10 10 10 9 9 9 8 8 8 7 6 5 5 5 5 5 5 5 7 8 8 8 8 7 7 6 7 7 6 7 8 9 10 11 12 12 11 11 11
11 10 10 10 10 9 9 9 8 8 8 7 7 6 5 5 4 3 3 4 4 4 4 5 5 7 8 8 7 6 6 6 6 7 7 8 8 9 10 11 12 11 11 11
10 9 9 9 9 9 9 8 8 8 7 6 5 4 4 3 3 3 3 3 3 3 3 3 3 4 6 7 7 6 6 6 6 7 7 8 8 9 10 11 12 12 12 12
9 9 9 9 9 8 8 8 7 6 5 5 4 4 3 3 2 2 2 2 2 2 2 3 3 4 5 5 6 6 6 7 7 7 7 8 8 9 10 11 12 12 12 12
9 9 9 9 9 8 8 7 6 5 5 4 3 3 3 2 2 2 2 2 2 2 2 2 2 3 4 4 5 6 6 6 6 7 7 8 9 9 10 11 12 12 11 11
9 9 9 8 8 7 7 6 5 4 4 3 3 2 2 2 2 3 3 3 3 2 2 1 2 2 3 4 5 6 6 6 6 7 7 8 9 9 10 11 12 12 11 11
9 8 8 8 7 7 6 5 4 4 3 3 3 3 3 3 3 3 3 3 2 2 2 2 2 3 4 5 6 6 7 7 7 7 7 9 9 10 11 11 12 12 11 12
8 8 8 7 7 6 6 5 5 3 3 3 3 3 3 4 4 4 3 3 3 3 4 4 4 5 5 6 7 7 7 6 7 8 9 10 10 12 12 11 12 12 12 12
8 8 7 7 6 5 5 5 4 3 3 3 3 4 4 4 4 3 4 4 4 4 4 5 5 6 6 7 7 7 7 7 8 9 10 11 12 12 12 12 12 12 12 12
7 7 6 6 5 4 4 4 5 4 3 4 4 5 5 5 5 5 5 5 5 5 5 6 6 6 7 7 7 6 7 8 8 10 11 11 12 12 12 12 12 12 12 12
7 6 6 5 4 3 3 5 5 4 3 4 4 5 5 6 6 6 6 6 6 6 6 6 6 6 6 6 6 7 8 9 10 10 11 11 12 12 12 12 12 12 12 11
6 6 5 4 3 2 3 4 3 3 3 4 4 5 5 5 6 6 7 7 7 6 7 7 7 7 7 7 8 8 9 10 10 11 12 12 12 12 12 12 12 12 12 12
6 5 4 3 3 3 4 5 4 3 4 3 4 5 5 5 6 7 7 7 7 7 7 7 7 7 7 7 8 9 9 9 10 11 11 11 12 12 12 12 12 12 12 12

GEFSNGP_850_meantemp_006.txt.gz
Temperature
17 17 18 18 18 18 17 15 14 14 12 10 10 10 10 10 9 9 9 10 10 10 11 12 12 13 13 12 12 13 13 14 14 15 15 15 14 14 13 13 12 12 12 12
18 19 18 18 18 17 15 14 14 11 9 9 9 9 9 9 9 9 9 9 9 9 10 10 10 11 11 11 11 11 12 12 13 14 14 15 14 14 13 13 12 12 12 12
16 17 18 16 14 14 11 10 10 10 9 9 9 8 8 8 8 8 8 8 8 9 9 9 9 9 9 10 10 10 11 11 12 12 13 14 14 13 13 13 12 12 12 11
14 17 18 13 13 12 10 9 9 9 9 8 7 7 7 8 8 9 9 9 9 9 9 9 9 9 9 9 9 10 10 10 11 11 12 12 13 13 13 12 12 12 12 11
13 16 16 14 13 12 12 9 9 9 9 9 9 8 9 10 10 10 10 10 10 10 10 10 10 9 9 9 9 9 9 10 10 10 11 11 11 11 12 12 12 12 12 11
14 16 15 11 12 12 12 10 9 9 9 10 9 8 8 10 10 10 10 10 10 10 10 10 10 9 9 9 9 9 9 9 9 9 10 10 10 10 11 11 11 11 11 11
13 14 11 10 11 12 10 9 11 11 10 10 9 9 10 10 10 10 10 10 10 10 10 10 10 9 9 9 9 9 8 8 8 9 9 9 9 9 10 10 11 11 11 11
11 12 11 10 10 10 10 11 11 11 10 10 9 9 9 9 9 9 9 9 9 9 9 9 9 9 9 9 9 9 8 8 8 8 8 8 8 8 9 9 10 10 10 11
9 9 10 10 11 11 11 11 10 10 10 9 9 8 8 8 8 8 8 8 8 8 8 8 8 8 8 8 8 8 8 8 8 8 8 8 8 8 8 8 9 9 10 11
8 9 10 11 11 11 11 10 9 9 9 9 8 8 8 8 7 7 7 7 7 7 7 7 7 7 7 7 7 7 7 7 7 8 8 8 7 7 7 7 8 9 10 11
8 9 10 11 11 10 9 9 9 8 8 8 8 7 7 7 7 7 7 7 6 6 6 6 6 6 6 6 6 6 6 6 7 7 7 7 7 7 7 7 7 8 9 11
8 10 9 9 9 9 9 8 8 8 8 7 7 7 6 6 6 6 6 5 5 5 5 5 5 5 5 5 5 5 5 6 6 7 7 7 6 6 7 6 7 7 8 10
10 10 9 9 9 9 8 8 8 7 7 6 6 6 6 5 5 4 4 4 4 4 4 4 4 4 4 4 4 4 4 5 6 7 7 6 6 6 6 6 7 7 8 9
10 9 9 9 9 8 8 8 7 6 6 6 6 5 5 4 4 4 4 4 3 3 3 3 3 3 3 3 3 3 4 5 6 6 7 6 6 6 5 5 6 7 8 9
9 9 9 8 8 8 7 7 6 6 5 5 5 4 4 3 3 3 3 3 3 3 3 3 3 3 3 3 3 3 4 5 6 6 6 6 6 5 5 5 6 8 9 9
9 8 8 8 8 7 6 6 5 5 5 4 4 4 3 3 3 3 3 3 3 3 3 3 3 3 3 3 3 3 4 4 5 6 6 6 6 5 5 5 6 8 9 10
8 7 8 7 7 6 6 5 5 4 4 4 3 3 3 3 3 4 3 3 3 3 3 2 2 3 3 3 3 3 3 4 5 5 6 6 6 6 6 6 7 8 9 10
8 8 8 7 6 6 5 5 4 4 4 4 4 3 3 3 3 4 3 3 3 3 3 2 2 2 2 2 3 3 3 4 5 5 5 6 6 6 6 7 8 8 9 10
8 8 7 6 6 6 5 4 4 4 5 4 3 3 3 3 3 4 3 3 3 3 3 3 2 2 2 2 3 3 3 4 4 5 6 6 6 6 6 7 8 9 9 9
7 7 6 6 6 5 4 4 4 5 5 5 4 2 2 3 3 4 4 4 4 4 4 3 3 3 2 2 3 3 4 4 5 5 6 6 6 7 7 8 8 9 9 9
7 6 6 5 5 5 4 4 4 5 5 5 3 2 2 3 3 4 4 4 4 4 4 4 4 4 3 3 3 4 4 5 5 6 6 6 7 7 7 8 8 9 9 10
6 6 5 5 4 4 5 4 5 5 5 4 3 2 2 3 3 4 4 4 4 4 4 5 5 5 4 4 4 5 5 5 6 6 6 7 7 7 8 8 9 10 10 11
6 5 5 4 4 4 4 4 5 5 4 3 2 2 2 3 3 4 4 4 5 5 5 5 5 5 5 6 6 6 6 6 6 7 7 7 7 8 8 9 10 11 11 11
5 5 4 4 4 4 4 4 4 5 4 3 2 2 3 3 4 4 4 5 5 5 6 6 6 6 6 6 6 7 7 7 7 7 7 8 8 9 9 10 11 11 11 11
5 4 4 4 4 3 3 4 4 4 3 2 2 2 3 3 4 4 5 5 6 6 6 7 7 6 7 7 7 7 7 8 8 9 9 10 10 10 10 11 11 11 11 11
4 4 4 4 3 3 3 3 3 3 2 1 2 2 3 3 4 5 6 6 6 7 7 7 7 7 7 7 8 8 9 9 10 10 11 11 11 11 11 11 11 11 12 12
4 4 4 4 4 3 4 4 3 2 2 2 2 3 3 3 5 5 6 6 7 7 7 7 7 8 8 8 9 9 10 10 11 11 11 11 11 11 11 12 12 12 12 12

GEFSNGP_850_meantemp_012.txt.gz
Temperature
25 26 25 24 23 22 22 21 21 20 17 14 13 12 11 10 10 10 10 10 9 9 9 9 9 9 9 9 8 8 8 8 8 8 9 10 10 11 11 12 12 12 12 12
24 25 24 21 19 19 18 18 18 16 14 14 12 11 10 10 10 10 10 11 11 10 10 10 10 9 9 9 8 8 8 8 8 8 8 8 9 10 10 11 12 12 12 12
24 25 23 20 16 17 16 15 16 15 14 13 11 11 11 12 12 12 12 12 12 11 11 11 10 10 10 9 9 8 8 8 8 8 8 8 9 9 9 10 11 11 11 12
24 23 22 15 16 16 15 14 14 13 13 13 13 13 13 13 14 13 12 12 11 11 11 11 10 10 10 10 9 9 9 9 9 9 9 9 9 9 9 9 10 10 11 11
23 23 19 16 16 16 15 15 14 14 15 14 14 13 14 14 12 11 11 11 10 10 10 10 10 9 9 9 9 9 9 9 9 9 9 9 9 9 9 9 9 10 10 10
21 20 20 16 16 16 17 15 14 14 14 13 13 13 13 11 11 10 10 10 9 9 9 9 9 9 9 9 9 9 9 9 9 9 9 8 8 8 8 8 8 9 9 10
20 20 17 16 16 16 16 16 14 13 13 12 12 11 11 10 10 10 9 9 9 9 8 8 8 8 8 8 8 8 8 8 8 8 8 8 8 8 8 8 8 8 8 9
19 19 17 15 16 15 15 14 13 12 11 11 11 10 10 10 9 9 9 9 8 8 8 7 7 7 7 7 7 7 7 7 7 7 7 8 8 8 7 8 8 8 8 8
17 18 16 15 14 14 13 12 12 11 11 10 10 10 9 9 9 9 9 8 8 7 7 6 6 6 6 6 6 6 6 6 6 6 6 7 7 7 7 7 8 9 9 8
16 17 16 14 14 13 12 11 11 10 10 10 9 9 9 9 9 8 8 8 7 7 6 6 5 5 5 5 5 5 5 5 5 5 6 6 6 7 8 8 8 9 9 8
16 16 15 14 13 12 11 10 10 10 10 9 9 9 9 8 8 8 8 7 7 6 5 5 5 5 5 5 5 5 5 5 5 5 5 5 6 6 7 8 8 8 8 7
15 14 13 13 12 11 11 10 10 9 9 9 9 9 9 8 8 8 7 7 6 5 4 4 4 4 4 4 4 4 4 4 4 4 4 5 5 6 7 7 7 7 7 7
13 13 12 11 11 11 10 10 10 9 9 9 9 9 8 8 7 7 7 6 5 4 4 4 4 4 4 4 4 4 4 4 4 4 4 4 5 6 7 7 7 7 7 7
12 11 11 11 10 10 10 9 9 9 9 9 8 8 8 7 7 6 6 5 4 3 3 3 3 4 4 4 4 3 3 3 3 4 4 4 5 6 7 7 6 6 6 6
12 11 10 10 10 10 9 9 9 9 8 8 8 7 7 6 6 6 5 4 3 3 3 3 3 3 4 3 3 3 3 3 3 3 4 4 5 6 7 7 7 6 6 6
10 10 10 10 9 9 9 8 8 8 8 7 7 7 6 6 5 4 4 3 3 3 3 3 3 3 3 3 3 3 3 3 3 3 4 4 5 6 7 6 6 6 5 5
10 10 10 9 9 8 8 8 7 7 7 6 6 6 5 4 4 3 3 3 2 3 3 3 4 4 3 3 3 3 3 3 3 4 4 5 6 6 6 6 5 5 5 5
10 9 9 8 8 7 7 7 7 6 6 5 5 4 4 3 3 3 3 3 3 3 3 4 4 4 3 3 3 3 3 4 4 4 5 6 6 6 6 5 5 5 5 5
9 9 8 8 7 7 6 6 6 5 5 5 4 3 3 2 3 3 3 3 3 3 4 4 4 4 4 3 3 4 4 4 4 5 5 5 6 5 5 5 5 5 5 6
9 8 8 7 7 6 6 6 5 5 4 4 3 2 2 2 3 3 3 3 3 4 4 4 5 4 4 4 4 4 4 5 5 5 6 6 5 5 5 5 5 6 6 7
9 8 7 7 6 6 5 5 4 4 3 3 2 2 2 3 3 3 3 3 4 4 5 5 5 5 5 5 5 5 5 5 6 6 6 6 6 6 6 6 6 7 7 8
8 7 6 6 5 5 5 4 4 3 3 2 2 2 3 3 3 3 4 4 5 5 6 6 6 5 5 5 5 6 6 6 6 6 6 6 6 7 7 7 7 8 8 9
7 6 6 5 5 5 5 4 4 3 2 2 3 3 3 3 3 3 4 5 6 6 6 6 6 6 6 6 6 6 6 6 7 7 7 7 7 7 8 8 8 9 9 10
6 6 5 5 4 5 4 4 3 3 3 3 3 3 3 3 4 5 5 6 6 7 7 7 7 7 7 6 7 7 7 7 7 7 8 8 8 8 8 9 9 10 10 10
6 5 5 4 5 5 4 4 3 3 3 3 3 3 3 3 4 5 6 6 7 7 7 7 7 7 7 7 7 7 7 8 8 8 8 8 9 9 9 9 10 10 10 10
6 5 5 4 4 4 4 4 3 3 3 3 3 3 3 4 5 6 6 7 8 8 8 8 8 8 8 8 8 8 8 9 9 9 9 9 10 10 10 11 11 11 11 11
6 6 5 5 5 4 4 4 3 3 3 3 3 3 3 4 5 6 6 7 8 8 9 9 9 9 9 9 9 9 9 10 10 10 10 10 11 11 11 12 12 12 12 12

GEFSNGP_850_meantemp_018.txt.gz
Temperature
27 28 28 27 26 25 24 23 22 22 22 22 19 18 17 17 16 16 16 16 15 14 14 13 13 12 12 12 12 11 11 11 10 10 10 10 9 9 9 9 9 9 10 10
26 27 27 25 24 23 23 22 22 21 21 21 19 18 17 17 16 16 16 15 14 13 13 13 12 12 12 11 11 11 11 11 10 10 10 10 10 9 9 9 9 9 9 10
25 27 26 23 21 21 21 21 21 20 20 20 18 17 17 16 16 16 14 14 13 13 12 12 11 11 11 11 11 10 10 10 10 10 10 10 10 10 10 9 9 9 9 9
25 26 24 21 22 21 20 21 21 19 18 18 17 17 16 16 16 14 13 13 12 12 12 11 11 11 11 10 10 10 9 9 9 9 9 9 10 10 10 9 9 9 9 9
25 24 24 22 21 21 19 20 19 18 18 17 16 16 16 15 14 13 13 12 12 12 11 11 11 10 10 10 9 9 9 9 8 8 9 9 9 9 9 9 9 9 9 9
24 23 22 20 21 20 20 20 18 17 17 16 15 15 15 14 13 13 12 12 12 11 11 11 11 10 10 9 9 8 8 8 8 8 8 8 8 8 8 9 9 9 9 9
23 22 22 20 21 20 18 18 17 16 16 15 15 14 14 13 13 12 12 12 12 11 11 11 10 10 9 9 8 8 7 7 7 7 7 7 7 8 8 8 8 8 8 9
22 21 21 21 20 18 17 17 16 15 15 14 14 13 13 13 13 12 12 12 11 11 11 10 10 10 9 8 7 7 6 6 6 6 6 6 7 7 7 7 7 8 8 8
21 21 21 19 19 18 17 16 15 15 14 14 13 13 13 13 12 12 12 11 11 11 10 10 9 8 7 7 6 5 5 5 5 5 5 6 6 6 6 7 7 7 8 8
21 21 20 18 18 17 16 15 15 14 14 13 13 13 13 12 12 12 11 11 10 9 8 8 7 6 5 5 4 4 4 4 4 4 5 5 6 6 6 6 7 7 7 8
21 20 18 18 16 16 15 15 14 14 13 13 13 12 12 12 11 11 10 9 8 7 6 5 4 4 4 4 3 3 4 4 4 4 5 5 5 6 6 6 6 7 7 7
19 18 17 16 16 15 15 14 14 13 13 12 12 12 11 11 10 9 8 7 5 5 4 3 3 3 3 3 3 3 3 4 4 4 5 5 5 5 6 6 6 6 7 7
18 17 16 16 15 15 14 13 13 13 12 12 12 11 10 10 9 7 6 5 4 3 3 3 3 3 3 3 3 3 4 4 4 4 5 5 5 5 5 6 6 6 6 7
17 16 15 15 15 14 13 13 12 12 12 11 11 10 9 8 7 5 4 4 4 3 3 3 4 4 4 4 4 4 4 4 4 4 5 5 5 5 5 6 6 6 6 7
16 15 15 15 14 13 13 12 12 12 11 11 10 9 8 7 5 5 4 4 4 4 4 4 4 4 4 4 4 4 4 4 4 5 5 5 5 5 6 6 6 6 6 7
16 15 15 14 13 13 12 12 11 11 10 10 9 8 7 5 5 4 4 4 4 4 4 5 5 5 5 5 5 5 5 5 5 5 5 5 5 5 6 6 6 7 7 6
15 15 14 13 13 12 12 11 11 10 10 9 8 7 6 5 4 4 4 4 5 5 5 5 5 5 5 5 5 5 5 5 5 5 5 5 6 6 6 6 7 7 7 7
15 14 14 13 12 11 11 10 10 9 9 8 7 6 5 5 4 4 4 5 5 5 5 5 6 6 6 6 5 5 6 6 6 6 6 6 6 6 6 7 7 7 7 7
15 14 13 12 12 11 10 10 9 9 8 7 6 5 5 5 4 4 5 5 5 5 6 6 6 6 6 6 6 6 6 6 6 6 6 6 6 6 6 7 7 7 7 6
14 14 13 12 11 11 10 9 9 8 8 7 6 5 5 5 5 5 5 5 5 6 6 6 7 7 7 7 7 6 6 6 6 6 6 6 6 6 6 6 6 6 6 6
14 13 12 12 11 10 10 9 9 8 7 7 6 6 5 5 5 5 5 5 6 6 7 7 7 7 7 7 7 7 7 7 7 7 7 6 6 6 6 6 6 6 6 6
13 12 11 11 10 10 9 9 9 8 7 7 6 6 6 5 5 6 6 6 6 7 7 7 7 7 8 8 8 8 8 7 7 7 7 7 7 6 6 6 6 6 7 7
12 12 11 10 10 9 9 9 8 8 7 7 6 6 6 5 5 5 6 6 7 7 8 8 8 8 8 8 8 8 8 8 8 8 8 8 7 7 7 8 8 8 8 8
12 11 11 10 9 9 9 9 8 8 7 7 7 6 6 6 6 6 6 7 7 8 9 9 9 9 9 9 9 9 9 9 9 9 9 8 9 9 9 9 9 9 9 10
11 11 10 10 10 10 9 9 8 8 7 7 6 6 6 5 5 6 6 7 8 9 9 9 9 9 9 10 10 10 10 10 10 10 10 10 10 10 10 10 10 10 10 11
11 11 11 10 10 9 9 8 8 8 7 6 6 6 5 5 5 6 6 7 8 8 9 9 10 10 10 10 10 10 10 10 11 11 11 11 11 11 11 11 11 11 11 11
12 12 12 11 10 9 8 8 8 7 7 6 5 5 5 5 5 5 6 7 8 8 8 9 9 9 10 10 10 10 11 11 11 11 11 12 12 12 12 12 12 12 12 12

GEFSNGP_850_meantemp_024.txt.gz
Temperature
20 21 21 20 20 20 18 18 16 16 15 13 13 13 14 14 14 14 13 13 13 13 12 12 12 12 12 11 11 11 11 11 10 10 10 10 10 9 9 9 9 9 9 9
19 21 20 19 19 19 18 17 17 15 14 14 14 14 14 14 14 13 13 13 13 13 12 12 12 12 12 11 11 11 11 10 10 10 10 10 9 9 9 9 9 9 9 9
18 19 19 16 17 17 17 16 15 13 13 12 12 13 13 14 13 13 13 13 12 12 12 12 12 11 11 11 11 11 10 10 10 10 10 9 9 9 9 8 8 9 9 9
17 18 18 17 18 18 17 15 14 14 13 13 13 13 13 13 13 13 12 12 12 11 11 11 11 10 10 10 10 10 10 10 10 9 9 9 9 8 8 8 8 8 8 8
16 18 18 18 18 18 17 14 14 13 12 13 13 12 12 13 12 12 12 11 11 10 10 9 9 9 8 8 8 8 8 8 8 8 8 8 8 8 8 8 7 7 8 8
17 18 17 17 17 18 17 14 13 13 12 12 12 9 10 12 12 11 10 10 9 9 8 8 7 7 6 6 6 6 6 6 6 7 7 7 7 7 7 7 7 7 7 7
16 17 16 16 17 15 13 12 14 14 13 12 11 10 12 11 11 10 9 9 8 7 6 6 6 5 5 5 5 5 5 5 5 5 5 5 6 6 6 6 6 6 6 7
15 16 15 16 15 14 13 14 14 13 13 12 12 12 11 10 10 9 8 7 7 6 5 5 5 4 4 4 4 4 4 4 4 4 4 4 5 5 5 5 5 6 6 6
14 14 15 16 15 15 15 14 13 13 12 12 11 11 10 9 9 8 7 6 6 5 5 5 4 4 4 4 4 4 4 4 4 4 4 4 4 4 4 5 5 5 6 6
15 15 16 15 15 15 14 13 13 12 12 11 11 10 9 9 8 7 6 6 5 5 4 4 4 4 4 4 4 4 4 4 4 4 4 4 4 4 4 4 5 5 5 6
15 15 16 15 15 14 14 13 13 12 11 11 10 9 8 8 7 6 6 5 5 4 4 4 5 5 5 5 4 4 4 4 4 4 4 4 4 4 4 4 5 5 5 6
14 15 14 15 14 14 13 13 12 11 11 10 9 9 8 7 7 6 5 5 5 5 5 5 5 5 5 5 5 4 4 4 4 4 4 4 4 4 4 4 5 5 5 5
17 16 15 15 14 13 13 12 11 11 10 9 9 8 7 7 6 6 5 5 5 5 5 5 5 5 5 5 5 5 5 4 4 4 4 4 4 4 5 5 5 5 5 5
16 16 15 14 14 13 13 12 11 10 10 9 8 8 7 6 6 6 5 5 5 5 6 6 6 6 6 6 5 5 5 5 5 5 5 5 5 5 5 5 5 5 5 6
16 16 15 14 14 13 12 11 10 10 9 8 8 7 7 6 6 6 6 5 6 6 6 6 6 6 6 6 6 6 5 5 5 5 5 5 5 5 5 5 5 5 5 6
16 15 15 14 13 12 12 11 10 9 9 8 8 7 7 6 6 6 6 6 6 6 6 6 6 6 6 6 6 6 6 6 6 5 5 5 5 5 5 6 6 6 6 6
16 15 14 13 13 12 11 10 10 9 8 8 7 7 7 7 7 7 7 6 6 6 6 6 6 7 7 7 6 6 6 6 6 6 6 6 6 6 6 6 6 6 6 6
16 15 14 14 13 12 11 10 9 9 8 8 7 7 7 6 6 6 6 7 7 8 7 7 7 7 7 7 7 6 6 6 6 6 6 6 6 6 6 6 6 6 6 6
15 15 14 13 13 12 11 10 9 9 8 8 7 7 7 6 6 6 7 7 7 7 7 8 8 8 8 8 7 7 7 6 6 6 6 6 6 6 6 7 6 6 6 6
15 14 14 13 12 11 10 10 9 9 8 8 7 7 7 6 6 6 7 7 6 6 7 8 8 8 8 8 8 8 7 7 7 6 6 6 6 7 7 7 7 7 6 6
15 14 14 13 12 11 10 9 9 9 8 8 7 7 6 6 6 6 6 7 8 8 8 8 8 8 8 9 8 8 8 7 7 7 6 6 6 6 6 7 7 7 7 7
15 14 13 13 12 11 10 9 9 8 8 7 7 7 6 6 6 6 6 6 7 7 8 8 8 8 9 9 9 9 8 8 7 7 7 7 6 6 6 6 6 7 7 7
15 14 13 12 12 11 10 9 9 8 8 7 7 6 6 5 5 5 6 6 7 7 8 8 8 9 9 9 9 9 9 8 8 8 8 7 7 7 7 7 7 7 7 7
14 14 13 12 12 11 10 9 9 8 8 7 7 6 6 5 6 6 6 6 7 7 8 8 9 9 10 10 10 10 10 9 9 9 8 8 8 8 7 7 7 7 8 8
14 14 13 12 12 11 10 10 9 8 7 7 6 6 5 5 5 6 6 6 7 7 8 9 9 9 10 10 10 10 10 10 10 10 9 9 9 9 9 8 8 8 8 8
14 14 13 13 12 11 10 10 9 8 7 7 6 6 6 6 5 6 6 6 6 7 7 8 9 9 9 9 10 10 10 10 11 10 10 10 10 10 9 9 9 9 9 10
14 14 13 13 12 11 10 10 9 8 7 7 6 6 5 5 5 5 5 6 6 6 6 7 8 8 9 9 9 10 10 10 11 11 11 11 11 10 10 10 10 10 10 10

GEFSNGP_850_meantemp_030.txt.gz
Temperature
17 18 18 17 17 17 16 16 15 15 14 13 12 12 13 13 13 12 12 11 10 10 9 9 9 8 8 8 8 8 8 8 8 9 9 10 10 10 10 10 10 10 9 9
17 17 17 17 17 17 16 16 15 14 13 13 13 13 12 12 12 11 11 10 9 9 8 8 7 7 6 6 6 6 6 6 7 7 8 8 9 9 9 9 9 9 9 9
16 17 17 16 16 16 16 15 14 13 12 11 10 10 11 12 11 10 10 9 8 8 7 7 6 6 5 5 5 5 5 5 5 6 6 7 7 8 8 8 9 9 9 9
15 17 18 16 16 16 15 14 13 12 11 11 11 12 12 11 10 9 9 8 8 7 6 6 6 5 5 5 5 5 5 5 5 5 5 5 5 6 6 7 7 8 8 8
14 16 16 16 16 16 14 13 12 12 11 12 12 10 10 11 9 9 8 8 7 7 6 6 5 5 5 5 5 4 4 4 4 4 4 4 5 5 5 6 6 7 7 7
14 17 16 16 16 16 14 13 13 12 11 11 10 7 8 10 9 8 8 7 7 6 6 6 5 5 5 5 4 4 4 4 4 4 4 4 4 4 4 5 5 6 6 6
14 15 15 15 16 15 14 14 14 13 12 11 9 8 10 9 8 8 7 7 6 6 6 6 5 5 5 5 5 4 4 4 4 4 4 4 4 4 4 4 5 5 5 6
13 15 15 15 14 13 14 14 14 13 12 11 10 10 9 8 8 7 7 7 6 6 6 6 6 5 5 5 5 5 4 4 4 4 4 4 4 4 4 4 4 4 5 5
13 14 15 16 16 16 15 14 13 12 12 11 10 9 8 8 7 7 7 7 6 6 6 6 6 5 5 5 5 5 5 5 4 4 4 4 4 4 4 4 4 4 4 5
12 13 14 15 15 15 14 14 13 12 11 10 9 9 8 7 7 7 7 7 6 6 6 6 6 6 6 6 5 5 5 5 5 4 4 4 4 4 4 4 4 4 4 4
13 13 14 15 15 15 14 13 12 12 11 10 9 8 7 7 7 7 7 7 6 6 6 6 6 6 6 6 5 5 5 5 5 5 4 4 4 4 4 4 4 4 4 4
14 15 13 16 17 15 14 13 12 11 10 9 8 8 7 7 7 7 7 7 7 7 7 7 6 6 6 6 6 5 5 5 5 5 5 4 4 4 4 4 4 4 4 4
19 19 18 17 16 14 13 13 12 11 10 9 8 8 7 7 7 7 7 7 7 7 7 7 6 6 6 6 6 6 5 5 5 5 5 5 4 4 4 4 4 4 4 4
19 18 16 16 15 14 13 12 12 11 10 9 8 8 7 7 7 7 7 7 7 7 7 7 7 7 6 6 6 6 6 6 5 5 5 5 5 5 5 5 5 5 5 5
18 17 17 16 15 14 13 12 11 11 10 9 8 8 7 7 7 7 7 7 7 8 7 7 7 7 7 6 6 6 6 6 6 6 5 5 5 5 5 5 5 5 5 5
18 17 16 15 15 14 13 12 11 10 10 9 8 8 7 7 7 7 7 7 7 7 7 7 7 7 7 7 7 6 6 6 6 6 6 6 6 6 5 5 5 5 5 5
18 17 16 15 15 14 13 12 11 10 9 9 8 8 7 7 7 7 7 7 7 7 7 7 7 8 7 7 7 7 6 6 6 6 6 6 6 6 6 6 5 5 5 5
19 19 17 16 15 14 13 12 11 10 9 9 8 8 7 7 6 6 7 7 8 8 8 8 8 8 8 8 7 7 7 6 6 6 6 6 6 6 6 6 6 5 5 5
18 18 17 16 15 14 13 12 11 10 9 9 8 8 7 7 6 6 6 6 7 7 8 8 8 8 8 8 8 7 7 7 7 7 6 6 6 6 6 6 6 6 5 5
18 17 16 15 14 14 13 12 11 10 9 9 8 8 7 7 7 6 6 6 6 6 7 7 8 8 8 8 8 8 7 7 7 7 7 7 6 6 6 6 6 6 6 6
18 17 16 15 14 14 13 12 11 10 10 9 8 8 7 7 7 6 6 6 7 7 7 7 8 8 8 8 8 8 8 7 7 7 7 7 7 6 6 6 6 6 6 6
18 17 16 15 14 14 13 12 11 11 10 9 8 8 7 7 7 7 6 6 6 6 7 7 7 8 8 8 9 8 8 8 7 7 7 7 7 6 6 6 6 6 6 6
18 17 16 15 14 13 13 12 11 11 10 9 8 8 7 7 6 6 6 6 6 6 6 7 7 8 8 9 9 9 9 8 8 8 7 7 7 7 7 6 6 7 7 7
17 17 16 15 14 13 13 12 11 11 10 9 8 7 7 7 7 6 5 5 6 6 6 7 7 8 8 9 9 9 9 9 9 8 8 8 7 7 7 7 7 7 7 7
17 16 15 15 14 14 13 12 12 11 10 9 8 7 7 6 6 6 5 5 6 6 6 6 7 7 8 8 8 9 9 9 9 9 9 8 8 8 8 7 7 7 8 8
16 16 15 15 15 14 14 13 12 11 10 9 8 7 7 6 6 6 5 5 5 5 6 6 7 7 8 8 8 8 9 9 9 9 9 9 9 8 8 8 8 8 8 9
15 15 15 15 14 14 13 13 12 11 10 9 8 7 6 6 6 5 5 5 5 5 5 5 6 6 7 7 8 8 8 9 9 9 10 10 9 9 9 9 9 9 9 9

GEFSNGP_850_meantemp_036.txt.gz
Temperature
25 25 25 25 24 24 24 23 23 23 23 23 22 20 18 17 16 15 14 13 12 12 11 10 10 9 9 8 8 7 7 7 7 7 6 6 6 6 6 6 7 7 7 8
25 25 25 24 24 23 23 23 23 23 23 22 20 19 18 17 16 15 14 13 12 11 10 10 9 9 8 8 7 7 7 7 6 6 6 6 6 6 6 6 6 6 7 7
25 25 24 24 24 23 23 23 22 22 22 22 20 19 17 16 15 14 13 12 11 11 10 9 9 8 8 7 7 7 6 6 6 6 6 6 6 5 5 5 5 6 6 6
25 24 23 24 24 24 23 23 23 22 22 21 19 17 16 15 14 13 12 11 11 10 10 9 9 8 7 7 7 7 6 6 6 6 5 5 5 5 5 5 5 5 5 6
25 25 25 24 23 23 22 22 23 22 21 20 19 17 18 15 13 12 11 11 10 10 9 9 8 8 7 7 7 6 6 6 6 5 5 5 5 5 5 5 5 5 5 5
24 23 23 24 23 22 22 22 22 21 20 19 18 18 18 15 13 12 11 10 9 9 9 9 8 7 7 7 6 6 6 6 6 5 5 5 5 5 5 5 5 5 5 5
24 24 25 24 22 21 22 22 21 20 19 18 17 17 15 13 12 11 10 10 9 9 9 8 8 7 7 6 6 6 6 6 5 5 5 5 5 5 5 5 5 5 5 5
24 23 24 23 22 22 22 20 19 18 18 17 16 15 14 13 12 11 10 10 9 9 9 8 7 7 7 6 6 6 6 6 6 6 6 5 5 5 5 5 5 5 5 5
25 25 23 22 22 22 20 20 19 18 17 16 15 14 14 12 11 11 10 9 9 9 8 8 7 7 6 6 6 6 6 6 6 6 6 5 5 5 5 5 5 5 5 5
23 25 23 22 21 20 19 19 18 17 16 15 15 14 13 12 11 10 10 9 9 8 8 8 7 7 6 6 6 6 6 6 6 6 6 6 6 5 5 5 5 5 5 5
23 24 23 22 21 20 19 18 17 16 15 14 14 13 12 11 11 10 9 9 8 8 8 7 7 7 6 6 6 6 6 6 6 6 6 6 6 6 5 5 5 5 5 5
24 24 23 23 21 20 19 18 17 16 15 14 13 13 12 11 10 9 9 8 8 8 7 7 7 7 6 6 6 6 6 6 7 7 6 6 6 6 6 5 5 5 5 5
23 23 23 22 20 19 18 17 16 15 14 14 13 12 11 11 10 9 9 8 8 7 7 7 7 6 6 6 6 6 6 6 7 7 7 7 7 6 6 6 5 5 5 5
21 20 21 21 20 19 18 17 16 15 14 13 12 12 11 10 10 9 8 8 7 7 7 6 6 6 7 7 7 6 7 7 7 7 7 7 7 7 6 6 6 5 5 5
21 19 20 20 19 18 17 17 16 15 15 14 13 12 11 10 9 9 8 7 7 7 6 6 6 7 7 7 7 7 7 7 7 7 7 7 7 7 7 6 6 6 5 5
21 19 19 19 18 18 17 16 16 16 15 14 12 11 11 10 9 9 8 7 7 6 6 6 6 7 7 7 7 7 7 7 7 7 8 8 8 7 7 6 6 6 6 6
20 19 19 18 18 18 17 17 16 15 15 13 12 11 10 10 9 9 8 7 6 6 6 6 6 7 7 7 7 7 7 7 7 8 8 8 8 7 7 7 6 6 6 6
20 20 19 19 19 18 17 16 15 15 13 13 11 11 10 9 9 8 7 7 7 6 6 5 6 7 7 7 7 7 7 7 7 8 8 8 8 7 7 7 7 6 6 6
19 18 19 18 18 18 17 16 15 14 13 12 11 10 10 9 8 8 7 7 6 6 6 7 7 7 7 7 7 7 7 7 7 7 8 8 8 8 8 7 7 7 7 7
17 17 18 18 17 17 16 15 14 13 12 11 11 10 10 9 8 8 7 7 6 6 6 7 7 7 7 7 7 7 7 7 7 7 7 8 8 8 8 8 7 7 7 7
17 17 17 17 16 16 16 15 14 13 12 11 11 10 9 9 8 8 7 7 6 6 7 6 6 6 7 7 7 7 7 7 7 7 7 8 8 8 8 8 8 7 7 7
15 16 16 16 16 16 15 15 14 13 12 11 10 10 9 9 9 8 7 7 6 6 6 5 6 6 7 7 7 7 7 7 7 7 7 7 8 8 8 8 8 8 8 8
14 14 15 15 15 15 15 15 14 14 13 11 11 10 10 9 9 8 8 7 7 7 6 5 6 6 7 7 7 7 7 7 7 7 7 7 7 8 8 8 8 8 8 8
14 14 14 14 14 14 14 14 14 13 12 11 11 10 10 9 9 8 7 7 7 7 6 5 6 6 7 6 7 7 7 7 8 7 7 7 7 8 8 8 8 8 8 8
13 13 13 13 14 14 14 14 13 13 12 11 11 10 10 9 9 8 8 7 7 6 5 5 5 6 6 6 7 7 7 8 8 7 7 7 7 8 8 8 9 9 9 9
13 13 13 13 13 13 14 14 13 12 12 12 11 11 10 9 9 8 7 6 6 5 5 4 4 5 5 6 6 7 7 8 8 8 7 7 7 8 8 8 9 9 9 9
13 13 13 13 13 13 13 13 13 12 12 12 11 10 9 9 8 8 7 6 6 5 4 4 4 4 4 5 6 6 7 7 8 8 8 8 8 8 8 8 9 9 9 9

GEFSNGP_850_meantemp_042.txt.gz
Temperature
29 29 29 29 29 28 27 27 26 26 26 26 25 24 23 22 21 20 19 18 17 15 15 14 13 12 12 11 11 10 10 9 9 9 8 8 8 8 8 8 8 8 7 7
28 29 29 28 29 28 28 27 27 26 26 26 25 24 23 22 21 20 18 17 16 15 14 13 13 12 12 11 11 10 10 9 9 8 8 8 8 8 8 7 7 7 7 7
26 28 28 27 28 28 28 28 27 26 26 25 24 23 22 21 20 19 18 17 16 15 14 13 13 12 12 11 10 10 9 9 9 8 8 8 8 8 7 7 7 7 7 7
26 27 25 27 29 28 27 27 27 26 26 25 24 23 21 20 19 18 17 16 15 14 13 13 12 12 11 11 10 10 9 9 8 8 8 8 7 7 7 7 7 7 7 7
26 26 26 28 28 28 26 26 27 26 25 24 23 22 21 18 18 17 16 15 14 13 13 12 12 11 11 10 10 9 9 8 8 8 7 7 7 7 7 7 7 7 7 7
26 25 25 27 28 27 26 25 25 25 24 23 23 22 22 19 18 17 15 15 14 13 13 12 12 11 10 10 9 9 8 8 8 8 7 7 7 7 7 7 7 7 7 7
25 25 26 28 27 27 25 24 24 24 23 23 22 21 19 19 17 16 15 14 14 13 12 12 11 10 10 9 9 8 8 8 8 8 8 8 8 8 8 7 7 7 7 7
26 25 25 27 27 26 25 25 24 24 23 22 21 20 19 18 17 16 15 14 13 13 12 11 11 10 9 9 8 8 8 8 8 8 8 8 8 8 8 8 7 7 7 7
27 26 26 26 26 26 25 25 24 23 23 22 21 20 19 18 17 16 15 14 13 12 12 11 11 10 9 9 8 8 8 8 8 8 8 8 8 8 8 8 7 7 7 7
26 27 27 27 27 26 25 24 24 23 22 21 20 19 18 17 16 15 14 13 13 12 11 11 10 10 9 8 8 8 7 7 7 8 8 8 8 8 8 8 7 7 6 6
26 27 27 27 26 26 25 24 23 23 22 21 20 19 18 17 16 15 14 13 12 12 11 11 10 9 9 8 8 8 7 7 7 8 8 8 8 8 8 8 7 7 6 6
27 27 27 26 26 26 25 24 23 22 22 21 20 19 18 17 15 14 14 13 12 11 11 10 9 9 8 8 8 7 7 7 7 8 8 8 8 8 8 8 8 7 7 6
27 27 27 26 26 26 25 24 23 22 21 20 19 18 17 16 15 14 14 13 12 11 10 10 9 9 8 8 8 7 7 7 8 8 8 8 8 8 8 8 8 7 7 7
27 26 26 26 25 25 25 24 24 23 21 20 19 18 17 16 15 14 13 13 12 11 10 10 9 8 8 8 8 8 8 8 8 8 8 8 9 9 8 8 8 7 7 7
26 26 26 26 25 25 24 24 23 22 21 20 19 18 17 16 15 14 13 12 12 11 10 9 9 8 8 8 8 8 8 8 8 8 8 9 9 9 9 8 8 8 7 7
25 26 26 25 25 24 24 24 23 22 22 21 20 18 17 16 15 14 13 12 11 11 10 9 8 8 8 8 8 8 8 8 8 8 8 9 9 9 9 8 8 8 8 7
25 25 25 25 24 24 24 23 23 22 22 21 20 18 17 15 14 14 13 12 11 10 10 9 8 8 8 7 7 8 8 8 8 8 9 9 9 9 9 8 8 8 8 8
23 23 23 23 23 23 23 23 23 22 21 20 19 18 16 15 14 13 12 11 11 10 10 9 9 9 8 7 7 8 8 8 8 8 8 9 9 9 9 9 9 8 8 8
21 21 22 22 22 22 22 22 22 22 21 19 18 17 16 14 14 13 12 11 11 11 10 9 9 8 7 7 8 8 8 8 8 8 8 9 9 9 9 9 9 9 8 8
19 19 20 20 21 21 21 21 21 20 19 18 17 16 15 14 13 13 12 11 11 11 10 9 9 8 7 8 8 8 7 8 8 8 8 9 9 9 9 9 9 9 9 8
17 17 18 18 18 19 19 19 19 19 18 17 16 15 14 14 13 13 12 12 11 11 10 9 8 8 8 8 8 8 7 8 8 8 8 8 9 9 9 9 9 9 9 9
16 16 16 16 17 17 17 18 18 18 17 16 16 15 14 14 13 13 12 12 11 11 10 9 8 8 8 8 8 7 7 7 8 8 8 8 9 9 9 9 9 9 9 9
14 15 15 15 15 16 16 17 17 17 16 16 15 14 14 14 13 13 13 12 11 11 10 9 8 8 8 8 7 7 7 7 7 8 8 8 8 9 9 9 9 10 9 9
13 14 14 14 15 15 15 16 16 16 16 16 15 15 14 13 13 13 12 12 11 11 9 9 8 8 7 7 7 7 7 7 7 7 8 8 8 9 9 9 9 10 10 10
13 13 13 14 14 15 15 16 16 16 16 16 15 15 14 13 13 13 12 11 11 10 9 8 8 7 6 6 6 6 7 7 7 7 7 8 8 8 9 9 9 10 10 10
13 13 13 13 13 14 14 15 15 15 16 16 15 15 14 13 13 12 11 11 10 10 9 8 7 7 6 6 6 6 6 6 7 7 7 7 8 8 8 9 9 10 10 10
13 13 13 13 14 14 14 14 14 14 14 14 14 14 14 13 12 12 11 10 10 9 8 8 7 6 6 5 5 5 5 6 6 7 7 7 7 8 8 8 9 9 9 9

GEFSNGP_850_meantemp_048.txt.gz
Temperature
23 23 25 25 25 24 22 20 19 20 18 18 17 17 19 20 19 18 17 17 16 15 15 14 13 13 12 12 11 11 11 10 10 10 9 9 9 8 8 8 8 8 8 8
22 24 24 24 25 25 24 23 21 20 19 18 19 20 19 19 18 17 17 17 16 15 14 14 13 12 12 12 11 11 10 10 10 9 9 9 8 8 8 8 8 8 8 8
20 21 22 22 24 24 24 23 21 20 19 18 18 18 18 18 18 18 17 17 16 15 14 13 13 12 12 11 11 11 10 10 9 9 9 8 8 8 8 8 8 8 8 8
19 20 22 21 23 24 23 22 21 19 18 18 18 18 18 19 18 18 17 16 16 15 14 13 12 12 11 11 11 10 10 10 9 9 9 8 8 8 8 8 8 8 8 8
18 20 21 22 23 23 21 20 20 19 18 18 18 17 17 18 18 18 17 16 15 14 14 13 12 12 11 11 10 10 10 9 9 9 8 8 8 8 8 8 8 8 8 8
19 20 20 21 23 24 21 20 21 20 19 19 17 15 16 18 18 17 17 16 15 14 14 13 12 11 11 10 10 10 9 9 9 8 8 8 8 8 8 8 8 8 8 8
19 19 20 21 24 24 21 20 21 22 22 21 19 18 20 19 18 17 17 16 15 14 13 13 12 11 11 10 10 9 9 9 9 9 8 8 8 8 8 8 8 8 8 8
18 19 20 22 24 22 21 23 23 23 22 22 21 20 19 19 18 17 17 16 15 14 13 13 12 11 10 10 10 9 9 9 9 9 8 8 8 8 8 8 8 8 8 8
18 19 22 25 25 26 25 24 23 23 22 22 21 20 19 19 18 17 17 16 15 14 13 12 12 11 10 10 10 9 9 9 9 9 8 8 8 8 8 8 8 8 8 7
20 20 22 25 26 25 25 25 24 23 23 22 21 21 20 19 18 17 17 16 15 14 13 12 12 11 10 10 9 9 9 9 9 8 8 8 8 8 8 8 8 8 8 7
20 20 23 25 26 26 25 25 24 23 23 22 22 21 20 19 18 18 17 16 15 14 13 12 12 11 10 10 9 9 9 9 9 8 8 8 8 8 8 8 8 8 7 7
20 22 20 24 26 25 25 25 24 23 23 22 22 21 20 20 19 18 17 16 15 14 13 12 12 11 10 10 9 9 9 9 8 8 8 8 8 9 9 8 8 8 7 7
24 25 25 25 25 25 25 25 24 24 23 22 22 21 21 20 19 18 17 16 15 14 13 12 12 11 10 10 9 9 9 8 8 8 8 8 8 8 8 8 8 8 8 7
25 25 25 25 25 25 25 24 24 24 23 23 22 21 20 19 18 18 17 16 15 14 13 12 12 11 11 10 9 9 9 9 8 8 8 8 8 8 8 8 8 8 8 7
24 24 24 24 24 24 24 24 23 23 23 22 22 21 20 19 18 18 16 16 15 14 13 12 12 11 10 10 9 9 9 9 8 8 8 8 8 8 8 8 8 8 8 8
22 22 22 22 22 22 22 22 22 22 22 22 21 21 20 19 18 17 16 16 15 14 14 13 12 11 10 10 10 9 9 9 8 8 8 8 8 8 8 8 8 8 8 8
18 18 18 18 19 19 20 20 21 21 21 21 21 20 19 18 17 17 16 16 15 15 14 13 12 11 11 10 10 9 9 8 8 8 8 8 8 8 8 8 8 8 8 8
16 16 16 16 16 17 18 18 19 20 20 20 20 19 19 18 17 17 16 16 15 15 14 13 12 11 11 10 10 9 8 8 8 8 8 8 8 8 8 8 8 8 8 8
15 15 15 16 16 16 17 17 17 18 18 19 19 19 18 18 17 17 16 16 15 15 14 13 12 11 11 10 9 9 8 8 8 8 8 8 8 8 8 9 9 9 9 8
14 14 15 15 15 15 16 16 16 17 17 17 17 17 17 17 17 16 16 16 15 15 14 13 12 11 11 10 9 9 8 8 8 8 8 8 8 8 9 9 9 9 9 9
13 13 13 14 14 14 14 15 15 15 15 15 16 16 16 16 16 16 16 15 15 14 13 12 12 11 10 10 9 9 8 8 8 7 8 8 8 8 8 9 9 9 9 9
12 12 13 13 13 13 13 13 14 14 14 14 14 14 15 15 15 15 15 15 14 14 13 12 11 11 10 10 9 8 8 7 7 7 7 8 8 8 8 9 9 9 9 9
12 12 12 12 12 12 12 13 13 13 13 13 13 13 14 14 14 14 14 14 14 13 12 12 11 10 10 9 8 8 7 7 7 7 7 7 8 8 8 8 9 9 9 9
11 11 11 12 12 12 12 12 12 12 12 12 12 12 12 13 13 13 13 13 13 12 11 11 10 10 9 8 8 7 7 7 7 7 7 7 7 8 8 8 9 9 9 9
11 11 11 11 11 11 11 11 11 11 11 11 11 11 12 12 12 12 12 12 12 11 10 10 9 9 8 8 7 7 6 6 6 6 7 7 7 7 8 8 8 9 9 9
10 10 10 10 10 10 10 10 10 10 10 10 10 10 11 11 11 11 11 11 10 10 10 9 8 8 8 7 7 6 6 6 6 6 6 6 7 7 7 8 8 8 9 9
10 10 10 10 10 10 10 10 9 9 10 9 9 10 10 10 10 10 10 10 9 9 9 8 8 7 7 6 6 6 6 6 5 6 6 6 6 6 7 7 8 8 8 9

GEFSNGP_850_meantemp_054.txt.gz
Temperature
19 20 20 21 21 20 18 18 17 18 17 18 17 16 18 19 19 19 19 19 18 17 17 16 15 14 13 12 12 11 11 10 10 10 10 9 9 9 9 9 8 8 8 8
21 22 21 21 22 21 21 20 18 19 18 17 18 18 18 18 19 19 19 19 18 17 16 15 14 13 13 12 11 11 11 10 10 10 10 9 9 9 9 9 8 8 8 8
19 20 21 21 22 22 22 20 19 19 19 18 17 16 19 20 20 20 20 19 18 17 16 15 14 13 13 12 11 11 10 10 10 9 9 9 9 9 9 9 8 8 8 8
17 20 21 20 20 21 21 21 19 19 18 17 18 20 21 21 21 20 19 19 18 17 16 15 14 13 12 12 11 11 10 10 10 9 9 9 9 9 9 8 8 8 8 8
16 18 19 20 21 21 21 21 19 18 18 17 17 18 19 21 20 20 19 18 17 16 15 15 14 13 12 12 11 10 10 10 9 9 9 9 9 9 8 8 8 8 8 8
15 19 19 20 21 21 21 20 19 18 17 16 16 16 18 22 20 20 19 18 17 16 15 15 14 13 12 12 11 11 10 10 9 9 9 9 9 9 8 8 8 8 8 8
16 17 18 19 20 21 21 19 22 21 20 18 17 19 22 22 21 20 19 18 17 16 16 15 14 13 13 12 11 11 10 10 9 9 9 9 8 8 8 8 8 8 8 8
15 17 18 20 20 19 20 23 23 23 23 21 22 22 22 21 21 20 19 18 17 16 16 15 14 13 13 12 11 11 10 10 9 9 9 8 8 8 8 8 8 8 8 8
16 18 20 21 21 23 23 23 24 24 24 23 23 22 22 21 21 20 19 18 17 17 16 15 14 13 13 12 11 11 10 10 9 9 9 8 8 8 8 8 8 8 8 8
15 17 20 22 23 24 24 24 25 24 24 23 23 23 22 22 21 20 20 19 18 17 16 15 14 13 13 12 11 11 10 10 9 9 9 9 8 8 8 8 8 8 8 7
16 16 19 23 24 24 24 24 24 24 24 23 23 22 22 22 21 21 20 19 18 17 16 15 14 14 13 12 11 11 10 10 9 9 9 9 9 8 8 8 8 8 8 7
17 19 17 20 21 22 22 23 24 23 23 23 23 22 22 22 21 21 20 19 18 17 16 15 14 14 13 12 11 11 11 10 10 9 9 9 8 9 9 8 8 8 8 7
19 19 18 18 19 20 21 22 22 22 22 22 22 22 22 21 21 20 19 18 18 17 16 15 15 14 13 12 12 11 11 10 10 9 9 9 8 8 9 9 9 8 8 8
17 17 16 16 16 17 19 19 20 20 20 20 20 20 20 20 20 19 19 18 18 17 16 15 15 14 13 12 12 11 11 10 10 9 9 8 8 8 8 8 8 9 8 8
14 15 14 14 16 17 17 18 18 18 18 19 19 19 19 19 19 18 18 18 17 16 16 15 15 14 13 12 12 11 11 10 10 9 9 8 8 8 8 8 8 8 8 8
13 14 14 15 15 15 16 16 16 16 17 17 18 18 18 18 18 17 17 17 17 17 16 15 15 14 13 12 12 11 11 10 9 9 9 8 8 8 8 8 8 8 8 8
13 13 13 13 13 14 14 14 14 15 15 16 16 16 17 17 17 17 16 16 16 16 16 15 14 13 13 12 12 11 10 10 9 9 9 8 8 8 8 8 8 8 8 8
12 12 12 12 13 13 13 14 14 14 14 15 15 16 16 16 15 15 15 15 15 15 15 15 14 13 13 12 12 11 10 10 9 9 8 8 8 8 8 8 8 8 8 8
12 12 12 12 12 13 13 13 13 13 13 14 14 14 14 14 14 14 14 14 14 14 15 14 14 13 13 12 11 11 10 10 9 9 8 8 8 8 8 8 8 8 8 8
12 12 12 12 12 12 12 12 12 12 12 12 12 13 13 13 13 13 13 13 13 13 13 13 13 13 12 12 11 10 10 10 9 8 8 8 8 8 8 8 8 8 8 8
11 12 12 12 11 11 11 11 11 11 11 11 11 11 11 11 11 12 12 12 13 13 13 12 12 12 12 11 10 10 10 9 8 8 8 7 7 8 8 8 8 8 8 8
11 11 11 11 11 11 10 10 10 10 10 10 10 10 10 10 11 11 11 11 11 12 12 12 12 11 11 10 10 9 9 8 8 8 7 7 7 7 7 8 8 8 8 8
10 10 10 10 10 10 10 10 10 10 9 9 10 10 10 10 10 10 10 10 10 11 11 11 11 10 10 9 9 9 8 8 7 7 7 7 7 7 7 7 8 8 8 8
9 9 9 9 9 9 9 9 9 9 9 9 9 9 9 9 9 9 9 9 10 10 10 10 9 9 9 9 8 8 7 7 7 7 6 6 7 7 7 7 7 7 8 8
9 9 9 9 9 9 9 9 9 9 9 9 8 8 8 8 8 8 8 8 9 9 9 9 8 8 8 8 7 7 7 6 6 6 6 6 6 6 7 7 7 7 7 8
9 9 9 9 9 8 8 8 8 8 8 8 8 8 8 8 8 8 8 8 8 8 8 8 8 7 7 7 6 6 6 6 6 6 6 6 6 6 6 6 7 7 7 8
9 9 8 8 8 8 8 8 8 8 8 8 8 8 8 7 7 7 7 7 7 7 7 7 7 6 6 6 6 5 5 5 5 5 5 5 5 5 5 6 6 6 7 7

GEFSNGP_850_meantemp_060.txt.gz
Temperature
28 28 28 28 28 28 27 27 27 27 27 28 28 27 26 25 24 22 21 20 20 19 18 18 17 16 16 15 14 14 13 12 12 11 11 10 10 10 10 9 9 9 9 9
27 28 28 27 27 28 27 27 27 27 27 28 27 26 25 24 23 22 22 21 20 19 19 18 17 17 16 15 14 13 13 12 12 11 11 10 10 10 9 9 9 9 9 9
26 28 27 26 28 28 28 28 27 27 28 27 27 26 25 24 24 23 22 21 21 20 19 18 18 17 16 15 14 13 13 12 12 11 11 10 10 10 9 9 9 9 9 9
26 26 25 27 29 28 28 28 28 27 27 27 26 25 24 24 24 23 22 22 21 20 19 18 18 17 16 15 14 13 13 12 12 11 11 10 10 10 9 9 9 9 9 9
26 26 26 28 28 28 27 27 28 28 27 27 25 25 25 24 23 23 22 22 21 20 19 18 18 17 16 15 14 13 13 12 12 11 10 10 10 9 9 9 9 9 9 9
25 25 25 27 28 27 27 26 28 27 27 27 25 26 27 25 24 23 22 21 21 20 19 18 18 17 16 15 14 14 13 12 12 11 10 10 10 10 9 9 9 9 9 9
25 25 26 27 26 26 26 26 27 27 26 26 26 26 26 25 24 23 22 21 20 20 19 18 18 17 16 15 14 13 13 12 11 11 10 10 10 10 9 9 9 9 9 9
25 24 25 26 26 26 25 24 25 25 25 25 25 24 24 23 23 22 22 21 20 20 19 18 18 17 16 15 14 13 13 12 11 11 10 10 10 10 9 9 9 9 9 9
26 26 25 24 24 23 23 23 23 23 24 24 24 23 23 23 22 22 21 21 20 20 19 18 18 17 17 16 14 14 13 12 12 11 11 10 10 9 9 9 9 9 9 9
25 26 25 23 22 21 21 21 21 22 22 23 23 23 22 22 21 21 21 20 20 19 19 18 18 17 17 16 15 14 14 13 12 11 11 10 10 10 10 10 10 10 9 9
24 25 24 22 19 19 19 19 20 20 21 21 21 21 21 21 20 20 20 19 19 19 19 18 17 17 16 16 15 14 14 13 12 11 11 10 10 10 10 9 9 9 9 9
23 21 21 20 18 18 18 18 18 19 19 19 19 19 19 19 19 18 18 18 17 18 18 17 17 17 16 16 15 14 13 12 12 12 11 11 10 10 10 10 9 9 9 9
19 18 18 17 17 17 18 18 17 17 17 17 17 17 18 18 17 17 17 17 17 17 17 17 16 16 16 15 15 14 14 13 12 12 11 11 11 10 10 10 10 9 9 9
16 17 17 16 16 16 17 17 17 17 16 16 16 16 16 16 16 16 16 16 16 16 16 16 16 15 15 15 14 14 13 12 12 12 11 11 11 10 10 10 10 10 10 9
16 16 16 15 15 16 16 16 16 16 15 15 15 15 15 15 15 15 15 15 15 15 15 15 14 14 14 14 14 13 13 12 12 12 11 11 10 10 10 10 10 10 10 9
15 15 15 15 15 15 15 15 15 15 14 14 14 14 14 14 14 14 14 14 14 14 14 13 13 13 13 13 13 13 12 12 12 11 11 11 11 10 10 10 10 10 10 10
15 14 14 14 14 13 13 13 13 13 14 13 13 13 13 13 13 13 13 13 13 12 12 12 12 12 12 12 12 12 12 12 12 11 11 11 11 10 10 10 10 10 10 10
13 12 12 12 12 12 12 13 12 12 12 12 12 12 12 12 12 11 11 11 12 12 12 11 11 11 11 11 11 11 11 11 11 11 11 10 10 10 10 10 9 9 9 9
12 12 12 12 12 12 12 12 12 12 11 11 11 11 11 11 11 11 11 11 11 11 11 10 10 10 10 10 10 10 10 10 11 11 10 10 9 9 9 9 9 9 9 9
11 11 11 11 11 11 11 11 11 11 11 11 10 10 10 10 10 10 10 10 11 10 9 9 9 10 10 10 9 9 10 10 10 10 10 10 10 9 9 9 9 9 9 9
11 11 11 11 11 11 11 11 10 10 10 10 10 10 10 10 10 10 10 10 10 9 9 9 9 9 9 9 9 9 9 9 9 9 9 9 9 9 9 9 8 8 8 8
11 11 11 11 11 11 10 10 10 10 10 10 9 9 9 9 9 9 9 9 9 9 8 8 8 8 8 8 8 8 8 8 8 9 8 8 8 8 8 8 8 8 8 8
11 10 10 10 10 10 10 10 10 10 9 9 9 9 9 9 9 9 9 9 8 8 7 8 7 7 7 7 7 7 7 7 7 8 8 7 7 7 7 7 7 7 7 7
10 10 10 10 10 9 10 10 10 9 9 9 9 9 9 9 9 9 9 8 8 7 7 7 7 7 6 6 6 6 6 6 6 7 6 6 6 6 7 7 6 7 7 7
10 9 9 9 9 10 10 10 9 9 9 10 10 9 9 9 9 9 8 8 7 7 6 6 6 6 6 5 5 5 5 5 5 5 5 5 5 6 6 6 6 6 6 6
9 9 9 9 9 9 9 9 9 9 9 9 9 9 9 9 9 8 8 7 7 6 6 6 5 5 5 5 4 4 4 4 4 4 4 4 4 5 5 5 5 5 6 6
9 9 9 9 9 9 9 9 9 9 9 9 9 8 8 8 8 7 7 7 6 6 5 5 5 4 4 4 3 3 3 3 3 3 3 3 3 4 4 4 5 5 5 5

GEFSNGP_850_meantemp_066.txt.gz
Temperature
28 27 26 26 27 29 29 29 29 28 28 29 29 29 29 29 28 27 26 25 24 23 22 21 20 20 19 18 18 17 17 16 15 15 14 14 13 13 12 12 12 11 11 11
28 29 29 28 29 29 30 30 30 29 29 30 30 29 29 28 28 27 26 25 24 23 22 21 20 19 19 18 17 17 16 16 15 15 14 14 13 13 13 12 12 12 11 11
27 29 28 28 29 29 29 30 29 29 29 30 29 29 28 28 27 27 26 25 24 23 22 21 20 19 19 18 17 17 16 16 15 15 14 14 14 13 13 12 12 12 11 11
27 27 26 27 28 29 28 29 30 29 29 29 29 28 28 27 27 27 26 25 25 24 22 21 20 19 19 18 17 17 16 16 15 15 15 14 14 13 13 12 12 12 11 11
27 26 27 28 27 27 26 26 28 28 28 28 28 28 28 27 27 26 26 25 25 24 23 22 21 20 19 18 18 17 16 16 16 15 15 14 14 13 13 13 12 12 12 11
26 26 26 26 26 25 25 24 26 26 26 26 26 26 26 26 26 26 25 25 24 24 23 22 21 20 19 18 18 17 17 16 16 16 15 15 14 14 13 13 13 12 12 11
25 26 26 26 26 25 23 22 24 24 24 25 25 25 25 26 26 25 25 24 24 23 23 22 21 20 19 19 18 18 17 17 16 16 15 15 15 14 13 13 12 12 12 12
24 24 23 23 24 23 21 22 22 24 24 24 25 25 25 25 25 24 24 24 23 23 22 22 21 20 19 19 18 17 17 16 16 16 15 15 14 14 13 13 12 12 12 12
25 23 21 20 20 20 21 22 23 24 24 24 24 24 24 24 24 23 23 23 22 22 22 21 20 20 19 18 18 17 16 16 16 16 15 15 15 14 13 13 12 12 12 12
24 22 20 20 21 21 22 22 23 23 23 23 23 23 23 22 22 22 21 21 21 21 21 20 20 19 18 18 17 17 16 16 16 16 15 15 14 14 13 13 13 13 13 12
23 22 21 20 21 22 22 22 22 22 22 21 21 21 20 20 19 19 19 20 20 20 20 19 19 18 17 17 16 16 16 16 15 15 14 14 14 14 14 13 13 13 13 12
23 22 22 21 21 22 21 21 21 20 20 19 19 19 19 18 18 18 18 18 18 18 18 18 18 17 17 16 16 16 15 15 15 14 14 14 14 14 14 14 14 13 13 12
23 23 22 21 21 21 21 21 20 19 19 18 18 18 17 17 17 17 17 16 16 16 16 16 16 16 16 16 15 15 15 14 14 14 14 14 14 14 14 14 14 13 13 13
21 21 21 21 21 21 20 20 19 19 18 17 17 17 16 16 16 16 15 15 15 15 15 15 15 15 15 14 14 14 14 13 13 13 13 13 14 14 14 14 13 13 13 13
21 21 20 20 19 19 19 19 18 18 17 17 16 16 16 15 15 15 15 14 14 14 14 14 13 13 13 13 13 13 13 13 13 13 13 13 13 13 14 13 13 13 13 13
20 20 19 18 18 18 17 17 17 16 16 16 15 15 15 15 14 14 14 13 13 13 13 13 12 12 12 12 12 12 12 12 13 13 13 13 13 13 13 13 13 13 13 12
19 18 18 17 17 16 16 16 16 15 15 15 15 14 14 14 13 13 13 12 12 12 12 12 11 11 11 11 11 11 11 12 12 12 12 13 13 13 13 13 13 12 12 12
17 16 15 15 15 15 15 15 15 15 14 14 14 14 13 13 12 12 12 12 12 11 11 11 11 11 10 10 10 10 10 11 11 11 12 12 12 12 12 12 12 12 11 11
15 15 15 15 15 14 15 14 14 14 14 13 13 13 13 12 12 11 11 11 11 11 11 10 10 10 10 10 10 9 10 10 10 11 11 11 11 12 12 11 11 11 11 11
15 15 15 14 14 14 14 14 14 14 13 13 13 12 12 12 11 11 11 11 11 11 10 10 10 10 9 9 9 9 9 9 10 10 10 10 11 11 11 11 10 10 10 10
15 15 15 15 14 14 14 13 13 13 13 12 12 12 12 11 11 11 11 11 11 11 10 10 10 9 9 9 8 8 8 9 9 9 9 9 10 10 10 10 10 9 9 10
14 14 14 14 13 13 13 13 12 12 12 12 12 12 11 11 11 11 11 11 11 10 10 10 9 9 8 8 8 8 8 8 8 8 8 8 8 8 9 9 9 9 9 9
13 13 13 13 12 12 12 12 12 12 12 12 11 11 11 11 11 11 11 11 10 10 9 9 9 8 8 7 7 7 7 7 6 6 6 6 7 7 7 7 8 8 8 8
12 12 12 12 12 12 12 12 12 12 12 12 12 12 12 12 12 11 11 10 10 9 9 8 8 7 7 6 6 6 6 5 5 5 5 5 5 6 6 6 6 6 7 7
12 12 12 12 12 12 12 12 12 12 12 12 12 12 12 11 11 11 10 10 9 8 8 7 7 6 6 5 5 5 4 4 4 4 4 4 4 5 5 5 5 5 6 6
12 12 12 12 12 11 12 12 12 12 12 12 11 11 11 10 10 10 9 9 8 7 7 6 5 5 5 4 4 4 3 3 3 3 3 3 3 4 4 4 4 5 5 5
12 12 12 12 12 12 12 12 11 11 11 11 10 10 10 10 9 9 8 7 7 6 6 5 4 4 3 3 3 3 2 2 2 2 2 2 3 3 3 3 4 4 4 5

GEFSNGP_850_meantemp_072.txt.gz
Temperature
22 22 22 23 23 23 21 20 20 21 21 21 21 21 22 24 24 24 24 24 24 23 23 22 22 21 21 21 20 20 19 19 18 17 17 16 16 15 15 14 14 14 13 13
22 23 23 23 23 23 23 22 21 21 21 20 21 22 22 23 23 23 24 24 24 24 23 23 22 22 21 21 20 20 19 19 18 18 17 17 16 16 15 15 14 14 13 13
20 21 22 21 22 22 21 20 20 20 20 20 20 20 21 22 23 23 24 24 24 24 24 23 23 22 22 21 20 20 19 19 18 18 17 17 16 16 15 15 15 14 14 13
18 20 21 20 21 21 20 19 19 19 19 19 19 21 22 23 23 24 24 24 24 24 24 23 23 22 22 21 21 20 20 19 18 18 18 17 16 16 16 15 15 15 14 14
17 19 20 21 20 20 19 18 17 17 18 19 20 21 21 22 22 23 23 24 24 24 24 23 23 22 22 21 21 20 20 19 19 18 18 17 17 16 16 16 15 15 14 14
17 19 19 19 20 20 19 17 17 17 17 18 19 17 18 21 22 22 23 23 24 24 23 23 23 22 22 21 21 20 20 20 19 18 18 17 17 17 16 16 15 15 15 14
17 17 18 18 19 19 19 18 17 17 18 18 17 17 18 20 21 22 22 23 23 23 23 22 22 22 21 21 21 21 20 19 19 18 18 17 17 16 16 16 15 15 15 14
15 16 17 17 18 17 17 17 18 18 19 18 18 18 18 19 19 20 21 21 22 22 22 22 21 21 21 21 21 20 19 19 18 18 17 17 16 16 16 15 15 15 14 14
15 16 16 17 17 18 18 18 18 18 19 18 17 17 17 18 18 19 19 20 20 20 20 20 20 20 20 20 19 19 18 18 17 17 17 16 16 15 15 15 14 14 14 14
14 15 15 17 18 18 18 18 19 19 18 18 17 17 17 17 17 17 18 18 18 19 18 18 18 18 18 18 18 17 17 17 16 16 16 15 15 15 15 14 14 14 14 14
14 15 15 16 18 18 18 18 18 18 17 17 17 16 16 16 16 16 16 17 17 17 17 17 17 17 17 16 16 16 16 15 15 15 15 14 14 14 14 14 14 13 13 13
15 15 14 17 18 18 18 17 17 17 17 17 16 16 16 15 15 15 15 15 15 15 15 15 15 15 15 15 14 14 14 14 14 13 13 13 13 13 13 13 13 13 13 13
19 18 17 18 18 17 17 17 17 17 16 16 16 15 15 15 15 15 14 14 14 14 14 13 13 13 13 13 13 13 13 13 12 12 12 12 12 12 12 12 13 13 13 13
19 18 17 17 17 17 16 16 16 16 16 15 15 15 15 14 14 14 13 13 13 13 13 13 12 12 12 12 12 12 12 12 12 11 11 11 11 11 11 11 11 12 12 12
18 18 17 16 16 16 16 16 16 15 15 15 15 14 14 14 13 13 13 12 12 12 12 12 12 11 11 11 11 11 11 11 11 11 10 10 10 10 10 10 10 11 11 11
16 16 16 16 16 15 15 15 15 15 14 14 14 14 13 13 13 12 12 12 11 11 11 11 11 11 11 11 11 10 10 10 10 10 10 10 10 10 10 10 10 10 10 11
15 15 15 15 15 15 15 15 14 14 14 14 13 13 13 12 12 12 11 11 11 11 11 11 11 10 10 10 10 10 10 9 9 9 9 9 9 9 9 9 9 9 9 10
15 15 15 15 15 14 14 14 14 14 13 13 13 13 12 12 12 11 11 11 11 11 11 10 10 10 10 10 10 9 9 9 9 8 8 8 8 8 8 8 8 8 8 9
14 14 14 14 14 14 14 13 13 13 13 13 12 12 12 12 11 11 11 11 11 11 11 10 10 10 10 10 9 9 9 8 8 8 7 7 7 7 7 7 7 7 8 8
14 14 14 14 13 13 13 13 13 12 12 12 12 12 12 11 11 11 11 11 11 11 10 10 10 10 9 9 9 8 8 8 7 7 7 6 6 7 7 6 7 7 7 7
13 13 13 13 13 13 12 12 12 12 12 12 12 11 11 11 11 11 11 11 10 10 10 10 9 9 9 8 8 8 7 7 6 6 6 5 5 6 6 6 6 6 6 6
13 13 13 12 12 12 12 12 12 12 12 12 12 11 11 11 11 11 11 10 10 10 9 9 9 8 8 7 7 7 6 5 5 5 5 5 5 5 5 5 5 5 5 5
12 12 12 12 12 12 12 12 12 12 12 11 11 11 11 11 11 10 10 10 9 9 9 8 8 7 7 6 6 5 5 4 4 4 4 4 4 4 4 4 4 4 4 5
12 12 12 12 12 12 12 11 11 11 11 11 11 11 11 10 10 10 9 9 9 8 8 7 7 6 6 5 5 4 4 3 3 3 3 3 3 3 3 3 3 4 4 4
12 12 12 12 12 11 11 11 11 11 11 10 10 10 10 10 9 9 9 8 8 7 7 6 6 5 4 4 3 3 3 2 2 2 2 2 2 2 2 2 3 3 3 4
11 11 11 11 11 11 11 11 10 10 10 10 10 9 9 9 8 8 8 7 7 6 5 5 4 4 3 3 2 2 2 1 1 1 1 1 2 2 2 2 2 3 3 3
11 11 11 11 10 10 10 10 10 9 9 9 9 8 8 8 7 7 7 6 6 5 4 3 3 3 2 2 1 1 1 1 1 1 1 1 1 1 1 2 2 2 2 3

GEFSNGP_850_meantemp_078.txt.gz
Temperature
19 20 20 21 21 19 18 17 17 18 18 18 18 17 19 20 21 21 22 23 23 23 23 23 23 22 22 21 21 20 20 19 19 18 18 17 17 17 16 16 16 15 15 15
21 21 20 20 21 20 19 19 18 18 18 18 17 18 18 19 19 20 21 22 23 23 23 23 23 23 22 22 21 21 20 20 19 19 18 18 17 17 17 16 16 16 15 15
19 19 21 20 20 20 19 19 18 18 18 17 16 16 17 17 18 19 20 21 22 22 23 22 23 22 22 21 21 21 20 20 19 19 18 18 18 17 17 17 16 16 16 15
17 19 20 19 19 19 18 18 17 16 16 16 16 16 16 17 18 19 19 20 21 22 22 22 22 22 22 21 21 20 20 20 19 19 19 18 18 17 17 17 16 16 16 15
15 18 18 19 18 18 18 18 17 16 16 16 17 17 16 16 17 18 19 19 20 21 21 21 22 21 21 21 20 20 20 19 19 19 18 18 18 17 17 17 16 16 16 15
15 18 18 19 18 18 18 18 17 16 15 16 16 16 15 16 17 18 19 19 20 20 20 21 20 20 20 20 20 19 19 19 19 18 18 18 17 17 17 16 16 16 15 15
15 16 17 18 17 18 18 18 17 16 16 16 14 14 15 16 17 17 18 18 19 19 19 19 19 19 19 19 19 19 18 18 18 17 17 17 17 16 16 16 15 15 15 15
14 16 17 17 17 17 16 16 16 16 16 16 15 15 15 16 16 17 17 18 18 18 18 18 18 18 18 17 17 17 17 17 17 17 16 16 16 15 15 15 15 15 14 14
14 16 16 16 16 17 17 16 16 16 16 16 15 15 15 15 16 16 16 16 17 17 16 16 16 16 16 16 16 16 16 16 16 15 15 15 15 14 14 14 14 14 13 13
13 14 15 16 16 16 17 17 17 16 16 16 15 15 15 15 15 15 15 15 15 15 15 15 14 15 15 14 14 15 14 14 14 14 14 13 13 13 13 13 13 12 12 12
14 14 15 16 16 16 17 17 16 16 16 16 15 15 15 14 14 14 14 14 14 14 14 13 13 13 13 13 13 13 13 13 13 13 12 12 12 12 12 12 11 11 11 11
15 15 14 15 16 16 16 16 16 16 15 15 15 15 14 14 14 14 13 13 13 13 13 12 12 12 12 12 12 12 12 12 12 11 11 11 11 11 11 11 11 10 10 10
16 16 16 16 16 16 16 16 15 15 15 15 14 14 14 14 13 13 13 13 12 12 12 12 11 11 11 11 11 11 11 11 11 11 10 10 10 10 10 10 10 10 10 10
15 15 15 15 15 15 15 15 15 15 14 14 14 14 13 13 13 12 12 12 11 11 11 11 11 11 11 10 10 10 10 10 10 10 10 9 9 9 9 9 9 9 9 10
15 15 15 14 14 14 14 14 14 14 14 13 13 13 13 13 12 12 11 11 11 11 11 10 10 10 10 10 10 10 10 10 9 9 9 9 9 8 8 8 8 8 8 9
14 14 14 14 13 13 13 14 14 13 13 13 13 13 12 12 12 11 11 11 11 11 10 10 10 10 10 10 10 10 9 9 9 9 9 8 8 8 7 7 7 7 7 7
13 12 13 13 13 13 13 13 13 13 13 12 12 12 12 12 11 11 11 11 11 11 10 10 10 10 10 10 9 9 9 9 8 8 8 8 7 7 7 6 6 6 6 6
13 13 13 12 12 12 12 12 12 12 12 12 12 12 11 11 11 11 11 11 11 11 10 10 10 10 10 9 9 9 8 8 8 7 7 7 6 6 6 5 5 5 5 5
12 12 12 12 12 12 12 12 12 12 12 12 11 11 11 11 11 11 11 11 10 10 10 10 10 9 9 9 8 8 7 7 7 6 6 6 5 5 5 4 4 4 4 4
12 12 12 12 12 12 12 12 11 12 11 11 11 11 11 11 11 11 10 10 10 10 10 9 9 9 8 8 7 7 7 6 6 5 5 4 4 4 4 4 4 4 4 4
11 11 11 11 11 11 11 11 11 11 11 11 11 11 11 11 11 10 10 10 10 9 9 9 8 8 7 7 6 6 5 5 4 4 4 3 3 3 3 3 3 3 3 3
11 11 11 11 11 11 11 11 11 11 11 11 11 11 11 10 10 10 10 9 9 9 8 8 7 7 6 6 5 5 4 4 3 3 3 2 2 2 2 2 2 2 2 2
11 11 11 11 11 11 11 11 11 11 11 11 11 10 10 10 10 9 9 9 8 8 7 7 6 6 5 5 4 4 3 3 2 2 2 1 1 1 1 1 1 2 2 2
11 11 11 11 11 11 11 11 11 10 10 10 10 10 9 9 9 9 8 8 7 7 6 6 5 5 4 3 3 3 2 2 1 1 1 1 1 1 1 1 1 1 1 1
10 10 10 10 10 10 10 10 10 10 10 9 9 9 9 8 8 8 7 7 6 6 5 5 4 3 3 2 2 2 1 1 1 0 0 0 0 0 0 0 0 0 1 1
10 10 10 10 10 10 9 9 9 9 9 9 8 8 8 7 7 7 6 6 5 5 4 3 3 2 2 1 1 1 0 0 0 -0 -0 -0 -0 -0 -0 -0 0 0 0 0
9 9 9 9 9 9 9 8 8 8 8 8 7 7 7 6 6 6 5 5 4 4 3 2 2 1 1 1 0 0 -0 -0 -1 -1 -1 -1 -1 -1 -0 -0 -0 -0 0 0

GEFSNGP_850_meantemp_084.txt.gz
Temperature
28 28 28 28 28 27 27 27 27 27 27 27 26 25 25 24 24 24 23 23 22 22 22 21 21 20 20 20 20 20 20 20 19 19 19 18 18 17 17 17 16 16 16 15
26 27 27 27 27 27 27 27 27 27 27 26 24 24 23 23 23 23 22 22 22 21 21 21 20 20 20 20 20 20 20 20 19 19 19 19 18 18 17 17 17 16 16 16
26 27 26 26 27 27 27 27 27 26 26 25 24 22 21 21 21 21 21 20 20 20 20 20 20 20 20 19 19 19 19 19 19 19 19 19 18 18 17 17 17 17 16 16
26 25 24 27 27 27 26 26 26 25 25 24 22 20 19 19 19 19 19 19 19 19 19 19 19 19 19 19 18 18 18 18 18 19 18 18 18 17 17 17 17 16 16 16
25 25 25 26 26 26 25 25 25 24 24 22 21 21 19 17 17 17 17 17 17 18 18 18 18 18 18 18 17 17 17 17 17 17 17 17 17 17 17 17 16 16 16 16
24 24 24 25 25 24 25 24 24 24 23 22 22 23 20 17 16 16 16 16 16 16 17 17 17 17 17 17 17 16 16 16 16 16 16 16 16 16 16 16 16 16 15 15
24 24 25 25 24 24 24 23 23 22 22 22 21 20 17 16 15 15 15 15 15 16 16 16 16 16 16 16 16 15 15 15 15 15 15 15 15 15 15 15 15 15 14 14
24 23 24 24 24 24 23 21 21 21 20 19 18 16 16 15 14 14 14 14 15 15 15 15 15 15 15 15 14 14 15 15 15 15 14 14 15 15 14 14 14 13 13 13
24 24 22 22 22 21 21 21 20 20 19 17 17 16 15 14 14 14 14 14 14 14 14 14 14 14 14 13 13 13 13 13 13 13 13 13 13 13 13 13 13 13 13 13
23 23 22 21 20 20 20 20 19 18 17 17 16 15 15 14 14 13 13 13 13 13 13 12 13 13 12 12 12 12 12 12 12 12 12 12 12 12 12 12 12 12 12 12
22 23 22 21 20 19 19 18 18 17 17 16 16 15 14 14 13 13 13 13 12 12 12 11 11 11 11 11 11 11 11 11 11 12 11 11 11 11 11 11 10 10 10 10
22 21 21 20 18 18 17 17 17 16 16 15 15 14 14 13 13 13 12 12 12 12 11 11 11 11 11 11 11 11 11 11 11 11 11 11 11 11 11 10 10 10 10 10
18 18 18 17 17 17 16 16 15 15 15 14 14 14 13 13 13 12 12 12 11 11 11 11 11 10 10 10 10 10 10 10 11 11 11 10 10 10 10 10 10 9 9 9
16 16 17 16 16 16 15 15 14 14 13 13 13 13 12 12 12 12 12 11 11 11 11 11 10 10 10 10 10 10 10 10 10 10 10 10 10 10 10 10 9 9 9 8
15 16 15 14 14 14 14 14 13 13 13 12 12 12 12 12 12 11 11 11 11 11 11 10 10 10 10 10 9 9 9 9 9 9 9 9 9 9 9 9 9 9 8 8
14 14 14 13 13 13 13 13 12 12 12 12 11 11 11 11 11 11 11 11 11 11 10 10 10 9 9 9 9 9 9 9 8 8 9 9 9 9 8 8 8 8 7 7
14 14 13 13 12 12 12 12 11 11 11 11 11 11 11 11 11 11 11 11 10 10 10 10 9 9 9 8 8 9 9 9 8 8 8 8 7 7 7 7 6 6 6 6
13 12 12 12 12 11 11 11 11 11 11 11 11 11 11 11 11 11 11 10 10 10 10 9 9 8 8 8 8 8 8 8 7 7 7 7 6 6 6 5 5 5 5 5
12 12 11 11 11 11 11 11 11 11 11 11 11 11 11 11 11 10 10 10 10 10 9 9 9 8 7 7 7 7 7 7 6 6 6 5 5 5 4 4 4 4 4 4
11 11 11 11 11 11 11 11 11 11 10 10 11 11 10 10 10 10 10 10 10 9 8 8 7 7 7 6 6 6 6 5 5 5 4 4 4 3 3 3 3 2 2 2
11 11 11 11 11 11 11 11 11 11 11 10 10 10 10 10 10 10 10 10 9 8 8 7 7 6 6 6 5 5 5 4 4 3 3 3 2 2 2 2 2 2 2 2
11 11 11 11 11 11 11 11 11 11 10 10 10 10 10 10 10 9 9 8 8 8 7 6 6 6 6 5 4 4 3 3 2 2 2 1 1 1 1 1 1 1 1 1
11 11 11 11 11 11 10 10 10 10 10 10 10 9 9 9 9 9 8 7 7 7 6 6 6 5 5 4 3 3 2 2 2 1 1 1 0 0 0 0 0 0 1 1
10 10 10 10 10 10 10 10 10 10 9 9 9 9 9 9 9 8 7 7 6 6 5 5 5 4 3 2 2 2 1 1 1 1 0 0 0 -0 -0 -0 -0 -0 -0 -0
10 10 10 10 10 10 10 10 9 9 9 9 9 8 8 8 7 7 6 6 5 5 4 4 3 3 2 2 1 1 1 0 0 -0 -0 -0 -0 -0 -0 -0 -0 -0 -0 -0
9 10 9 9 9 9 10 9 9 9 9 9 8 8 7 7 6 6 5 5 4 4 3 3 2 2 1 1 1 0 0 -0 -0 -0 -1 -1 -1 -1 -1 -1 -1 -1 -1 -1
9 9 9 9 9 9 9 9 8 8 8 8 7 7 7 6 6 5 5 4 4 3 2 2 1 1 1 0 0 -0 -0 -0 -1 -1 -1 -1 -1 -1 -1 -1 -1 -1 -1 -1

GEFSNGP_850_meantemp_090.txt.gz
Temperature
29 28 27 26 26 26 26 27 27 27 26 25 24 25 25 26 26 26 25 25 24 24 23 23 23 22 22 21 21 20 20 19 19 19 18 18 18 17 17 17 17 17 17 17
28 29 28 27 27 27 28 28 28 28 26 26 25 25 25 25 25 25 24 24 23 23 22 22 22 22 22 21 21 21 20 20 19 19 18 18 18 17 17 17 17 17 17 17
27 28 28 27 28 28 29 29 29 27 26 26 25 24 24 24 24 23 23 22 22 21 21 21 21 21 21 21 21 21 20 20 19 19 18 18 17 17 17 17 17 16 16 16
27 27 25 27 28 28 28 28 28 27 26 26 24 23 23 23 22 22 21 21 20 20 20 20 20 20 20 20 20 20 19 19 19 18 18 17 17 17 17 16 16 16 16 16
26 25 25 26 26 26 26 26 27 26 25 24 23 22 21 21 20 20 19 19 19 19 18 19 19 19 19 19 19 18 18 18 18 17 17 17 17 16 16 16 16 16 16 15
25 25 24 24 24 24 25 24 25 25 25 24 23 22 20 19 19 18 18 17 17 17 17 17 17 18 18 17 17 17 17 16 16 16 16 16 16 16 15 15 15 15 15 15
25 25 24 24 24 25 23 22 24 24 23 23 22 21 19 18 17 17 16 16 16 16 16 16 16 16 16 16 16 15 15 15 15 15 15 15 15 14 15 15 15 14 14 14
24 24 22 23 23 23 22 23 23 23 22 21 20 19 18 17 17 16 16 15 15 15 14 15 15 15 15 14 14 14 14 14 14 14 14 14 14 14 14 14 14 14 14 14
21 21 21 22 22 22 23 23 23 22 21 20 19 18 17 17 16 15 15 14 14 14 13 13 13 14 13 13 13 13 13 13 13 13 13 13 13 13 13 13 13 13 13 13
20 20 20 21 22 22 22 22 22 21 20 19 19 18 17 16 15 15 15 14 14 13 13 12 12 12 12 12 12 12 12 12 12 13 13 12 12 12 12 12 12 12 12 12
21 21 21 21 21 21 21 21 21 20 20 19 18 17 16 15 15 14 14 14 13 13 12 12 12 12 12 12 12 12 12 12 12 12 12 12 12 12 12 12 12 11 11 11
20 20 21 20 20 20 20 20 20 19 18 17 17 16 15 15 14 14 13 13 13 12 12 12 12 11 11 11 11 11 11 12 12 12 12 12 12 12 12 12 12 11 11 11
21 20 20 20 20 20 19 18 18 17 16 16 15 15 14 14 13 13 13 13 12 12 12 12 11 11 11 11 11 11 11 11 11 11 11 12 12 12 12 12 11 11 11 10
20 20 19 19 18 18 18 17 16 16 15 15 14 14 14 13 13 13 12 12 12 12 12 12 11 11 11 10 10 10 11 11 11 11 11 11 11 11 11 11 11 11 10 10
19 18 18 17 17 16 16 15 15 14 14 14 13 13 13 13 12 12 12 12 12 12 12 11 11 10 10 10 10 10 10 10 10 10 10 11 11 10 10 10 10 9 9 8
17 17 16 16 15 15 15 14 14 13 13 13 13 12 12 12 12 12 12 12 11 11 11 11 10 10 10 10 10 10 10 10 10 10 10 10 10 9 9 9 8 8 7 7
16 16 15 15 14 14 13 13 13 13 12 12 12 12 12 12 11 11 11 11 11 11 11 10 10 10 9 9 9 9 9 10 10 10 9 9 8 8 8 7 7 6 6 5
15 15 14 14 13 13 12 12 12 12 12 12 12 12 11 11 11 11 11 11 11 11 10 10 10 9 9 9 9 9 9 9 9 9 8 7 7 7 6 6 5 5 5 4
14 14 13 13 13 12 12 12 12 12 12 12 12 12 11 11 11 11 11 11 11 10 10 9 9 9 8 8 8 8 8 8 8 7 7 6 6 5 5 4 4 4 3 3
13 13 13 13 13 13 13 12 12 12 12 12 12 11 11 11 11 11 11 10 10 9 9 9 8 8 8 8 8 8 7 7 7 6 5 5 4 4 4 3 3 2 2 2
13 13 13 13 13 13 13 13 12 12 12 12 11 11 11 11 11 11 10 10 9 9 9 8 8 8 7 7 7 7 7 6 5 5 4 4 3 3 3 2 2 2 2 2
13 13 13 13 13 13 13 12 12 12 12 12 11 11 11 11 11 10 10 9 9 8 8 8 7 7 7 6 6 6 5 4 4 4 3 3 3 2 2 2 1 1 1 1
12 12 12 12 12 12 12 12 12 12 11 11 11 11 11 10 10 10 9 9 8 8 7 7 7 6 6 5 5 4 4 3 3 3 2 2 2 2 1 1 1 1 1 1
12 12 12 12 12 12 12 12 11 11 11 11 11 10 10 10 9 9 8 8 8 7 6 6 6 5 5 4 4 4 3 3 2 2 2 2 1 1 1 1 1 1 1 0
11 11 11 11 12 12 11 11 11 11 11 10 10 10 9 9 9 8 7 7 7 6 5 5 5 4 4 4 3 3 2 2 2 1 1 1 1 1 1 1 1 1 0 0
11 11 11 11 11 11 11 11 11 10 10 10 9 9 9 8 8 7 7 6 6 5 5 4 4 4 3 3 3 2 2 2 2 1 1 1 1 1 1 0 0 0 0 -0
11 11 11 11 11 10 10 10 10 10 9 9 9 8 8 8 7 7 6 6 5 5 4 4 4 4 3 3 3 2 2 2 1 1 1 1 0 0 0 0 0 -0 -0 -1

GEFSNGP_850_meantemp_096.txt.gz
Temperature
21 22 22 22 22 22 20 19 19 20 19 19 19 19 19 20 20 20 20 20 20 20 20 20 20 19 19 19 19 19 18 18 18 18 18 18 18 18 17 17 17 17 17 16
21 22 22 22 23 22 22 21 20 20 19 19 19 19 19 19 19 19 19 19 19 19 20 19 19 19 19 19 19 18 18 18 18 18 17 17 17 17 17 17 16 16 16 16
19 20 21 21 21 22 21 21 20 20 19 18 18 18 18 18 18 18 18 18 18 18 18 19 19 19 18 18 18 18 18 17 17 17 17 17 17 16 16 16 16 16 16 15
17 19 20 20 20 21 21 20 19 19 18 18 17 17 18 18 18 17 17 17 17 17 17 18 18 18 18 17 17 17 17 17 17 17 17 17 16 16 16 16 16 15 15 15
16 17 19 20 20 20 19 19 19 18 18 17 17 16 15 16 17 16 16 16 16 16 16 17 17 17 17 16 16 16 16 16 16 16 16 16 16 16 15 15 15 15 15 14
16 17 18 19 19 20 19 17 18 18 17 17 17 15 14 15 15 15 15 15 15 15 16 16 15 16 16 16 15 15 15 15 15 15 15 15 15 15 14 14 14 14 14 14
16 16 17 18 18 19 18 17 18 18 17 17 16 15 14 14 15 15 15 15 15 15 15 15 15 15 15 15 14 14 14 14 14 14 14 14 14 13 13 13 13 13 13 13
15 16 16 17 17 17 17 17 17 17 17 16 15 14 14 14 14 14 14 14 14 14 14 13 14 14 14 13 13 13 13 13 13 13 13 13 13 13 13 13 12 12 12 12
14 15 15 15 16 17 17 17 17 17 16 16 15 14 14 14 13 13 13 13 13 13 13 13 13 13 13 12 12 13 13 13 12 12 12 12 12 12 12 12 12 11 11 11
14 14 14 15 16 17 17 17 17 17 16 16 14 14 13 13 13 13 13 13 13 13 12 12 12 12 12 12 12 12 12 12 12 12 12 12 12 12 11 11 11 11 11 10
14 14 14 15 15 16 16 16 16 16 15 15 14 14 13 13 13 13 12 12 12 12 12 11 11 11 11 11 11 12 11 11 11 11 11 11 11 11 11 11 10 10 10 10
14 14 14 14 15 16 16 15 15 15 14 14 14 14 13 13 13 12 12 12 12 12 11 11 11 11 11 11 11 11 11 11 11 11 11 11 11 10 10 10 10 10 9 9
15 15 15 15 15 15 15 15 14 15 14 14 14 13 13 12 12 12 12 12 12 11 11 11 11 11 11 11 11 11 10 10 10 10 10 10 10 10 10 9 9 9 9 8
15 15 14 14 14 14 14 14 14 14 13 13 13 13 13 12 12 12 12 12 11 11 11 11 11 11 10 10 10 10 10 10 10 10 10 9 9 9 9 9 8 8 8 7
15 15 14 14 14 14 14 14 13 13 13 13 13 13 12 12 12 12 12 11 11 11 11 11 11 10 10 10 10 10 10 9 9 9 9 9 9 8 8 8 7 7 6 6
14 14 14 13 13 13 13 13 13 12 12 12 12 12 12 12 12 11 11 11 11 11 11 10 10 10 10 10 9 9 9 9 9 8 8 8 8 7 7 6 6 6 5 5
13 13 13 13 13 12 12 12 12 12 12 12 12 12 12 12 11 11 11 11 11 10 10 10 10 10 9 9 9 9 9 8 8 8 7 7 7 6 6 5 5 4 4 3
14 13 13 13 12 12 12 12 12 12 12 12 12 11 11 11 11 11 11 11 10 10 10 10 9 9 9 9 8 8 8 7 7 7 6 6 5 5 4 4 4 3 3 3
13 13 13 13 13 12 12 12 12 12 12 12 12 11 11 11 11 11 11 10 10 10 9 9 9 9 8 8 8 7 7 7 6 6 5 5 4 4 4 3 3 2 2 2
13 13 13 12 12 12 12 12 12 12 12 11 11 11 11 11 11 10 10 10 10 9 9 8 8 8 8 7 7 7 6 6 5 5 4 4 3 3 3 2 2 2 1 1
12 12 12 12 12 12 12 12 12 11 11 11 11 11 11 10 10 10 10 10 9 9 8 8 8 7 7 7 6 6 5 5 4 4 3 3 3 2 2 2 1 1 1 1
12 12 12 12 12 12 12 12 12 11 11 11 11 11 10 10 10 10 9 9 9 8 8 7 7 7 6 6 5 5 4 4 4 3 3 2 2 2 2 1 1 1 1 0
12 12 12 12 12 11 11 11 11 11 11 11 11 10 10 10 10 9 9 8 8 7 7 7 6 6 5 5 5 4 4 3 3 3 2 2 2 1 1 1 1 0 0 0
11 11 11 11 11 11 11 11 11 11 10 10 10 10 10 9 9 8 8 8 7 7 6 6 5 5 5 4 4 3 3 3 2 2 2 1 1 1 1 1 0 0 -0 -0
11 11 11 11 11 11 10 10 10 10 10 10 9 9 9 9 8 8 7 7 7 6 6 5 5 4 4 4 3 3 3 2 2 2 1 1 1 1 0 0 0 -0 -0 -0
11 11 10 10 10 10 10 10 10 9 9 9 9 8 8 8 8 7 7 6 6 5 5 5 4 4 4 3 3 3 2 2 1 1 1 1 0 0 0 0 -0 -0 -0 -1
10 10 10 10 10 9 9 9 9 9 8 8 8 8 7 7 7 6 6 6 5 5 4 4 4 3 3 3 2 2 2 1 1 1 1 0 0 0 -0 -0 -0 -1 -1 -1

GEFSNGP_850_meantemp_102.txt.gz
Temperature
18 19 19 20 19 18 18 17 18 18 18 19 18 17 18 18 18 18 18 19 19 19 19 19 19 19 19 18 18 18 18 17 17 17 17 17 17 17 17 17 16 16 16 16
18 19 19 20 20 19 19 18 18 19 18 18 17 17 17 17 17 17 18 18 18 18 19 19 19 19 18 18 18 18 17 17 17 17 17 17 17 17 17 16 16 16 16 16
16 18 19 19 19 19 19 19 18 18 18 17 16 16 15 16 16 17 17 17 18 18 18 18 18 18 18 18 18 17 17 17 17 17 16 16 16 16 16 16 16 16 16 15
15 17 17 18 19 19 19 18 18 18 17 16 15 15 15 15 16 16 16 17 17 17 17 17 17 17 17 17 17 16 16 16 16 16 16 16 16 16 16 16 15 15 15 15
14 15 17 18 18 18 18 18 17 17 16 15 14 14 14 14 15 15 15 16 16 16 16 16 16 16 16 16 16 16 16 15 15 15 15 15 15 15 15 15 15 14 14 14
14 15 16 17 17 17 17 17 17 16 15 15 15 15 14 13 14 14 14 14 15 15 15 15 15 15 15 15 15 15 15 14 14 14 15 14 14 14 14 14 14 13 13 13
14 15 15 16 16 17 17 17 16 16 15 15 14 14 13 13 13 14 14 14 14 14 14 14 14 14 15 14 14 14 14 14 14 14 14 13 13 13 13 13 13 13 12 12
13 14 15 15 15 16 15 15 15 15 15 14 13 13 13 12 12 13 13 13 13 13 13 13 13 14 14 13 13 13 13 13 13 13 13 13 13 12 12 12 12 12 11 11
13 13 14 14 14 15 15 14 14 14 14 14 13 12 12 12 12 12 12 12 12 13 12 12 12 13 13 12 12 12 12 12 12 12 12 12 12 12 12 11 11 11 11 10
12 13 13 14 14 14 15 15 15 14 14 14 13 12 12 12 12 12 12 12 12 12 12 12 12 12 12 12 12 12 12 12 12 12 11 11 11 11 11 11 10 10 10 10
12 13 13 13 13 14 14 14 14 13 13 14 13 12 12 11 11 11 11 12 12 12 11 11 11 11 11 11 11 11 11 11 11 11 11 11 10 10 10 10 9 9 9 9
13 12 12 12 13 13 14 13 13 13 12 12 13 12 12 11 11 11 11 11 11 11 11 11 11 11 11 11 11 11 11 10 10 10 10 10 10 9 9 9 8 8 8 8
13 13 12 12 12 13 13 13 13 13 12 12 12 12 12 11 11 11 11 11 11 11 11 11 11 10 10 10 10 10 10 10 10 10 9 9 9 9 8 8 7 7 7 7
13 13 12 12 12 12 12 12 12 12 12 12 12 12 11 11 11 11 11 11 11 10 10 10 10 10 10 10 10 10 10 9 9 9 9 8 8 8 7 7 7 6 6 5
13 13 12 12 12 12 12 12 11 11 11 11 11 11 11 11 11 11 11 10 10 10 10 10 10 10 9 9 9 9 9 9 8 8 8 7 7 7 6 6 6 5 5 4
12 12 12 12 12 11 12 12 11 11 11 11 11 11 11 11 11 10 10 10 10 10 10 10 9 9 9 9 9 9 8 8 8 7 7 7 6 6 5 5 4 4 4 3
12 11 11 11 11 11 11 11 11 11 11 11 11 11 11 11 10 10 10 10 10 10 9 9 9 9 8 8 8 8 8 7 7 6 6 6 5 5 4 4 3 3 3 2
13 12 12 12 12 11 11 11 11 11 11 11 11 11 11 11 10 10 10 10 10 9 9 9 8 8 8 8 7 7 7 6 6 6 5 5 4 4 3 3 2 2 2 2
12 12 12 12 12 12 12 11 11 11 11 11 11 11 11 10 10 10 10 10 9 9 9 8 8 8 7 7 7 6 6 6 5 5 4 4 3 3 3 2 2 2 1 1
12 12 12 11 12 12 11 11 11 11 11 11 11 11 10 10 10 10 9 9 9 9 8 8 7 7 7 6 6 6 5 5 4 4 4 3 3 2 2 2 2 1 1 1
11 11 11 11 11 11 11 11 11 11 11 11 10 10 10 10 10 9 9 9 9 8 8 7 7 7 6 6 5 5 5 4 4 3 3 3 2 2 2 1 1 1 0 0
11 11 11 11 11 11 11 11 11 11 10 10 10 10 10 9 9 9 9 8 8 8 7 7 7 6 6 5 5 4 4 4 3 3 2 2 2 2 1 1 1 0 0 -0
11 11 11 11 11 11 11 10 10 10 10 10 10 10 9 9 9 9 8 8 8 7 7 6 6 6 5 5 4 4 4 3 3 2 2 2 1 1 1 1 0 0 -0 -0
11 11 11 11 11 11 10 10 10 10 10 9 9 9 9 9 8 8 8 7 7 7 6 6 5 5 5 4 4 3 3 3 2 2 1 1 1 1 0 0 -0 -0 -0 -1
10 10 10 10 10 10 10 10 9 9 9 9 9 8 8 8 8 7 7 7 6 6 6 5 5 4 4 4 3 3 2 2 2 1 1 1 1 0 0 -0 -0 -1 -1 -1
10 10 10 10 10 10 9 9 9 9 9 8 8 8 8 7 7 7 6 6 6 5 5 5 4 4 3 3 3 2 2 2 1 1 1 1 0 0 -0 -0 -1 -1 -1 -1
10 10 9 9 9 9 9 9 8 8 8 8 8 7 7 7 6 6 6 5 5 5 4 4 4 3 3 3 2 2 2 1 1 1 1 0 0 -0 -0 -1 -1 -1 -1 -1

GEFSNGP_850_meantemp_108.txt.gz
Temperature
27 27 27 27 27 27 27 28 28 28 29 29 27 26 24 23 22 21 21 20 19 19 18 18 18 17 17 17 17 17 17 17 17 17 17 17 16 16 16 16 16 16 16 16
25 26 27 26 27 27 27 27 28 28 28 28 26 24 23 22 21 21 20 19 19 18 18 17 17 17 17 17 17 16 16 16 16 16 16 16 16 16 16 16 16 15 15 15
25 26 25 25 26 27 27 27 27 27 28 27 25 24 22 21 21 20 19 18 18 17 17 17 17 17 17 16 16 16 16 16 16 16 16 16 16 15 16 16 15 15 15 15
24 24 23 26 27 27 26 27 27 27 27 25 24 21 19 19 19 18 18 17 17 16 16 16 16 16 16 16 16 16 16 16 15 15 15 15 15 15 15 15 15 15 14 14
23 23 24 25 25 25 25 25 26 26 25 23 21 19 18 17 17 17 16 16 15 15 16 15 15 15 15 15 15 15 15 15 15 15 15 15 15 15 14 14 14 14 14 13
21 21 22 24 24 23 24 24 25 25 23 22 21 22 19 15 15 15 15 15 15 15 15 15 14 15 15 15 14 14 14 14 14 14 14 14 14 14 14 13 13 13 13 12
21 21 22 23 22 22 22 23 22 22 21 21 22 21 16 14 14 14 14 14 14 14 14 14 14 14 14 14 13 13 14 13 13 13 13 13 13 13 13 12 12 12 12 11
20 20 21 21 21 21 21 20 20 20 20 19 18 15 14 13 13 13 13 13 13 13 13 13 13 13 13 13 13 13 13 13 13 13 12 12 12 12 12 11 11 11 11 10
20 20 20 19 19 18 18 18 18 19 18 17 15 14 13 12 12 12 12 12 12 12 12 12 12 12 12 12 12 12 12 12 12 12 12 11 11 11 11 11 11 10 10 10
18 19 19 18 18 17 17 17 17 17 16 15 14 13 12 12 11 11 11 11 11 11 11 11 11 11 12 11 11 12 11 11 11 11 11 11 10 10 10 10 10 10 9 9
17 17 17 17 16 16 16 16 15 15 14 14 13 12 11 11 11 11 11 11 11 11 11 11 11 11 11 11 11 11 11 10 10 10 10 10 10 10 9 9 9 9 8 8
16 16 16 15 14 14 14 14 14 13 13 12 12 11 11 11 10 10 11 11 11 11 11 10 10 10 11 11 11 11 10 10 10 10 9 9 9 9 8 8 8 8 8 7
14 14 13 13 12 12 12 12 12 12 12 11 11 11 10 10 10 10 10 10 10 10 10 10 10 10 10 10 10 10 10 10 10 10 9 9 9 8 8 7 7 7 6 6
13 13 13 12 12 11 11 11 11 11 11 10 10 10 10 10 10 10 10 10 10 10 10 10 10 10 10 10 9 9 9 9 9 9 9 9 8 8 8 7 7 6 5 5
13 12 12 11 11 11 10 10 10 10 10 9 9 9 10 10 10 10 10 10 10 10 10 9 9 9 9 9 9 9 9 9 9 8 8 8 8 8 7 7 6 6 5 5
12 11 11 11 10 10 10 10 10 9 9 9 9 9 9 9 9 9 9 10 10 9 9 9 9 9 9 9 9 8 8 8 8 8 8 8 7 7 7 6 6 5 5 4
12 12 11 11 10 10 10 10 10 10 9 9 9 9 9 9 9 9 9 9 9 9 9 9 9 8 8 8 8 8 8 7 7 8 7 7 7 6 6 6 5 5 4 3
12 12 11 11 10 10 10 10 10 10 10 10 10 10 10 10 10 9 9 9 9 9 8 8 8 8 8 7 7 8 8 7 7 7 6 6 6 6 5 5 5 4 4 4
11 11 11 11 11 10 10 10 10 10 10 10 10 10 10 10 9 9 9 9 9 8 8 8 8 7 7 7 7 7 7 7 7 6 6 5 5 5 5 5 4 4 4 3
11 11 11 11 11 11 10 10 10 10 10 10 10 10 9 9 9 9 9 9 9 8 8 8 7 7 7 7 7 7 7 7 6 6 5 5 5 5 4 4 4 3 3 3
11 11 11 11 11 10 10 10 10 10 10 10 10 10 9 9 9 9 9 9 8 8 8 7 7 7 7 6 7 7 6 6 6 5 5 5 4 4 4 3 3 3 3 2
11 11 11 11 11 10 10 10 10 10 10 10 10 9 9 9 9 9 8 8 8 8 7 7 7 6 6 6 6 6 6 5 5 5 5 4 4 4 3 3 3 2 2 2
11 11 11 11 10 10 10 10 10 10 10 9 9 9 9 9 9 9 8 8 7 7 7 6 6 6 6 6 6 5 5 5 5 4 4 4 3 3 3 2 2 2 1 1
10 10 10 10 10 10 10 10 10 9 9 9 9 9 9 9 8 8 8 7 7 6 6 6 6 5 5 5 5 5 4 4 4 4 3 3 3 3 2 2 2 1 1 0
10 10 10 10 10 10 10 9 9 9 9 9 8 8 8 8 8 7 7 7 6 6 6 5 5 5 5 5 4 4 4 3 3 3 3 3 2 2 2 1 1 1 0 0
10 10 10 10 10 10 10 10 10 9 9 9 8 8 8 7 7 7 6 6 6 5 5 5 5 4 4 4 4 3 3 3 3 3 2 2 2 2 1 1 0 0 0 -0
10 10 9 9 9 9 9 9 9 9 8 8 8 7 7 7 7 6 6 6 5 5 5 5 4 4 4 4 3 3 3 3 3 2 2 2 1 1 1 1 0 0 -0 -0

GEFSNGP_850_meantemp_114.txt.gz
Temperature
29 29 29 27 27 27 28 29 29 28 27 26 26 26 25 25 25 25 24 24 23 22 21 20 20 20 19 19 18 18 18 17 17 17 17 17 17 17 16 16 16 16 16 16
27 28 28 27 27 27 27 29 29 29 28 27 26 25 25 25 24 24 23 22 22 21 20 20 19 19 19 19 18 18 18 17 17 17 17 17 16 16 16 16 16 16 16 16
26 27 27 26 27 28 29 30 30 28 28 27 26 25 24 24 24 23 22 22 21 20 19 19 19 19 18 18 18 18 17 17 17 17 16 16 16 16 16 16 16 16 15 15
25 25 24 27 29 29 29 29 29 28 28 27 25 23 23 23 22 22 21 20 20 19 19 19 18 18 18 18 17 17 17 17 16 16 16 16 16 15 15 15 15 15 15 15
24 24 25 27 27 27 27 27 28 27 27 26 24 23 22 21 20 19 19 19 19 18 18 18 18 17 17 17 17 16 16 16 16 16 16 15 15 15 15 14 14 14 14 14
23 23 23 25 26 26 26 25 25 25 25 24 24 23 21 19 19 18 18 18 18 17 17 17 17 16 16 16 16 15 15 15 15 15 15 14 14 14 14 14 13 13 13 13
22 23 24 24 25 26 24 23 23 23 23 23 22 21 19 18 17 17 17 17 17 16 16 16 16 16 15 15 15 14 14 14 14 14 14 14 13 13 13 13 13 12 12 12
22 22 22 23 23 22 21 22 22 22 22 20 19 18 17 16 15 15 15 16 15 15 15 15 15 15 14 14 14 14 14 14 13 13 13 13 13 13 13 12 12 12 11 11
22 21 21 21 21 20 20 20 20 20 20 18 17 17 15 15 14 14 14 14 14 14 14 14 14 14 14 13 13 13 13 13 13 12 12 12 12 12 12 12 11 11 11 10
21 21 21 20 19 19 19 19 19 19 18 17 16 15 14 14 13 13 13 13 13 13 13 13 13 13 13 12 12 13 12 12 12 12 12 11 11 11 11 11 11 10 10 10
20 20 19 19 18 17 17 17 17 17 17 16 15 14 14 13 13 12 12 12 12 12 12 12 12 12 12 12 12 12 12 12 11 11 11 11 11 11 11 10 10 10 10 9
18 18 17 16 15 16 16 16 16 15 15 15 14 13 13 12 12 11 11 11 11 11 11 11 11 11 11 11 12 12 12 12 11 11 11 11 11 10 10 10 9 9 9 9
16 15 15 15 14 14 14 14 14 14 13 13 13 12 12 11 11 11 11 11 11 11 11 11 11 11 11 11 11 11 11 11 11 11 11 10 10 10 9 9 8 8 8 7
15 14 14 13 13 13 13 13 13 12 12 12 12 11 11 11 11 10 10 10 10 10 10 10 10 10 10 11 11 11 11 11 11 11 11 10 10 10 9 9 8 8 7 7
14 13 13 12 12 12 12 12 11 11 11 10 10 10 10 10 10 10 10 10 10 10 10 10 10 10 10 10 10 11 11 11 11 11 11 10 10 10 9 9 8 8 7 6
13 12 12 11 11 11 11 10 10 10 10 10 10 10 10 10 9 9 10 10 10 10 10 10 9 9 10 10 10 10 10 10 10 10 10 10 10 10 9 9 8 7 7 6
12 12 11 11 11 10 10 10 10 10 9 9 9 9 9 9 9 9 9 9 9 9 9 9 9 9 9 10 10 10 10 10 10 10 10 9 9 9 9 8 8 7 7 6
13 12 12 11 11 10 10 10 10 10 9 9 9 9 9 9 9 9 9 9 9 9 9 9 9 9 9 10 10 10 10 10 10 9 9 9 9 8 8 8 7 7 6 6
12 12 11 11 11 10 10 10 10 10 10 10 10 10 9 9 9 9 9 9 9 9 9 9 9 9 9 9 10 10 10 10 9 9 8 8 8 8 8 7 7 6 6 6
12 11 11 11 11 10 10 10 10 10 10 10 10 10 10 9 9 9 9 9 9 9 9 9 9 9 9 9 9 9 9 9 9 9 8 8 8 7 7 7 6 6 5 5
12 11 11 11 11 11 10 10 10 10 10 10 10 10 10 10 9 9 9 9 9 9 9 9 9 8 9 9 9 9 9 9 8 8 8 8 7 7 6 6 6 5 5 4
12 11 11 11 11 11 11 11 10 10 10 10 10 10 10 10 9 9 9 9 9 9 9 8 8 8 8 9 9 9 9 8 8 8 7 7 7 6 6 5 5 5 4 4
12 12 11 11 11 11 11 11 11 10 10 10 10 10 10 10 10 9 9 9 8 8 8 8 8 8 8 8 8 8 8 8 8 7 7 7 6 6 5 5 5 4 4 3
11 11 11 11 11 11 11 11 11 11 10 10 10 10 10 10 9 9 9 9 8 8 8 8 8 7 7 8 8 7 7 7 7 7 6 6 6 5 5 5 4 4 3 3
11 11 11 11 11 11 11 11 11 10 10 10 10 10 10 10 9 9 8 8 8 8 8 7 7 7 7 7 7 7 6 6 6 6 6 5 5 5 5 4 4 3 3 3
11 11 11 11 11 11 11 11 11 11 11 10 10 10 9 9 9 8 8 8 7 7 7 7 7 7 7 7 6 6 6 6 6 5 5 5 5 4 4 4 3 3 3 2
11 11 11 11 11 11 11 11 11 10 10 10 10 9 9 9 8 8 8 7 7 7 7 7 7 7 7 6 6 6 6 6 6 5 5 5 4 4 4 3 3 3 3 2

GEFSNGP_850_meantemp_120.txt.gz
Temperature
22 23 24 24 24 24 23 21 21 21 21 20 19 19 19 20 20 20 20 20 20 19 19 19 19 19 18 18 18 18 17 17 17 17 17 17 16 16 16 16 16 16 16 16
22 23 24 24 24 24 23 23 22 22 20 20 19 19 19 19 19 19 19 19 19 19 19 18 19 19 18 18 18 18 17 17 17 17 16 16 16 16 15 15 15 15 15 15
20 21 22 22 23 23 22 22 21 20 19 19 18 18 18 19 19 19 19 19 19 19 19 19 19 19 18 18 18 17 17 17 17 17 16 16 16 16 15 15 15 15 15 14
18 20 21 20 21 22 21 20 19 19 19 19 18 18 18 19 19 18 19 19 19 18 18 18 18 18 18 18 17 17 17 17 16 16 16 16 15 15 15 14 14 14 14 14
17 18 20 21 21 21 19 18 18 18 18 18 18 18 17 18 18 18 18 18 18 18 18 18 18 18 17 17 17 17 16 16 16 16 16 15 15 15 14 14 14 13 13 13
17 19 19 19 20 21 19 17 17 17 17 17 17 16 16 17 17 17 18 18 17 17 17 17 17 17 17 16 16 16 15 15 15 15 15 15 14 14 14 13 13 13 13 12
17 17 17 18 19 20 18 17 17 17 17 17 16 16 16 16 17 17 17 17 17 16 16 16 16 16 16 16 15 15 15 15 15 14 14 14 14 13 13 12 12 12 12 11
15 17 17 17 17 16 16 16 17 17 17 17 16 16 16 16 16 16 16 16 16 16 15 15 15 15 15 14 14 14 14 14 14 13 13 13 13 12 12 12 12 11 11 11
15 15 15 16 16 16 16 16 16 16 16 16 15 15 15 15 15 15 15 15 15 15 14 14 14 15 14 14 14 14 14 13 13 12 12 12 12 11 11 11 11 10 10 10
14 14 14 15 16 16 16 16 16 16 16 15 15 14 14 14 14 14 14 14 14 14 14 13 13 14 14 13 13 13 13 12 12 12 11 11 11 11 11 10 10 10 10 10
13 14 14 14 14 14 15 15 15 15 15 15 14 14 14 13 13 13 13 13 13 13 13 12 12 13 13 12 13 12 12 12 11 11 11 11 10 10 10 10 10 10 9 9
13 13 12 12 13 14 14 14 14 14 13 14 14 13 13 12 12 12 12 12 12 12 12 12 12 12 12 12 12 12 12 11 11 11 11 10 10 9 9 9 9 9 8 8
13 13 13 13 13 13 13 13 13 13 13 13 13 13 12 12 11 11 11 11 11 11 11 11 11 11 11 11 12 12 11 11 11 10 10 10 10 10 9 8 8 8 7 7
13 13 12 12 12 12 13 12 12 12 12 12 12 12 11 11 11 11 10 10 11 11 10 11 11 11 11 11 11 11 11 11 10 10 10 9 9 9 9 8 8 7 7 6
12 13 12 11 11 11 11 11 11 11 11 10 10 10 10 10 10 10 10 10 10 10 10 10 10 10 10 10 11 10 10 10 10 10 9 9 9 8 8 8 7 7 6 6
12 11 11 11 11 10 10 10 10 10 10 10 10 10 10 10 9 9 9 9 10 10 10 10 10 10 10 10 10 10 10 10 10 9 9 9 8 8 8 7 7 6 6 6
11 10 10 10 10 10 10 10 10 9 9 9 9 9 9 9 9 9 9 9 9 9 9 9 9 10 10 10 10 10 10 9 9 9 9 8 8 8 7 7 7 6 6 5
12 11 11 10 10 10 9 9 9 9 9 9 9 9 9 9 9 9 9 9 9 9 9 9 9 9 9 9 9 9 9 9 9 9 9 8 8 8 7 7 6 6 5 5
12 11 11 10 10 10 9 9 9 9 9 9 9 9 9 9 9 9 9 9 9 9 9 9 9 9 9 9 9 9 9 9 9 8 8 8 7 7 7 6 6 5 5 5
11 11 10 10 10 10 9 9 9 9 9 9 9 9 9 9 9 9 9 9 9 9 9 9 9 9 9 9 9 9 9 9 8 8 8 7 7 7 6 6 6 5 5 4
10 10 10 10 9 9 9 9 9 9 9 9 9 9 9 9 9 9 9 8 8 8 9 9 9 9 9 9 9 9 9 8 8 8 7 7 7 6 6 6 5 5 4 4
10 10 10 9 9 9 9 9 9 9 9 9 9 9 9 9 9 9 9 8 8 8 8 8 8 9 9 9 8 8 8 8 8 7 7 7 6 6 5 5 5 4 4 4
10 10 10 10 10 10 9 9 9 9 9 9 9 9 9 9 9 9 8 8 8 8 8 8 8 8 8 8 8 8 8 7 7 7 7 6 6 6 5 5 4 4 4 3
10 10 10 10 10 10 9 9 10 9 9 9 9 9 9 9 9 9 9 8 8 8 8 8 8 8 8 8 8 7 7 7 7 6 6 6 5 5 5 5 4 4 4 3
10 10 10 10 10 10 10 10 10 9 9 9 9 9 9 9 9 8 8 8 8 8 8 7 7 7 7 7 7 7 7 6 6 6 6 5 5 5 5 4 4 4 3 3
10 10 10 10 10 10 10 10 10 9 9 9 9 9 9 9 9 8 8 8 8 7 7 7 7 7 7 7 7 6 6 6 6 6 5 5 5 4 4 4 4 3 3 3
10 10 10 10 10 10 10 10 10 9 9 9 9 9 9 9 8 8 8 8 7 7 7 7 7 7 7 6 6 6 6 6 5 5 5 5 4 4 4 4 3 3 3 3

GEFSNGP_850_meantemp_126.txt.gz
Temperature
19 20 21 22 21 20 20 19 19 20 19 19 18 17 17 18 18 18 18 19 19 19 19 19 18 18 18 18 17 17 17 17 17 17 17 16 16 16 16 16 16 15 15 15
20 20 21 21 21 21 20 20 20 20 19 18 17 17 17 17 18 17 18 18 18 19 19 19 18 18 18 18 17 17 17 17 17 16 16 16 16 16 16 15 15 15 15 15
18 20 21 20 19 19 19 18 19 19 19 16 16 16 16 17 17 17 17 18 18 18 18 18 18 18 18 18 17 17 17 16 16 16 16 16 16 15 15 15 15 15 14 14
16 19 20 19 18 19 18 17 17 17 16 16 15 16 16 17 17 17 17 18 18 18 18 18 18 18 17 17 17 17 16 16 16 16 16 15 15 15 15 14 14 14 14 14
15 17 18 19 18 18 18 17 16 16 16 15 15 16 16 17 17 17 17 18 18 18 18 18 18 17 17 17 17 16 16 16 15 15 15 15 14 14 14 14 13 13 13 13
14 17 17 18 18 17 17 17 16 15 15 15 16 16 15 16 16 17 17 17 17 17 17 17 17 17 17 16 16 16 15 15 15 15 15 14 14 14 13 13 13 12 12 12
15 16 16 16 16 17 18 17 16 15 15 15 15 15 16 16 16 16 16 17 17 17 17 17 16 16 16 16 16 15 15 15 14 14 14 14 13 13 13 12 12 12 11 11
13 15 15 15 15 16 15 15 15 15 15 15 15 15 15 15 15 16 16 16 16 16 16 16 16 16 16 15 15 14 14 14 13 13 13 13 13 12 12 12 11 11 11 11
13 13 13 13 14 14 15 15 15 15 15 15 15 15 15 15 15 15 15 15 15 15 15 15 15 15 15 14 14 14 13 13 13 13 12 12 12 11 11 11 11 10 10 10
12 13 13 13 14 14 15 15 15 15 15 15 15 15 14 14 14 14 14 14 14 14 14 14 14 14 14 13 13 13 13 12 12 12 11 11 11 11 10 10 10 10 9 9
12 12 13 13 14 14 14 15 15 15 15 15 14 14 14 14 14 14 14 13 13 13 13 13 13 13 13 13 13 12 12 11 11 11 11 10 10 10 9 9 9 9 9 8
12 12 12 13 13 14 14 14 14 14 14 14 14 13 13 13 13 13 13 13 13 13 12 12 12 12 12 12 12 12 11 11 11 10 10 10 9 9 8 8 8 8 8 8
13 13 13 13 13 13 13 13 13 13 13 13 13 13 13 12 12 12 12 12 12 12 12 12 11 11 11 11 11 11 11 11 10 10 9 9 9 9 8 7 7 7 7 7
13 13 12 12 12 13 13 13 13 12 12 12 12 12 12 12 11 11 11 11 11 11 11 11 11 11 10 11 11 11 10 10 10 9 9 9 9 8 8 8 7 6 6 6
12 12 12 12 12 12 12 12 11 11 11 11 11 11 11 11 11 11 10 10 10 10 10 10 10 10 10 10 10 10 10 9 9 9 9 8 8 8 7 7 7 6 6 5
11 11 11 11 11 11 11 11 11 10 10 10 10 10 10 10 10 10 10 10 10 10 9 9 9 9 9 10 9 9 9 9 9 9 8 8 7 7 7 7 6 6 6 5
11 10 10 10 10 10 10 10 10 9 10 9 9 9 9 9 9 9 9 9 9 9 9 9 9 9 9 9 9 9 9 8 8 8 8 8 7 7 7 6 6 6 5 5
11 11 11 10 10 10 9 9 9 9 9 9 9 9 9 9 9 9 9 9 9 9 9 9 9 9 9 9 9 9 9 8 8 8 8 7 7 7 6 6 6 5 5 5
11 10 10 10 10 9 9 9 9 9 9 9 9 9 9 9 9 9 9 9 9 8 8 9 9 9 9 9 9 9 8 8 8 8 7 7 7 6 6 6 6 5 5 4
10 10 10 9 9 9 9 9 9 9 9 9 9 9 8 8 8 8 8 9 9 8 8 8 9 9 9 9 9 9 8 8 8 7 7 7 7 6 6 6 5 5 4 4
10 9 9 9 9 9 9 9 9 9 9 9 9 9 8 8 8 8 8 8 8 8 8 8 8 8 8 8 8 8 8 8 8 7 7 7 6 6 6 5 5 5 4 4
9 9 9 9 9 9 9 9 9 9 9 9 9 8 8 8 8 8 8 8 8 8 8 8 8 8 8 8 8 8 8 8 7 7 7 7 6 6 6 5 5 4 4 4
9 9 9 9 9 9 8 9 9 9 9 8 8 8 8 8 8 8 8 8 8 8 8 8 8 8 8 8 8 8 7 7 7 7 6 6 6 6 5 5 4 4 4 3
9 9 9 9 9 9 9 9 9 9 9 8 8 8 8 8 8 8 8 8 8 8 8 8 8 8 8 8 7 7 7 7 7 6 6 6 5 5 5 5 4 4 4 3
9 9 9 9 9 9 9 9 9 9 8 8 8 8 8 8 8 8 8 8 7 7 7 7 7 7 7 7 7 7 7 6 6 6 6 5 5 5 5 4 4 4 3 3
9 9 9 9 9 9 9 9 9 9 8 8 8 8 8 8 8 8 7 7 7 7 7 7 7 7 7 7 6 6 6 6 6 6 5 5 5 5 4 4 4 4 3 3
9 9 9 9 9 9 9 9 9 9 9 8 8 8 8 8 8 7 7 7 7 7 7 7 6 6 6 6 6 6 6 6 5 5 5 5 5 4 4 4 4 3 3 3

GEFSNGP_850_meantemp_132.txt.gz
Temperature
28 29 29 29 29 28 28 29 29 29 29 28 27 26 25 24 23 22 21 21 20 19 18 18 18 17 17 17 17 17 16 16 16 16 16 16 16 16 16 16 16 16 16 15
27 28 28 28 28 28 28 29 29 29 28 27 26 25 24 23 22 22 21 20 20 19 18 18 17 17 17 17 17 16 16 16 16 16 16 16 16 16 16 15 15 15 15 15
27 27 27 27 28 28 28 28 29 28 28 26 25 24 23 22 22 21 21 20 19 18 18 17 17 17 17 17 16 16 16 16 16 16 16 16 16 15 15 15 15 15 15 14
27 26 25 27 27 28 27 27 27 26 26 25 24 22 21 20 20 20 19 18 18 18 17 17 17 17 16 16 16 16 16 16 16 16 15 15 15 15 15 15 14 14 14 14
26 25 26 25 25 26 26 26 26 25 24 23 22 22 21 19 19 18 18 18 17 17 17 17 17 16 16 16 16 15 15 15 15 15 15 15 15 15 14 14 14 13 13 13
25 25 25 26 25 24 25 24 24 24 23 23 22 24 22 18 18 17 17 17 17 17 17 16 16 16 16 16 15 15 15 15 15 15 15 15 14 14 14 13 13 13 12 12
24 24 25 24 23 24 24 24 23 22 22 22 22 22 19 17 17 16 16 16 16 16 16 16 16 16 15 15 15 15 15 14 14 14 14 14 13 13 13 13 12 12 11 11
24 24 24 22 23 23 22 21 21 21 20 20 19 18 17 16 16 15 15 16 16 15 15 15 15 15 15 15 14 14 14 14 13 13 13 13 13 12 12 12 11 11 11 10
23 23 20 20 20 19 19 19 19 19 19 18 17 17 16 15 15 15 15 15 15 15 15 15 14 15 14 14 14 13 13 13 13 13 12 12 12 11 11 11 11 10 10 9
21 20 19 19 18 18 18 18 18 17 17 17 17 16 15 15 15 14 14 14 14 14 14 14 14 14 14 13 13 13 13 12 12 11 11 11 11 10 10 10 10 9 9 8
20 19 19 18 17 17 16 16 16 16 16 16 15 15 15 14 14 14 13 13 13 13 13 13 13 13 13 13 13 12 12 11 11 11 10 10 10 9 9 9 9 9 8 8
20 19 19 17 16 15 15 15 15 15 15 15 15 14 14 13 13 13 13 13 13 13 12 12 12 12 12 12 12 12 11 11 10 10 10 9 9 9 8 8 8 8 8 7
17 17 16 15 15 14 14 14 14 14 14 13 13 13 13 13 13 12 12 12 12 12 12 11 11 11 11 11 11 11 11 10 10 9 9 8 8 8 7 7 7 7 7 7
15 15 15 15 14 14 13 13 13 13 13 12 12 12 12 12 12 12 11 11 11 11 11 11 11 10 10 10 10 10 10 10 9 9 8 8 8 7 7 6 6 5 6 6
14 14 14 13 13 13 12 12 12 12 12 12 11 11 11 11 11 11 11 11 10 10 10 10 10 10 10 10 10 9 9 9 8 8 8 8 7 7 7 6 6 5 5 5
13 13 13 13 12 12 12 12 11 11 11 11 11 11 11 10 10 10 10 10 10 10 9 9 9 9 9 9 9 9 8 8 8 8 7 7 7 7 7 6 6 6 5 5
13 13 13 12 12 12 11 11 10 10 10 10 10 10 10 9 9 9 9 9 9 9 9 9 9 9 9 9 9 8 8 8 8 7 7 7 7 7 7 6 6 6 5 5
13 12 12 12 11 11 10 10 10 10 9 9 9 9 9 9 9 9 9 9 9 8 8 8 9 8 8 8 8 8 8 7 8 7 7 7 7 7 7 6 6 6 5 5
12 11 11 11 10 10 10 9 9 9 9 9 8 8 8 8 8 8 8 9 8 8 8 8 8 8 8 8 8 8 8 8 7 7 7 7 7 7 7 6 6 6 5 5
11 10 10 10 10 9 9 9 9 8 8 8 8 8 8 8 8 8 8 8 8 8 8 8 8 8 8 8 8 8 8 8 8 7 7 7 7 7 7 6 6 6 6 5
10 10 10 9 9 9 9 8 8 8 8 8 8 8 8 8 8 8 9 8 8 8 8 8 8 8 8 8 8 8 8 8 8 7 7 7 7 7 7 6 6 6 5 5
9 9 9 9 9 8 8 8 8 8 8 8 8 8 8 8 8 8 8 8 8 8 8 8 8 8 8 8 8 8 8 8 8 7 7 7 7 7 6 6 6 6 5 5
9 9 9 9 9 8 8 8 8 8 8 8 8 8 8 8 8 8 8 8 8 8 8 8 8 8 8 8 8 8 8 8 7 7 7 7 7 6 6 6 6 6 5 5
9 9 8 8 8 8 8 8 8 8 8 8 8 8 8 8 8 8 8 8 8 8 8 8 8 8 8 8 8 8 7 7 7 7 7 7 7 6 6 6 6 6 5 5
9 8 8 8 8 8 8 8 8 8 8 8 8 8 8 8 8 8 7 7 8 7 8 7 7 7 8 8 8 7 7 7 7 7 7 7 7 6 6 6 6 5 5 5
8 8 8 8 9 8 9 9 9 9 9 8 8 8 8 8 8 8 7 7 7 7 7 7 7 7 7 7 7 7 7 7 7 7 7 7 6 6 6 6 5 5 5 5
8 8 8 9 9 9 9 9 9 9 9 9 8 8 8 8 8 8 7 7 7 7 7 7 7 7 7 7 7 7 7 7 7 7 7 6 6 6 6 5 5 5 5 5

GEFSNGP_850_meantemp_138.txt.gz
Temperature
29 30 31 31 31 31 31 30 29 29 28 28 28 27 27 26 26 26 25 24 23 22 21 21 20 20 19 19 18 18 18 17 17 17 17 17 17 16 16 16 16 16 16 16
29 30 30 30 31 31 31 30 30 29 27 28 27 26 26 26 25 25 25 24 23 22 21 20 20 19 19 18 18 18 17 17 17 17 17 16 16 16 16 16 16 16 16 16
27 29 29 28 30 31 31 31 30 28 27 27 26 26 26 25 25 25 24 23 22 21 21 20 19 19 18 18 18 17 17 17 17 16 16 16 16 16 16 15 15 15 15 15
27 27 26 29 31 31 31 30 30 29 28 27 26 25 25 24 24 23 22 22 21 21 20 19 19 18 18 18 17 17 17 16 16 16 16 15 15 15 15 15 15 15 15 14
26 26 27 29 30 30 29 29 29 29 28 27 25 25 24 23 23 22 21 21 20 20 20 19 18 18 18 18 17 17 16 16 16 16 15 15 15 15 15 14 14 14 14 14
26 25 25 26 28 29 29 27 28 28 27 26 26 25 23 22 22 21 20 20 19 19 19 18 18 18 17 17 16 16 16 16 15 15 15 15 15 14 14 14 14 13 13 13
25 25 26 26 27 27 26 25 26 26 25 25 24 24 21 21 20 20 19 19 19 18 18 18 17 17 17 16 16 16 15 15 15 15 15 14 14 14 14 13 13 13 12 12
25 25 24 26 26 24 23 24 25 24 23 22 21 21 20 19 19 19 18 18 18 18 17 17 17 17 16 16 15 15 15 15 14 14 14 14 14 13 13 13 12 12 12 11
24 24 23 24 23 23 23 23 23 22 22 21 20 19 19 18 18 18 17 17 17 17 16 16 16 16 16 15 15 15 14 14 14 13 13 13 13 12 12 12 11 11 11 10
23 23 23 22 22 22 22 22 21 21 20 20 19 19 18 17 17 17 17 17 16 16 16 15 15 15 15 15 14 14 14 13 13 13 12 12 12 11 11 11 11 10 10 9
21 21 22 21 20 20 20 21 20 20 20 19 18 18 17 17 16 16 16 16 15 15 15 14 14 14 14 14 14 13 13 12 12 12 12 11 11 11 11 11 10 10 10 9
20 20 20 20 19 19 19 19 19 19 18 18 17 17 16 16 15 15 15 15 14 14 14 13 13 13 13 13 13 13 12 12 11 11 11 10 10 10 9 9 9 9 9 9
19 19 19 18 18 18 18 18 18 17 17 16 16 16 15 15 14 14 14 14 13 13 13 13 12 12 12 12 12 12 12 11 11 10 10 10 9 9 9 8 8 8 8 8
18 18 18 17 17 17 17 17 16 16 16 15 15 15 14 13 13 13 13 13 13 12 12 12 12 11 11 11 11 11 11 10 10 10 9 9 9 8 8 8 8 7 7 7
18 17 17 17 16 16 16 16 15 15 14 14 14 13 13 13 12 12 12 12 12 12 11 11 11 11 10 10 10 10 10 10 9 9 9 9 8 8 7 7 7 7 7 6
17 17 17 16 16 15 15 15 14 14 13 13 13 12 12 12 12 11 11 11 11 11 10 10 10 10 10 10 10 9 9 9 9 9 9 8 8 8 7 7 7 7 6 6
16 16 16 16 15 15 14 14 13 13 12 12 12 11 11 11 11 10 10 10 10 10 10 9 9 9 9 9 9 9 9 9 9 9 9 9 8 8 7 7 7 7 6 6
16 16 15 15 14 14 13 13 12 12 12 11 11 11 10 10 10 10 9 9 9 9 9 9 9 9 9 9 9 9 9 9 9 9 9 9 8 8 8 7 7 7 7 7
15 15 14 14 13 13 12 12 11 11 11 10 10 10 10 9 9 9 9 9 9 9 9 9 9 9 9 9 9 9 9 9 9 9 9 8 8 8 8 8 7 7 7 7
14 13 13 13 12 12 11 11 11 10 10 10 10 9 9 9 9 9 9 9 9 9 9 9 9 9 9 9 9 9 9 9 9 9 8 8 8 8 8 8 8 7 7 7
12 12 12 11 11 11 11 10 10 10 10 9 9 9 9 9 9 9 9 8 8 9 9 9 9 9 9 9 9 10 9 9 9 9 9 9 9 8 8 8 8 8 7 7
11 11 11 11 11 10 10 10 10 10 9 9 9 9 9 9 9 9 9 9 8 9 9 9 9 9 9 9 9 10 9 9 9 9 9 9 9 8 8 8 8 8 7 7
11 11 10 10 10 10 10 9 9 9 9 9 9 9 9 9 9 9 8 8 9 9 9 9 9 9 9 9 9 10 9 9 9 9 9 9 9 9 8 8 8 8 7 7
10 10 10 10 10 10 9 9 9 9 9 9 9 9 9 9 9 9 9 9 9 9 9 9 9 9 9 9 9 9 9 9 9 9 9 9 9 9 8 8 8 8 7 7
10 10 10 10 9 9 9 9 9 9 9 9 9 9 9 9 9 9 9 9 9 9 9 9 9 9 9 9 9 9 9 9 9 9 9 9 9 8 8 8 8 8 7 7
9 9 9 9 9 9 9 10 10 10 10 10 10 10 10 9 9 9 9 8 8 9 9 9 9 9 9 9 9 9 9 9 9 9 9 9 9 8 8 8 8 8 7 7
9 9 10 10 10 10 10 10 10 10 10 10 10 10 10 10 9 9 9 9 9 9 9 9 9 9 9 9 9 9 9 9 9 9 9 9 8 8 8 8 8 7 7 7

GEFSNGP_850_meantemp_144.txt.gz
Temperature
22 24 25 25 26 25 23 21 21 21 21 21 20 20 21 21 21 21 21 21 21 21 20 20 19 19 19 18 18 18 18 17 17 17 17 17 17 16 16 16 16 16 16 16
23 24 25 25 25 26 25 24 23 22 21 20 21 21 21 21 21 20 20 20 21 20 20 20 19 19 19 18 18 18 17 17 17 17 17 16 16 16 16 16 16 15 15 15
21 23 24 23 24 24 24 23 23 22 21 20 20 20 20 21 21 21 21 20 20 20 20 20 20 19 19 18 18 17 17 17 17 16 16 16 16 16 16 15 15 15 15 15
19 22 22 21 22 24 23 23 22 21 20 20 20 20 21 21 21 21 21 20 20 20 20 19 19 19 18 18 18 17 17 16 16 16 16 16 15 15 15 15 15 15 15 14
17 19 21 22 23 23 22 21 21 21 20 20 20 19 19 20 21 21 20 21 21 20 20 19 19 18 18 18 17 17 16 16 16 16 16 15 15 15 15 15 14 14 14 14
18 20 20 20 22 23 22 20 20 20 20 19 20 18 18 19 20 20 20 20 20 19 19 19 18 18 18 17 17 16 16 16 16 15 15 15 15 15 14 14 14 14 14 13
18 19 19 20 21 22 20 19 20 20 20 20 19 19 19 19 20 20 20 20 19 19 18 18 18 17 17 17 16 16 16 16 15 15 15 15 14 14 14 14 13 13 13 12
16 18 18 19 20 19 18 19 20 20 20 19 19 19 18 19 19 19 19 19 19 18 18 17 17 17 17 16 16 15 15 15 15 14 14 14 14 13 13 13 13 12 12 11
16 16 17 18 18 19 19 19 19 19 19 19 18 18 18 18 18 18 18 18 18 18 17 16 16 16 16 16 15 15 15 14 14 14 14 13 13 13 12 12 12 12 11 11
15 16 16 17 18 18 19 19 19 19 19 19 18 17 17 17 17 17 17 17 17 17 16 16 15 15 15 15 15 14 14 14 13 13 13 12 12 12 12 11 11 11 11 10
14 15 16 16 17 17 18 18 18 18 18 18 18 17 16 16 16 16 16 16 16 16 16 15 15 14 14 14 14 14 14 13 13 12 12 12 11 11 11 11 11 11 10 10
14 14 14 15 16 17 17 17 17 17 17 17 17 16 16 15 15 15 15 15 15 15 15 14 14 14 14 13 13 13 13 12 12 12 11 11 11 10 10 10 10 9 9 9
15 16 16 15 16 16 16 16 16 16 16 16 16 15 15 15 15 15 15 14 14 14 14 13 13 13 13 13 13 13 12 12 11 11 11 10 10 10 9 9 9 9 8 8
16 16 15 15 15 15 16 16 15 15 15 15 15 15 14 14 14 14 13 13 13 13 13 13 13 12 12 12 12 12 11 11 11 10 10 10 9 9 9 9 8 8 7 7
15 16 15 15 15 15 15 15 15 14 14 14 14 14 14 13 13 13 13 12 12 12 12 12 12 11 11 11 11 11 11 10 10 10 9 9 9 9 8 8 8 8 7 7
15 15 15 14 14 14 14 14 14 14 14 14 13 13 13 13 13 12 12 12 12 11 11 11 11 11 10 10 10 10 10 10 9 9 9 9 8 8 8 8 8 7 7 7
14 14 14 14 14 14 14 14 13 13 13 13 13 13 12 12 12 11 11 11 11 11 11 10 10 10 10 10 10 10 9 9 9 9 9 8 8 8 8 8 7 7 7 7
15 14 14 14 14 13 13 13 13 13 13 12 12 12 12 11 11 10 10 10 10 10 10 10 9 9 9 9 9 9 9 9 9 9 9 8 8 8 8 8 7 7 7 7
14 14 14 13 13 13 13 12 12 12 12 12 12 11 11 11 10 10 10 10 10 9 9 9 9 9 9 9 9 9 9 9 9 8 8 8 8 8 8 8 7 7 7 7
13 13 13 13 12 12 12 12 11 11 11 11 11 10 10 10 9 9 9 9 9 9 9 9 9 9 9 9 9 9 9 9 9 9 8 8 8 8 8 8 7 7 7 7
12 12 12 12 11 11 11 11 11 11 10 10 10 10 10 9 9 9 9 9 8 9 9 9 9 9 9 9 9 9 9 9 9 9 8 8 8 8 8 8 7 7 7 7
11 11 11 11 11 10 10 10 10 10 10 10 10 10 9 9 9 9 9 9 8 8 8 8 9 9 9 9 9 9 9 9 9 8 8 8 8 8 8 8 7 7 7 7
10 10 10 10 10 10 10 10 10 10 10 10 9 9 9 9 9 9 8 8 8 8 8 8 9 9 9 9 9 9 9 9 9 8 8 8 8 8 8 8 8 7 7 7
10 10 10 10 10 10 9 9 9 9 9 9 9 9 9 9 8 8 8 8 8 8 8 8 9 9 9 9 9 9 9 9 9 8 8 8 8 8 8 8 8 8 7 7
10 10 9 9 9 9 9 9 9 9 9 9 9 9 9 9 9 8 8 8 8 8 8 8 8 9 9 9 9 9 9 9 9 9 8 8 8 8 8 8 8 8 7 7
9 9 9 9 9 9 9 9 9 9 9 9 9 9 9 9 9 9 9 9 8 8 9 9 9 9 9 9 9 9 9 9 9 9 9 9 8 8 8 8 8 8 7 7
9 9 9 9 9 9 9 9 9 9 9 9 9 9 9 9 9 9 9 9 9 9 9 9 9 9 9 9 9 9 9 9 9 9 9 8 8 8 8 8 8 8 7 7

GEFSNGP_850_meantemp_150.txt.gz
Temperature
20 21 21 22 22 20 20 19 19 20 19 20 19 19 19 20 20 20 20 20 21 20 20 20 19 19 19 18 18 18 18 17 17 17 17 17 16 16 16 16 16 16 16 16
21 21 21 22 21 21 21 20 20 20 20 19 19 19 19 19 20 20 20 21 21 20 20 20 20 19 19 18 18 18 18 17 17 17 16 16 16 16 16 16 16 15 15 15
19 20 21 21 21 21 21 20 20 20 20 19 18 18 19 20 20 21 21 21 21 21 21 20 20 20 19 18 18 18 17 17 17 16 16 16 16 16 15 15 15 15 15 15
17 20 21 20 20 20 20 20 19 19 19 18 18 19 20 20 21 21 21 21 21 21 20 20 19 19 19 18 18 17 17 17 16 16 16 15 15 15 15 15 15 15 15 14
15 17 19 20 19 19 19 20 19 18 18 18 18 18 19 20 21 21 21 21 20 20 20 20 19 19 18 18 17 17 17 16 16 16 15 15 15 15 15 15 15 14 14 14
15 18 18 19 19 19 19 19 18 18 17 17 18 18 18 20 20 20 20 20 20 20 19 19 18 18 18 17 17 17 16 16 16 15 15 15 15 14 14 14 14 14 14 13
15 17 17 17 17 19 19 19 18 18 18 18 17 18 19 19 19 19 19 19 19 19 19 19 18 18 17 17 17 16 16 15 15 15 14 14 14 14 14 14 13 13 13 13
14 16 17 17 17 17 17 18 18 18 18 18 18 19 19 19 19 19 19 19 19 19 18 18 18 17 17 17 16 16 15 15 15 14 14 14 14 13 13 13 13 13 12 12
14 15 15 15 16 17 17 17 18 18 18 18 18 18 18 18 18 18 18 18 18 18 17 17 17 17 17 16 15 15 15 15 14 14 14 13 13 13 13 12 12 12 11 11
13 14 14 15 16 16 17 18 18 18 18 18 18 18 17 17 17 17 17 17 17 17 17 16 16 16 16 15 15 15 14 14 14 13 13 13 12 12 12 12 11 11 11 10
12 13 14 15 16 16 17 17 18 18 18 18 18 17 17 16 17 17 16 16 16 16 16 15 15 15 15 15 14 14 14 13 13 13 12 12 11 11 11 11 11 10 10 10
12 13 13 14 15 16 16 17 17 17 17 17 17 17 16 16 16 16 15 15 15 15 15 15 14 14 14 14 14 13 13 13 12 12 12 11 11 10 10 10 9 9 9 9
14 14 14 15 15 15 16 16 16 16 16 16 16 16 16 15 15 15 15 14 14 14 14 14 13 13 13 13 13 13 13 12 12 12 11 10 10 10 9 9 9 8 8 8
14 14 14 14 15 15 15 15 15 15 15 15 15 15 15 15 14 14 14 14 14 14 13 13 13 13 12 12 12 12 12 12 11 11 10 10 10 9 9 9 8 8 8 8
14 14 14 14 14 14 14 14 15 15 15 14 14 14 14 14 14 13 13 13 13 13 13 13 12 12 12 12 12 11 11 11 11 10 10 10 9 9 9 8 8 8 7 7
14 14 14 14 14 13 14 14 14 14 14 14 14 13 13 13 13 13 13 13 12 12 12 12 12 11 11 11 11 11 11 10 10 10 9 9 9 9 8 8 8 7 7 7
13 13 13 13 13 13 13 13 14 13 13 13 13 13 13 13 13 12 12 12 12 11 11 11 11 11 11 10 10 10 10 10 9 9 9 9 8 8 8 8 7 7 7 7
14 14 14 14 13 13 13 13 13 13 13 13 13 13 12 12 12 12 11 11 11 11 10 10 10 10 10 10 10 9 9 9 9 9 8 8 8 8 8 7 7 7 7 7
13 13 13 13 13 13 13 12 12 12 12 12 12 12 12 11 11 11 11 11 10 10 10 10 10 9 9 9 9 9 9 8 8 8 8 8 8 7 7 7 7 7 7 7
13 13 13 13 12 12 12 12 12 11 11 11 11 11 11 11 10 10 10 10 10 9 9 9 9 9 9 8 8 8 8 8 8 8 8 8 8 7 7 7 7 7 7 6
12 12 12 12 12 11 11 11 11 11 11 11 11 10 10 10 10 10 9 9 9 9 9 9 8 8 8 8 8 8 8 8 8 8 8 8 8 7 7 7 7 7 7 7
11 11 11 11 10 10 10 10 10 10 10 10 10 10 10 9 9 9 9 9 8 8 8 8 8 8 8 8 8 8 8 8 8 8 8 8 8 7 7 7 7 7 7 7
10 10 10 10 10 10 9 9 10 10 10 10 10 9 9 9 9 9 8 8 8 8 8 8 8 8 8 8 8 8 8 8 8 8 8 8 8 8 7 7 7 7 7 7
9 9 9 9 9 9 9 9 9 9 9 9 9 9 9 9 8 8 8 8 8 8 8 8 8 8 8 8 8 8 8 8 8 8 8 8 8 8 8 7 7 7 7 7
9 9 9 9 9 9 9 9 9 8 8 8 8 8 8 8 8 8 8 8 8 8 8 8 8 8 8 8 8 8 8 8 8 8 8 8 8 8 8 8 7 7 7 7
9 9 9 9 9 9 8 9 8 8 8 8 8 8 8 8 8 8 8 8 8 8 8 8 8 8 8 8 8 8 8 8 8 8 8 8 8 8 8 8 8 7 7 7
9 9 9 9 8 9 9 9 9 8 8 8 8 8 8 8 8 8 8 8 8 8 8 8 8 8 8 8 8 8 8 8 8 8 8 8 8 8 8 8 8 8 7 7

GEFSNGP_850_meantemp_156.txt.gz
Temperature
29 29 29 29 29 29 29 29 29 30 30 30 29 28 27 25 24 24 23 22 21 20 20 19 19 18 18 18 18 18 17 17 17 17 17 17 16 16 16 16 16 16 16 16
27 28 29 28 29 29 29 29 29 29 29 29 28 27 26 25 24 24 23 22 21 20 20 19 19 18 18 18 18 18 17 17 17 17 16 16 16 16 16 16 16 15 15 15
27 28 27 27 28 29 29 29 29 29 29 28 27 26 25 24 24 23 23 22 21 20 19 19 19 19 18 18 18 18 17 17 17 16 16 16 16 16 16 16 15 15 15 15
27 26 26 28 28 28 28 28 28 28 27 27 26 24 24 23 23 23 22 22 21 20 19 19 19 19 18 18 18 17 17 17 16 16 16 16 16 15 15 15 15 15 15 14
27 26 27 27 26 27 27 27 27 27 26 25 24 24 24 22 22 22 21 21 20 20 19 19 19 18 18 18 17 17 17 16 16 16 16 15 15 15 15 15 15 14 14 14
26 26 26 27 26 25 26 26 26 25 25 25 24 27 25 21 21 20 20 20 20 19 19 18 18 18 18 17 17 16 16 16 16 16 15 15 15 15 14 14 14 14 14 14
25 25 27 25 25 25 25 25 24 23 23 23 24 23 21 19 19 19 19 19 19 18 18 18 18 18 17 17 16 16 16 16 16 15 15 15 14 14 14 14 14 13 13 13
25 25 25 23 24 25 23 21 21 22 22 21 20 19 19 18 18 18 18 18 18 18 18 17 17 17 17 16 16 16 15 15 15 15 14 14 14 14 14 13 13 13 12 12
24 24 21 20 21 20 20 20 20 20 20 20 19 19 18 17 17 17 17 17 17 17 17 17 17 16 16 16 16 15 15 15 15 14 14 14 13 13 13 13 12 12 12 11
21 21 21 20 19 19 19 19 19 19 19 19 19 18 17 17 16 16 16 16 16 16 16 16 16 16 16 15 15 15 15 14 14 13 13 13 13 12 12 12 12 11 11 11
20 20 20 20 19 18 18 18 18 18 18 18 18 17 17 16 16 15 15 15 15 15 15 15 15 15 15 15 14 14 14 13 13 13 12 12 12 11 11 11 11 11 11 11
21 20 20 19 18 17 17 17 17 17 17 17 17 16 16 16 15 15 15 15 15 15 15 15 14 14 14 14 14 14 13 13 12 12 12 12 11 11 11 10 10 10 10 10
18 18 17 17 17 16 16 16 16 16 16 16 16 15 15 15 15 15 14 14 14 14 14 14 14 14 13 13 13 13 13 12 12 12 11 11 11 10 10 10 10 9 9 9
16 16 16 17 16 16 16 15 15 15 15 15 15 14 14 14 14 14 14 14 14 13 13 13 13 13 13 13 12 12 12 12 12 11 11 11 10 10 10 9 9 9 8 8
16 16 16 16 15 15 15 15 15 15 14 14 14 14 14 14 13 13 13 13 13 13 13 12 12 12 12 12 12 12 11 11 11 11 10 10 10 9 9 9 9 8 8 7
15 15 15 15 15 15 15 15 15 14 14 13 13 13 13 13 13 13 13 13 13 12 12 12 12 12 11 11 11 11 11 11 10 10 10 9 9 9 9 8 8 8 8 7
15 15 15 15 15 14 14 14 14 13 13 13 13 13 13 12 12 12 12 12 12 12 11 11 11 11 11 11 11 10 10 10 10 9 9 9 9 9 9 8 8 8 8 7
14 14 14 14 14 14 13 13 13 12 12 12 12 12 12 12 11 11 11 11 11 11 11 11 11 10 10 10 10 10 10 9 9 9 9 9 9 8 8 8 8 8 7 7
13 13 13 13 13 13 12 12 12 12 12 11 11 11 11 11 11 11 10 10 10 10 10 10 10 10 10 10 10 9 9 9 9 9 8 8 8 8 8 8 8 8 8 7
12 12 12 12 12 12 12 11 11 11 11 11 11 10 10 10 10 10 10 10 9 9 9 9 9 9 9 9 9 9 9 9 9 8 8 8 8 8 8 8 8 8 8 7
11 11 11 11 11 11 11 11 11 10 10 10 10 10 10 10 10 10 10 9 9 9 9 9 9 9 9 9 9 9 9 9 8 8 8 8 8 8 8 8 8 8 8 8
10 10 10 10 10 10 10 10 10 10 10 10 10 10 9 9 9 9 9 9 9 9 9 9 8 8 8 9 8 8 8 8 8 8 8 8 8 8 8 8 8 8 8 8
9 9 9 9 9 9 9 9 9 9 9 9 9 9 9 9 9 9 9 8 8 8 9 8 8 8 8 8 8 8 8 8 8 8 8 8 8 8 8 8 8 8 8 8
9 9 9 9 9 9 9 9 9 9 9 9 9 9 9 9 9 8 8 8 8 8 8 8 8 8 8 8 8 8 8 8 9 9 9 9 9 8 8 8 8 8 8 8
9 8 8 8 8 8 8 8 8 8 8 8 8 8 8 8 8 8 8 8 8 8 8 8 8 8 8 8 8 8 8 8 9 9 9 9 9 9 8 8 8 8 8 8
8 8 8 8 8 8 9 9 9 9 9 8 8 8 8 8 8 8 8 8 8 8 8 8 8 8 8 8 8 8 9 8 8 8 8 8 8 8 8 8 8 8 8 8
8 8 8 8 8 9 9 9 9 9 9 8 8 8 8 8 8 8 8 8 8 8 8 8 8 8 8 8 8 8 9 9 9 9 9 9 8 8 8 8 8 8 8 8

GEFSNGP_850_meantemp_162.txt.gz
Temperature
30 31 32 32 32 32 32 32 31 30 29 29 29 30 29 29 28 27 26 25 24 23 22 22 21 20 20 20 19 19 18 18 18 18 18 17 17 17 17 17 17 16 16 16
29 31 32 32 32 32 32 32 32 31 30 30 29 29 29 28 28 27 26 25 24 23 22 21 21 20 20 19 19 19 18 18 18 17 17 17 17 17 16 16 16 16 16 16
28 30 31 30 32 32 32 32 32 30 30 30 29 28 28 28 27 27 26 25 24 23 22 21 20 20 20 19 19 18 18 18 17 17 17 17 16 16 16 16 16 16 16 15
28 28 27 30 33 32 32 31 32 31 30 30 28 27 27 26 26 26 25 24 23 23 22 21 20 20 19 19 18 18 18 17 17 17 17 17 16 16 16 15 15 15 15 15
27 28 28 30 31 31 31 30 30 30 30 29 28 27 26 25 25 24 24 23 23 22 22 21 20 20 19 19 18 18 17 17 17 17 17 16 16 15 15 15 15 15 15 14
27 26 27 28 30 30 31 28 29 29 28 27 27 27 25 24 24 23 23 23 22 22 21 20 20 19 19 18 18 17 17 17 17 17 16 16 15 15 15 15 14 14 14 14
26 26 27 27 28 29 28 26 27 27 27 26 25 25 23 23 23 22 22 22 21 21 20 20 19 19 18 18 17 17 17 17 17 16 16 16 15 15 14 14 14 14 14 13
25 25 25 26 27 26 24 25 25 25 25 24 23 22 22 21 21 21 21 21 20 20 19 19 18 18 18 17 17 17 17 16 16 16 15 15 15 14 14 14 14 13 13 13
25 24 24 24 24 24 24 24 24 24 23 23 22 21 21 20 20 20 20 20 19 19 18 18 18 17 17 17 16 16 16 16 15 15 15 15 14 14 14 13 13 13 13 12
24 24 24 24 23 23 23 23 23 23 23 22 22 21 20 20 19 19 19 18 18 18 17 17 17 17 16 16 16 15 15 15 14 14 14 14 14 13 13 13 13 12 12 12
23 23 23 23 23 23 22 22 22 22 22 21 21 20 19 19 18 18 18 17 17 17 17 16 16 16 16 15 15 15 15 14 14 14 13 13 13 13 13 12 12 12 12 12
22 22 22 22 22 21 21 21 21 21 21 20 20 19 19 18 18 17 17 16 16 16 16 16 15 15 15 15 15 15 14 14 14 13 13 13 13 12 12 12 12 12 12 12
21 21 21 21 21 20 20 20 20 20 19 19 19 18 18 17 17 16 16 16 15 15 15 15 15 14 14 14 14 14 14 14 13 13 13 12 12 12 12 11 11 11 11 11
20 20 20 20 20 20 20 19 19 19 18 18 18 17 17 17 16 16 15 15 15 15 14 14 14 14 14 14 14 13 13 13 13 13 12 12 12 11 11 11 11 10 10 10
19 19 19 19 19 19 19 19 18 18 18 17 17 16 16 16 16 15 15 14 14 14 14 14 13 13 13 13 13 13 13 13 13 12 12 12 11 11 11 11 10 10 10 10
19 19 19 18 18 18 18 18 18 17 17 16 16 16 15 15 14 14 14 14 13 13 13 13 13 13 13 13 12 12 12 12 12 12 12 11 11 11 11 10 10 10 9 9
18 18 18 18 17 18 17 17 17 16 16 15 15 15 14 14 14 13 13 13 13 13 12 12 12 12 12 12 12 12 12 12 12 12 11 11 11 11 10 10 10 9 9 9
17 17 17 17 17 16 16 16 16 15 15 14 14 14 14 13 13 13 13 12 12 12 12 12 12 12 12 12 12 11 11 11 11 11 11 11 10 10 10 10 10 9 9 9
16 17 17 16 16 16 15 15 15 15 14 14 14 13 13 13 13 12 12 12 12 11 11 11 11 11 11 11 11 11 11 11 11 11 10 10 10 10 10 10 10 9 9 9
15 15 15 15 15 15 15 14 14 14 13 13 13 13 12 12 12 12 12 11 11 11 11 11 11 11 11 11 11 11 11 11 10 10 10 10 10 10 10 10 10 9 9 9
14 14 14 14 14 14 13 13 13 13 13 12 12 12 12 12 11 11 11 11 11 11 11 11 10 10 10 11 11 11 10 10 10 10 10 10 10 10 10 10 10 9 9 9
13 13 13 13 13 12 12 12 12 12 12 11 11 11 11 11 11 11 11 10 10 10 10 10 10 10 10 10 10 10 10 10 10 10 10 10 10 10 10 10 10 10 9 9
12 12 12 12 11 11 11 11 11 11 11 11 11 11 11 11 11 10 10 10 10 10 10 10 10 10 10 10 10 10 10 10 10 10 10 10 10 10 10 10 10 10 9 9
11 11 11 11 11 11 10 10 10 10 10 10 10 10 10 10 10 10 10 10 9 9 9 10 10 10 10 10 10 10 10 10 10 10 10 10 10 10 10 10 10 10 9 9
10 10 10 10 10 10 10 10 10 10 10 10 10 10 10 10 10 9 9 9 9 9 9 9 9 10 10 10 10 10 10 10 10 10 10 10 10 10 10 10 10 9 9 9
10 10 10 10 10 9 10 10 10 10 10 10 10 10 10 10 9 9 9 9 9 9 9 9 9 10 10 10 10 10 10 10 10 10 10 10 10 10 10 9 9 9 9 9
10 10 10 9 9 10 10 10 10 10 10 10 10 10 10 9 9 9 9 9 9 9 9 9 10 10 10 10 10 10 10 10 10 10 10 10 9 9 9 9 9 9 9 9

GEFSNGP_850_meantemp_168.txt.gz
Temperature
23 25 26 26 26 26 24 22 22 22 22 22 21 21 22 22 22 22 22 22 22 22 21 21 20 20 20 20 19 19 19 18 18 18 17 17 17 17 17 16 16 16 16 16
24 25 26 26 26 26 25 25 23 23 22 21 22 22 22 22 22 22 22 22 22 22 21 21 21 20 20 19 19 19 18 18 18 18 17 17 17 16 16 16 16 16 16 16
22 23 24 24 24 25 24 24 23 22 22 21 20 21 21 22 22 22 22 22 22 22 21 21 21 20 20 19 19 18 18 18 18 17 17 17 16 16 16 16 16 15 15 15
20 23 23 22 23 24 23 22 22 21 21 21 21 22 22 22 22 22 22 22 22 22 21 21 21 20 20 19 19 18 18 18 17 17 17 16 16 16 16 15 15 15 15 15
18 21 22 23 23 23 22 21 21 21 21 21 21 21 20 21 22 22 22 22 22 22 21 21 20 20 19 19 18 18 18 17 17 17 17 16 16 16 15 15 15 15 14 14
18 21 21 21 22 23 22 20 20 20 20 20 21 19 19 21 22 22 22 22 22 21 21 20 20 19 19 18 18 18 17 17 17 16 16 16 16 15 15 15 14 14 14 14
19 20 20 21 22 22 21 19 20 20 20 20 19 19 20 21 21 21 21 21 21 21 20 20 19 19 19 18 18 17 17 17 16 16 16 16 15 15 14 14 14 14 14 14
17 19 19 20 21 19 19 20 20 20 20 20 20 20 20 20 20 20 20 20 20 20 19 19 18 18 18 18 17 17 16 16 16 16 16 15 15 14 14 14 14 14 13 13
17 17 18 20 20 20 21 20 20 20 20 20 20 19 20 20 20 20 20 19 19 19 18 18 18 18 17 17 17 16 16 16 15 15 15 15 14 14 14 13 13 13 13 13
16 17 18 19 20 21 21 21 21 21 20 20 20 19 19 19 19 19 19 18 18 18 18 17 17 17 17 17 16 16 16 15 15 15 14 14 14 13 13 13 13 13 13 12
16 16 18 19 19 20 20 20 20 20 20 20 20 19 19 18 18 18 18 18 17 17 17 17 16 16 16 16 16 16 15 15 14 14 14 14 13 13 13 13 13 12 12 12
15 16 16 18 19 19 20 20 20 19 19 19 19 18 18 18 17 17 17 17 17 16 16 16 16 16 16 15 15 15 15 14 14 14 13 13 13 12 12 12 12 12 12 12
18 18 18 18 18 19 19 19 19 19 19 18 18 18 18 17 17 17 16 16 16 16 16 15 15 15 15 15 14 14 14 14 13 13 13 13 12 12 12 12 12 11 11 11
18 18 17 17 18 18 18 18 18 18 18 18 17 17 17 16 16 16 16 15 15 15 15 15 15 14 14 14 14 14 13 13 13 13 12 12 12 12 12 12 11 11 11 10
18 18 17 17 17 17 17 17 17 17 17 17 16 16 16 16 15 15 15 15 14 14 14 14 14 14 14 13 13 13 13 13 12 12 12 12 12 12 11 11 11 11 10 10
17 17 17 17 17 17 16 16 16 16 16 16 16 16 15 15 15 15 14 14 14 14 14 13 13 13 13 13 13 12 12 12 12 12 12 12 11 11 11 11 11 10 10 10
17 16 16 16 16 16 16 16 16 15 15 15 15 15 15 15 14 14 14 14 13 13 13 13 13 13 12 12 12 12 12 12 12 12 11 11 11 11 11 10 10 10 10 9
16 16 16 16 16 15 15 15 15 15 15 15 15 14 14 14 14 14 13 13 13 13 12 12 12 12 12 12 12 12 12 11 11 11 11 11 11 10 10 10 10 10 9 9
15 15 15 15 15 15 15 15 14 14 14 14 14 14 14 13 13 13 13 12 12 12 12 12 12 12 12 12 11 11 11 11 11 11 11 10 10 10 10 10 10 9 9 9
15 15 14 14 14 14 14 14 14 14 14 13 13 13 13 13 12 12 12 12 12 12 12 11 11 11 11 11 11 11 11 11 11 11 10 10 10 10 10 10 9 9 9 9
14 14 14 14 14 13 13 13 13 13 13 13 13 12 12 12 12 11 11 11 11 11 11 11 11 11 11 11 11 11 11 11 10 10 10 10 10 10 10 10 9 9 9 9
13 13 13 13 13 13 13 13 13 13 12 12 12 12 12 11 11 11 11 11 11 11 11 11 11 11 11 11 11 10 10 10 10 10 10 10 10 10 10 9 9 9 9 9
12 12 12 12 12 12 12 12 12 12 12 11 11 11 11 11 11 11 10 10 10 10 10 10 10 10 10 10 10 10 10 10 10 10 10 10 9 9 9 9 9 9 9 9
11 11 11 11 11 11 11 11 11 11 11 11 10 10 10 10 10 10 10 10 10 10 10 10 10 10 10 10 10 10 10 10 10 10 9 9 9 9 9 9 9 9 9 9
10 10 10 11 11 11 11 10 10 10 10 10 10 10 10 10 10 10 10 10 9 9 9 9 9 9 10 9 10 10 9 9 9 9 9 9 9 9 9 9 9 9 9 9
10 10 10 10 10 10 10 10 10 10 10 9 9 9 9 9 9 9 9 9 9 9 9 9 9 9 9 9 9 9 9 9 9 9 9 9 9 9 9 9 9 9 9 8
10 10 10 10 10 10 10 10 10 9 9 9 9 9 9 9 9 9 9 9 9 9 9 9 9 9 9 9 9 9 9 9 9 9 9 9 9 9 9 8 8 8 8 8

GEFSNGP_850_meantemp_174.txt.gz
Temperature
21 22 23 23 23 21 21 19 20 20 19 20 19 19 20 21 21 21 21 22 22 21 21 20 20 20 20 19 19 18 18 18 18 17 17 17 17 17 16 16 16 16 16 16
22 22 23 23 23 22 22 21 20 21 20 19 19 20 20 20 21 21 21 21 22 21 21 20 20 20 19 19 19 18 18 18 18 17 17 17 17 16 16 16 16 16 16 15
20 22 23 22 21 21 21 20 20 21 20 18 18 18 19 20 21 21 22 22 22 21 21 20 20 20 19 19 18 18 18 18 17 17 17 17 16 16 16 16 15 15 15 15
18 21 22 20 20 21 20 19 19 19 18 18 18 19 20 20 21 21 21 22 21 21 21 21 20 20 19 18 18 18 17 17 17 17 16 16 16 16 15 15 15 15 15 14
16 19 20 21 20 20 20 19 18 18 17 18 18 19 19 20 20 21 21 21 21 21 21 20 20 19 19 18 18 17 17 17 16 16 16 16 16 15 15 15 15 14 14 14
16 19 20 20 20 20 20 20 19 18 17 18 18 18 18 20 20 21 21 21 21 21 20 20 20 19 19 18 17 17 17 17 16 16 16 16 15 15 15 14 14 14 14 14
17 19 19 19 19 20 20 19 19 18 18 18 18 18 19 20 20 20 20 20 20 20 20 19 19 19 18 18 17 17 16 16 16 16 16 15 15 15 14 14 14 14 14 13
15 18 19 18 18 18 18 18 18 18 19 19 19 19 19 20 20 20 20 19 19 19 19 19 18 18 17 17 17 17 16 16 16 15 15 15 15 14 14 14 14 13 13 13
15 16 16 16 17 18 18 18 19 19 19 20 19 19 19 19 19 19 19 19 18 18 18 18 18 17 17 17 16 16 16 15 15 15 15 14 14 14 14 13 13 13 13 12
14 15 15 16 17 18 19 19 19 19 19 19 19 19 19 19 19 19 18 18 18 18 17 17 17 17 16 16 16 16 15 15 15 15 14 14 14 13 13 13 13 13 12 12
14 15 16 17 17 18 18 19 19 19 19 19 19 18 18 18 18 18 17 17 17 17 17 16 16 16 16 16 15 15 15 15 14 14 14 14 13 13 13 12 12 12 12 12
14 15 15 16 17 18 18 18 18 18 18 18 18 18 17 17 17 17 17 17 17 16 16 16 15 16 15 15 15 15 14 14 14 14 13 13 13 12 12 12 12 12 11 11
16 16 16 17 17 17 18 18 17 18 17 17 17 17 17 16 16 16 16 16 16 15 15 15 15 15 15 15 14 14 14 14 13 13 13 13 12 12 12 12 11 11 11 11
17 17 16 16 16 17 17 17 17 17 17 17 16 16 16 16 16 15 15 15 15 15 15 15 15 15 14 14 14 14 13 13 13 13 12 12 12 12 12 11 11 11 11 10
17 17 16 16 16 16 17 17 17 16 16 16 16 16 15 15 15 15 15 15 14 14 14 14 14 14 14 13 13 13 13 12 12 12 12 12 11 11 11 11 11 10 10 10
16 16 16 16 16 16 16 16 16 16 15 15 15 15 14 14 14 14 14 14 14 14 14 13 13 13 13 13 12 12 12 12 12 11 11 11 11 11 11 11 10 10 10 9
16 15 15 15 15 15 15 15 15 15 15 15 14 14 14 14 14 14 14 13 13 13 13 13 13 13 12 12 12 12 12 12 11 11 11 11 11 11 10 10 10 10 9 9
15 15 15 15 15 15 15 14 14 14 14 14 14 14 13 13 13 13 13 13 13 13 12 12 12 12 12 12 12 11 11 11 11 11 11 10 10 10 10 10 10 9 9 9
15 15 15 15 14 14 14 14 14 14 13 13 13 13 13 13 13 13 13 12 12 12 12 12 12 12 12 12 11 11 11 11 11 10 10 10 10 10 10 10 9 9 9 9
14 14 14 14 13 13 13 13 13 13 13 13 13 12 12 12 12 12 12 12 11 11 11 11 11 11 11 11 11 11 11 10 10 10 10 10 10 10 9 9 9 9 9 8
13 13 13 13 13 13 13 12 12 12 12 12 12 12 12 12 12 11 11 11 11 11 11 11 11 11 11 10 10 10 10 10 10 10 10 10 10 9 9 9 9 9 9 8
12 12 12 12 12 12 12 12 12 12 12 11 11 11 11 11 11 11 10 10 10 10 10 10 10 10 10 10 10 10 10 10 10 9 9 9 9 9 9 9 9 9 8 8
12 12 12 11 11 11 11 11 11 11 11 11 11 11 11 11 10 10 10 10 10 10 10 10 10 10 10 10 10 10 10 10 9 9 9 9 9 9 9 9 8 8 8 8
11 11 11 11 11 11 11 11 11 11 10 10 10 10 10 10 10 10 10 10 9 9 9 9 9 9 9 9 9 9 9 9 9 9 9 9 9 9 8 8 8 8 8 8
10 10 10 10 10 10 10 10 10 10 10 10 10 10 10 10 9 9 9 9 9 9 9 9 9 9 9 9 9 9 9 9 9 9 8 8 8 8 8 8 8 8 8 8
10 10 10 10 10 10 10 10 10 10 10 10 10 9 9 9 9 9 9 9 9 9 9 9 9 9 9 9 9 9 9 9 8 8 8 8 8 8 8 8 8 8 7 7
9 9 9 9 9 10 10 10 10 10 10 9 9 9 9 9 9 9 9 9 9 9 9 9 8 8 8 8 8 8 8 8 8 8 8 8 8 8 8 8 7 7 7 7

GEFSNGP_850_meantemp_180.txt.gz
Temperature
30 30 31 30 30 30 30 31 30 30 30 30 29 28 26 25 24 24 23 22 21 21 20 20 19 19 19 18 18 18 17 17 17 17 17 17 17 17 17 16 16 16 16 16
29 29 30 30 30 30 30 30 30 30 30 30 28 27 25 25 24 23 23 22 21 20 20 19 19 19 18 18 18 17 17 17 17 17 17 17 16 16 16 16 16 16 15 15
28 29 29 28 29 30 30 30 30 30 29 28 27 26 25 24 24 23 22 22 21 20 20 19 19 19 18 18 18 17 17 17 16 16 16 16 16 16 16 16 15 15 15 15
28 27 27 29 29 29 29 29 29 29 28 27 26 24 23 23 23 22 22 21 21 20 20 19 19 19 18 18 18 17 17 17 16 16 16 16 16 16 16 15 15 15 15 14
28 27 28 27 27 28 28 28 28 28 27 26 25 24 24 22 21 21 21 20 20 20 19 19 19 18 18 18 17 17 17 17 16 16 16 16 16 15 15 15 15 14 14 14
27 27 27 28 28 27 28 27 27 26 26 25 25 27 25 21 20 20 20 20 19 19 19 18 18 18 18 18 17 17 17 16 16 16 16 15 15 15 15 15 14 14 14 14
27 27 28 27 26 26 27 27 25 25 24 24 24 24 21 19 19 19 19 19 18 18 18 18 18 18 17 17 17 17 16 16 16 16 15 15 15 15 14 14 14 14 13 13
27 27 27 25 25 27 25 23 23 23 23 22 21 20 19 19 18 18 18 18 18 18 18 17 17 17 17 17 16 16 16 16 15 15 15 15 14 14 14 14 13 13 13 13
26 25 22 22 23 22 22 22 22 22 21 21 20 19 19 18 18 18 17 17 17 17 17 17 17 17 16 16 16 16 15 15 15 15 15 14 14 14 14 13 13 13 13 12
23 22 21 21 21 21 21 21 21 21 20 20 19 19 18 17 17 17 17 17 17 16 16 16 16 16 16 16 16 16 15 15 15 14 14 14 13 13 13 13 13 12 12 12
22 21 21 20 20 20 20 20 20 20 20 19 19 18 17 17 16 16 16 16 16 15 15 15 15 15 15 15 15 15 15 14 14 14 14 14 13 13 13 12 12 12 12 12
23 21 22 20 19 19 19 19 19 19 19 18 18 17 17 16 16 16 16 15 15 15 15 15 15 15 15 15 15 15 14 14 14 13 13 13 13 13 13 12 12 12 12 12
19 19 19 18 18 18 18 18 18 18 17 17 17 17 16 16 15 15 15 15 15 14 14 14 14 14 14 14 14 14 14 14 13 13 13 13 12 12 12 12 12 11 11 11
17 18 18 18 17 17 17 17 17 17 16 16 16 16 16 15 15 15 15 14 14 14 14 13 14 14 14 14 13 13 13 13 13 12 12 12 12 12 12 11 11 11 11 11
17 18 17 17 16 16 16 16 16 16 16 15 15 15 15 15 14 14 14 13 13 13 13 13 13 13 13 13 13 13 13 12 12 12 12 12 11 11 11 11 11 10 10 10
17 17 17 16 16 16 16 16 16 15 15 15 15 14 14 14 14 13 13 13 13 13 13 13 13 13 13 13 12 12 12 12 12 12 11 11 11 11 11 10 10 10 10 9
17 17 16 16 16 16 16 15 15 15 14 14 14 13 13 13 13 13 13 13 13 12 12 12 12 12 12 12 12 12 12 11 11 11 11 11 11 10 10 10 10 10 9 9
16 16 16 16 16 15 15 15 15 14 14 14 13 13 13 13 13 13 13 12 12 12 12 12 12 12 12 12 11 11 11 11 11 11 10 10 10 10 10 10 10 9 9 9
15 15 15 15 15 15 14 14 13 13 13 13 13 12 12 12 12 12 12 12 12 11 11 11 12 11 11 11 11 11 11 11 10 10 10 10 10 10 10 10 9 9 9 9
14 14 14 14 14 14 13 13 13 13 12 12 12 12 12 11 11 11 11 11 11 11 11 11 11 11 11 11 11 11 11 11 10 10 10 10 10 10 10 10 9 9 9 9
13 13 13 13 13 13 13 12 12 12 12 11 11 11 11 11 11 11 11 11 11 11 11 11 10 10 10 10 11 11 10 10 10 10 10 10 10 10 10 9 9 9 9 9
13 13 13 13 12 12 12 12 11 11 11 11 11 11 11 11 10 10 10 10 10 10 10 10 10 10 10 10 10 10 10 10 10 10 10 10 10 9 9 9 9 9 8 8
12 12 12 11 11 11 11 11 11 11 11 11 10 10 10 10 10 10 10 10 10 10 10 10 10 10 10 10 10 10 10 10 10 10 9 9 9 9 9 9 8 8 8 8
11 11 11 11 11 11 11 11 10 10 10 10 10 10 10 10 10 10 10 9 10 9 9 9 10 10 9 10 10 9 9 9 9 9 9 9 9 9 9 8 8 8 8 8
10 10 10 10 10 10 10 10 10 10 10 10 10 10 10 10 10 10 9 9 9 9 9 9 9 9 9 9 9 9 9 9 9 9 9 9 9 9 8 8 8 8 8 7
10 10 10 10 10 10 10 10 10 10 10 10 10 10 10 9 9 9 9 9 9 9 9 9 9 9 9 9 9 9 9 9 9 8 9 8 8 8 8 8 7 7 7 7
9 10 10 10 10 10 10 10 10 10 10 10 9 9 9 9 9 9 9 9 9 9 9 9 9 9 9 9 9 9 9 8 8 8 8 8 8 8 7 7 7 7 7 7

GEFSNGP_850_meantemp_186.txt.gz
Temperature
31 33 33 33 33 33 33 32 32 31 31 30 30 30 29 29 28 27 26 25 24 23 22 22 21 20 20 19 19 19 18 18 18 18 18 18 17 17 17 17 16 16 16 16
30 32 33 33 33 33 33 33 32 32 31 32 31 30 29 28 27 27 26 25 24 23 22 21 21 20 19 19 19 18 18 18 18 17 17 17 17 17 17 17 16 16 16 16
29 31 31 31 32 33 33 33 33 31 31 31 30 29 28 27 27 26 25 24 24 23 22 21 20 20 19 19 19 18 18 17 17 17 17 17 17 17 17 16 16 16 16 16
29 29 28 31 34 34 33 33 33 32 31 31 29 28 27 26 26 25 24 24 23 22 21 21 20 19 19 19 18 18 18 17 17 17 17 17 16 16 16 16 16 16 15 15
28 28 29 31 32 33 32 31 32 32 31 30 28 27 26 25 25 24 23 23 22 22 21 20 20 19 19 18 18 18 17 17 17 17 17 16 16 16 16 15 15 15 15 15
28 27 28 30 32 33 32 30 31 30 30 29 28 27 25 24 23 23 22 22 22 21 21 20 19 19 18 18 17 17 17 17 17 16 16 16 16 16 15 15 15 14 14 14
27 27 28 30 31 32 29 28 29 29 28 28 27 25 24 23 22 22 21 21 21 20 20 19 19 18 18 18 17 17 17 16 16 16 16 16 15 15 15 15 15 14 14 14
27 27 27 30 30 29 27 28 28 27 26 25 24 23 22 22 21 21 20 20 20 19 19 19 18 18 18 17 17 17 16 16 16 16 16 15 15 15 15 15 14 14 14 13
27 27 26 27 27 27 27 26 26 26 25 24 23 22 22 21 20 20 20 19 19 18 18 18 17 17 17 17 16 16 16 16 16 16 15 15 15 15 15 14 14 14 13 13
26 26 26 26 26 26 26 25 25 24 24 23 22 21 21 20 20 19 19 18 18 18 17 17 17 16 16 16 16 16 16 16 16 15 15 15 15 14 14 14 14 13 13 13
25 25 25 25 25 25 24 24 24 23 23 22 22 21 20 19 19 18 18 18 17 17 17 16 16 16 16 16 16 15 15 15 15 15 15 14 14 14 14 13 13 13 13 13
24 23 24 23 24 24 23 23 23 22 22 21 21 20 19 19 18 18 17 17 17 16 16 16 16 15 15 15 15 15 15 15 15 14 14 14 14 13 13 13 13 13 13 13
23 23 23 22 22 22 22 22 21 21 21 20 19 19 19 18 18 17 17 16 16 16 16 15 15 15 15 14 14 14 14 14 14 14 14 13 13 13 13 13 13 12 12 12
22 22 22 21 21 21 21 20 20 20 19 19 18 18 18 17 17 16 16 16 16 15 15 15 15 14 14 14 14 14 14 14 14 13 13 13 13 13 12 12 12 12 12 11
21 21 21 20 20 20 20 19 19 19 18 18 18 17 17 16 16 15 15 15 15 15 15 14 14 14 14 14 14 14 13 13 13 13 13 12 12 12 12 12 12 11 11 11
20 20 20 19 19 19 19 19 18 18 18 17 17 16 16 16 15 15 15 15 14 14 14 14 14 14 13 13 13 13 13 13 13 13 13 12 12 12 12 12 11 11 11 11
19 19 19 19 19 19 19 18 18 17 17 16 16 15 15 15 15 14 14 14 14 14 13 13 13 13 13 13 13 13 13 13 13 13 12 12 12 12 12 11 11 11 10 10
19 18 18 18 18 18 18 18 17 17 16 16 15 15 15 14 14 14 13 13 13 13 13 13 13 13 12 12 12 12 12 12 12 12 12 12 12 12 11 11 11 11 10 10
18 18 18 18 18 17 17 16 16 16 15 15 15 14 14 13 13 13 13 13 12 12 12 12 12 12 12 12 12 12 12 12 12 12 12 12 11 11 11 11 11 10 10 10
17 17 17 17 17 16 16 16 15 15 14 14 14 13 13 13 13 13 12 12 12 12 12 12 12 11 11 12 12 12 12 12 12 12 12 11 11 11 11 11 10 10 10 10
16 16 16 16 16 15 15 15 14 14 14 13 13 13 12 12 12 12 12 12 12 12 11 11 11 11 11 11 12 12 12 12 12 11 11 11 11 11 11 10 10 10 10 10
16 15 15 15 15 15 14 14 14 13 13 13 12 12 12 12 12 12 12 11 11 11 11 11 11 11 11 11 11 11 11 11 11 11 11 11 11 10 10 10 10 10 9 9
14 14 14 14 14 14 13 13 13 13 12 12 12 12 12 12 11 11 11 11 11 11 11 11 11 11 11 11 11 11 11 11 11 11 11 10 10 10 10 10 10 9 9 9
13 13 13 13 13 13 13 13 12 12 12 12 12 11 11 11 11 11 11 11 11 11 10 10 10 11 11 11 11 11 11 11 10 10 10 10 10 10 10 9 9 9 9 8
13 13 13 13 13 13 12 12 12 12 12 12 12 11 11 11 11 11 11 11 10 10 10 10 10 10 10 10 10 10 10 10 10 10 10 10 10 9 9 9 9 8 8 8
12 12 12 12 12 12 12 12 12 12 12 12 11 11 11 11 11 11 11 10 10 10 10 10 10 10 10 10 10 10 10 10 10 10 10 10 9 9 9 9 8 8 8 8
12 12 12 12 12 12 12 12 12 12 12 12 11 11 11 11 11 10 10 10 10 10 10 10 10 10 10 10 10 10 10 10 9 9 9 9 9 9 8 8 8 8 7 7

GEFSNGP_850_meantemp_192.txt.gz
Temperature
24 25 26 27 27 27 25 23 23 23 23 23 22 23 23 23 24 23 23 22 22 22 22 21 21 20 20 19 19 19 18 18 18 18 17 17 17 17 17 16 16 16 16 16
24 25 26 27 27 27 26 26 24 24 23 23 23 23 23 23 23 22 22 22 22 22 22 21 21 20 20 19 19 19 18 18 18 17 17 17 17 17 16 16 16 16 16 16
21 23 25 25 26 27 26 26 25 24 23 22 22 22 22 23 23 23 22 22 22 22 22 21 21 20 20 19 19 18 18 18 17 17 17 17 17 16 16 16 16 16 16 15
20 22 24 23 24 26 26 25 24 24 23 22 22 23 23 24 23 23 23 22 22 22 22 21 21 20 20 19 19 18 18 17 17 17 17 16 16 16 16 16 15 15 15 15
18 21 22 24 25 25 24 23 23 23 22 22 22 22 22 23 23 23 22 22 22 22 21 21 20 20 19 19 18 18 17 17 17 17 16 16 16 16 16 15 15 15 15 15
18 21 22 22 24 26 24 22 23 22 21 21 22 20 20 22 23 22 22 22 21 21 21 20 20 19 19 18 18 18 17 17 17 16 16 16 16 16 15 15 15 14 14 14
19 20 21 22 24 25 23 21 22 23 22 22 21 22 22 22 22 22 21 21 21 21 20 20 19 19 18 18 18 17 17 17 16 16 16 16 15 15 15 15 14 14 14 14
17 19 20 22 23 22 21 22 23 22 22 22 22 21 21 21 21 21 21 20 20 20 20 19 19 18 18 18 17 17 17 16 16 16 15 15 15 15 15 14 14 14 14 13
17 18 19 21 22 23 23 22 22 22 22 22 21 20 20 20 20 20 20 20 19 19 19 18 18 18 18 17 17 17 16 16 16 15 15 15 15 15 14 14 14 14 13 13
17 18 19 21 22 22 23 23 23 22 22 21 20 20 19 19 19 19 19 19 19 19 18 18 18 17 17 17 16 16 16 16 15 15 15 14 14 14 14 14 14 13 13 13
16 17 19 20 21 21 22 22 21 21 21 21 20 20 19 19 19 19 18 18 18 18 18 17 17 17 16 16 16 16 15 15 15 14 14 14 14 14 13 13 13 13 13 13
16 17 17 18 20 21 21 20 20 20 20 20 20 19 19 19 18 18 18 18 17 17 17 16 16 16 16 15 15 15 15 15 14 14 14 14 13 13 13 13 13 12 12 12
18 19 19 19 19 20 20 20 20 20 20 19 19 19 19 18 18 18 17 17 17 16 16 16 15 15 15 15 15 14 14 14 14 14 14 13 13 13 13 12 12 12 12 12
18 18 18 18 19 19 19 19 19 19 19 19 18 18 18 18 17 17 17 16 16 16 15 15 15 15 14 14 14 14 14 14 13 13 13 13 13 12 12 12 12 12 11 11
18 18 18 18 18 18 18 18 18 18 18 18 18 17 17 17 17 16 16 16 15 15 15 15 14 14 14 14 14 14 13 13 13 13 13 12 12 12 12 12 11 11 11 11
17 17 17 17 17 17 17 18 17 17 17 17 17 17 17 16 16 16 15 15 15 15 14 14 14 14 14 13 13 13 13 13 13 12 12 12 12 12 11 11 11 11 11 10
17 16 17 17 17 17 17 17 17 16 16 16 16 16 16 16 15 15 15 14 14 14 14 14 13 13 13 13 13 13 13 12 12 12 12 12 12 11 11 11 11 10 10 10
17 17 17 17 17 16 16 16 16 16 16 16 16 16 15 15 15 14 14 14 13 13 13 13 13 13 12 12 12 12 12 12 12 12 12 11 11 11 11 11 10 10 10 10
16 16 16 16 16 16 15 15 15 15 15 15 15 15 15 14 14 14 13 13 13 13 12 12 12 12 12 12 12 12 12 12 11 11 11 11 11 11 11 10 10 10 10 10
16 16 16 15 15 15 15 15 15 15 15 15 14 14 14 13 13 13 13 13 12 12 12 12 12 12 12 11 11 11 11 11 11 11 11 11 11 11 10 10 10 10 10 9
15 15 15 15 15 15 15 15 14 14 14 14 14 14 13 13 13 12 12 12 12 12 12 11 11 11 11 11 11 11 11 11 11 11 11 11 10 10 10 10 10 10 9 9
15 15 15 15 15 14 14 14 14 14 14 13 13 13 12 12 12 12 12 12 12 11 11 11 11 11 11 11 11 11 11 11 11 11 11 10 10 10 10 10 9 9 9 9
14 14 14 14 14 14 14 14 13 13 13 13 13 12 12 12 12 12 12 11 11 11 11 11 11 11 11 11 11 11 11 11 11 10 10 10 10 10 10 9 9 9 9 9
14 14 14 14 14 14 13 13 13 13 13 12 12 12 12 12 12 11 11 11 11 11 11 10 10 10 10 10 10 10 10 10 10 10 10 10 10 9 9 9 9 9 8 8
13 13 13 13 13 13 13 13 12 12 12 12 12 12 12 12 11 11 11 11 11 11 10 10 10 10 10 10 10 10 10 10 10 10 10 10 9 9 9 9 9 8 8 8
13 13 13 13 13 12 12 12 12 12 12 12 12 11 11 11 11 11 11 11 11 10 10 10 10 10 10 10 10 10 10 10 10 10 9 9 9 9 9 8 8 8 8 8
12 12 12 12 12 12 12 12 12 12 12 12 11 11 11 11 11 11 11 11 10 10 10 10 10 10 10 10 10 10 10 10 10 9 9 9 9 9 8 8 8 8 8 7

GEFSNGP_850_meantemp_198.txt.gz
Temperature
21 21 22 23 23 21 21 20 20 21 20 21 20 20 21 21 21 21 22 22 22 22 21 21 21 20 20 19 19 18 18 18 18 17 17 17 17 17 16 16 16 16 16 15
21 22 22 23 22 22 22 21 21 21 21 20 20 21 21 21 21 21 21 22 22 21 21 21 20 20 20 19 19 19 18 18 18 17 17 17 17 16 16 16 16 15 15 15
19 20 22 22 22 22 22 21 21 21 21 20 19 19 20 21 21 21 22 22 22 22 21 21 20 20 20 19 19 18 18 18 17 17 17 17 16 16 16 16 15 15 15 15
17 21 22 21 21 21 21 21 20 20 20 19 20 21 22 22 22 22 22 22 22 22 21 21 20 20 19 19 19 18 18 18 17 17 16 16 16 16 15 15 15 15 15 15
16 18 20 21 21 21 21 21 20 19 19 19 19 20 20 21 22 22 22 22 22 22 21 21 20 20 19 19 18 18 18 17 17 17 16 16 16 15 15 15 15 14 14 14
15 19 19 20 21 21 21 21 20 19 18 18 19 19 19 21 21 22 21 21 21 21 21 20 20 19 19 19 18 18 18 17 17 16 16 16 15 15 15 15 14 14 14 14
16 18 18 19 20 21 21 20 20 19 19 18 19 20 21 21 21 21 21 21 20 20 20 20 20 19 19 18 18 18 17 17 16 16 16 15 15 15 14 14 14 14 13 13
14 17 18 19 19 19 19 20 20 19 19 19 20 20 20 20 20 20 20 20 20 20 20 20 19 19 18 18 17 17 17 16 16 16 15 15 15 14 14 14 14 13 13 13
15 16 17 18 18 20 19 19 20 19 19 20 19 19 20 20 20 20 20 20 19 19 19 19 18 18 18 17 17 16 16 16 16 15 15 15 14 14 14 13 13 13 13 13
14 15 16 17 18 19 20 19 20 20 20 20 20 20 20 19 19 19 19 19 19 19 18 18 17 17 17 17 16 16 16 15 15 15 14 14 14 14 13 13 13 13 13 12
14 14 16 17 18 19 19 19 19 19 19 19 19 19 19 19 19 19 19 19 18 18 18 17 17 17 16 16 16 16 15 15 15 14 14 14 13 13 13 13 12 12 12 12
14 15 14 16 18 18 18 18 19 19 18 19 19 19 19 19 18 18 18 18 18 17 17 17 16 16 16 16 15 15 15 14 14 14 14 13 13 13 12 12 12 12 12 12
16 16 16 17 17 17 17 18 18 18 19 18 19 18 18 18 18 17 17 17 17 17 16 16 16 16 15 15 15 15 14 14 14 13 13 13 13 12 12 12 11 11 11 11
16 16 15 16 16 17 17 17 17 17 17 18 18 17 17 17 17 16 16 16 16 16 16 15 15 15 15 14 14 14 14 14 13 13 13 12 12 12 12 12 11 11 11 11
16 16 15 16 16 16 17 17 17 17 17 16 16 16 16 16 16 16 16 16 15 15 15 15 14 14 14 14 14 14 13 13 13 13 12 12 12 12 11 11 11 11 10 10
15 15 15 15 15 16 16 16 16 16 16 16 16 16 16 16 15 15 15 15 15 15 14 14 14 14 14 13 13 13 13 12 12 12 12 12 12 11 11 11 10 10 10 10
15 14 15 15 15 15 16 16 16 16 15 15 15 15 15 15 15 14 14 14 14 14 14 14 13 13 13 13 13 12 12 12 12 12 12 11 11 11 11 10 10 10 10 9
16 16 15 15 15 15 15 15 15 15 15 15 15 15 15 14 14 14 14 13 13 13 13 13 13 13 12 12 12 12 12 12 12 11 11 11 11 11 10 10 10 10 9 9
15 15 15 15 15 15 15 15 15 15 15 15 15 14 14 14 13 13 13 13 13 13 12 12 12 12 12 12 12 12 12 11 11 11 11 11 11 10 10 10 10 10 9 9
15 15 15 15 15 15 15 15 15 14 14 14 14 14 14 13 13 13 13 12 12 12 12 12 12 12 11 11 11 11 11 11 11 11 11 11 10 10 10 10 9 9 9 9
14 15 14 14 14 14 14 14 14 14 14 14 14 13 13 13 13 13 12 12 12 12 12 12 11 11 11 11 11 11 11 11 11 10 10 10 10 10 10 9 9 9 9 8
14 14 14 14 14 14 14 14 14 14 13 13 13 13 13 13 12 12 12 12 12 11 11 11 11 11 11 11 11 11 10 10 10 10 10 10 10 10 9 9 9 9 8 8
13 14 14 13 13 13 13 13 13 13 13 13 13 13 12 12 12 12 12 11 11 11 11 11 11 11 11 11 11 10 10 10 10 10 10 10 10 9 9 9 9 9 8 8
13 13 13 13 13 13 13 13 13 12 12 12 12 12 12 12 12 11 11 11 11 11 11 11 11 10 10 10 10 10 10 10 10 10 10 10 9 9 9 9 9 8 8 8
13 13 13 13 13 13 12 12 12 12 12 12 12 12 12 12 11 11 11 11 11 11 11 11 10 10 10 10 10 10 10 10 10 10 10 9 9 9 9 9 8 8 8 8
12 12 12 12 12 12 12 12 12 12 12 12 11 11 11 11 11 11 11 11 11 10 10 10 10 10 10 10 10 10 10 10 10 10 9 9 9 9 9 9 8 8 8 8
12 12 12 12 12 12 12 12 12 11 11 11 11 11 11 11 11 11 11 10 10 10 10 10 10 10 10 10 10 10 10 10 9 9 9 9 9 9 9 8 8 8 8 7

GEFSNGP_850_meantemp_204.txt.gz
Temperature
29 30 30 30 30 30 30 30 31 31 31 30 30 29 27 26 25 25 24 23 22 22 21 20 20 19 19 19 19 18 18 17 17 17 17 17 16 16 16 16 16 16 15 15
28 29 29 29 30 29 29 30 30 30 30 30 29 28 27 26 25 24 23 23 22 21 20 20 19 19 19 19 19 18 18 18 17 17 17 17 16 16 16 16 16 15 15 15
28 28 28 28 29 29 29 30 30 29 30 29 28 27 26 25 24 23 23 22 21 20 20 19 19 19 19 19 18 18 18 17 17 17 17 16 16 16 16 16 15 15 15 15
28 27 26 28 29 29 29 29 29 28 28 28 27 26 25 24 23 23 22 21 21 20 20 19 19 19 19 19 18 18 17 17 17 17 16 16 16 16 15 15 15 15 15 14
27 27 27 27 28 28 28 28 28 28 27 26 25 25 25 23 22 22 21 20 20 20 19 19 19 19 19 18 18 18 17 17 17 17 16 16 16 15 15 15 15 15 14 14
26 26 26 27 28 27 27 27 27 26 26 25 25 27 26 22 21 21 20 20 20 19 19 19 19 19 18 18 18 18 17 17 17 16 16 15 15 15 15 15 15 14 14 14
25 25 27 27 26 26 26 26 25 25 24 24 24 24 22 20 20 19 19 19 19 19 18 19 18 18 18 18 18 17 17 16 16 16 16 15 15 15 15 15 14 14 13 13
25 25 26 25 26 26 25 23 23 23 23 22 22 21 20 19 19 19 19 18 18 18 18 18 18 18 18 17 17 16 16 16 16 16 15 15 15 15 14 14 14 13 13 13
25 25 23 23 23 22 22 22 22 22 21 21 20 19 19 18 18 18 18 18 18 18 18 18 18 17 17 17 17 16 16 16 16 15 15 15 14 14 14 14 13 13 13 13
23 23 22 22 21 21 21 21 21 20 20 20 19 19 18 18 18 18 18 18 17 17 17 17 17 17 17 17 16 16 16 15 15 15 15 14 14 14 14 13 13 13 13 12
22 22 21 21 20 20 19 20 20 19 19 19 19 18 18 17 17 17 17 17 17 17 17 16 16 16 16 16 16 15 15 15 15 14 14 14 14 14 13 13 13 12 12 12
22 21 21 20 19 19 19 19 19 19 19 18 18 18 17 17 17 17 17 16 16 16 16 16 16 16 16 16 15 15 15 14 14 14 14 13 13 13 13 13 12 12 12 11
19 19 19 18 18 18 18 18 18 18 18 17 17 17 16 16 16 16 16 16 16 16 16 16 15 15 15 15 15 15 15 14 14 14 14 13 13 13 12 12 12 11 11 11
17 17 18 17 17 17 17 17 17 17 17 16 16 16 16 16 16 16 16 16 16 16 15 15 15 15 15 15 14 14 14 14 14 14 13 13 13 12 12 12 11 11 11 11
16 16 17 16 16 16 16 16 16 16 16 16 16 15 15 15 15 15 15 15 15 15 15 15 14 14 14 14 14 14 14 13 13 13 13 13 12 12 12 11 11 11 11 10
15 16 16 16 16 15 16 16 15 15 15 15 15 15 15 15 15 14 14 14 14 15 14 14 14 14 14 13 13 13 13 13 13 13 13 12 12 12 12 11 11 11 10 10
15 16 16 15 15 15 15 15 15 15 15 15 15 15 14 14 14 14 14 14 14 14 14 13 13 13 13 13 13 13 13 13 13 12 12 12 12 12 11 11 11 10 10 10
15 15 15 15 15 15 15 15 14 14 14 14 14 14 14 14 14 14 13 13 13 13 13 13 13 13 13 13 13 13 13 13 12 12 12 11 11 11 11 11 11 10 10 10
15 15 15 14 14 14 14 14 14 14 14 14 14 13 13 14 13 13 13 13 13 13 13 13 13 12 12 13 12 12 12 12 12 12 11 11 11 11 11 11 10 10 10 10
14 14 14 14 14 14 14 14 14 13 14 14 13 13 13 13 13 13 12 12 13 13 13 12 12 12 12 12 12 12 12 12 12 11 11 11 11 11 11 11 10 10 10 10
14 14 14 14 14 14 14 14 14 13 13 13 13 13 13 12 12 12 12 12 12 12 12 12 12 12 12 12 12 12 12 12 11 11 11 11 11 11 11 10 10 10 10 9
13 13 13 13 13 13 13 13 13 13 13 12 12 12 12 12 12 12 12 12 12 12 12 12 12 12 12 11 12 12 12 11 11 11 11 11 11 10 10 10 10 10 10 9
12 13 13 13 13 13 13 12 12 12 12 12 12 12 12 12 12 12 12 11 11 11 11 11 11 11 11 11 11 11 11 11 11 11 11 11 10 10 10 10 10 10 9 9
12 12 12 12 12 12 12 12 12 12 12 12 12 12 12 12 11 12 11 11 11 11 11 11 11 11 11 11 11 11 11 11 11 11 11 10 10 10 10 10 10 10 9 9
12 12 12 12 12 12 12 12 12 12 12 11 11 11 11 11 11 11 11 11 11 11 11 11 11 11 11 11 11 11 11 10 10 10 10 10 10 10 10 10 10 9 9 9
12 12 12 12 12 12 12 12 12 12 12 12 11 11 11 11 11 11 11 10 10 10 10 10 10 10 10 10 10 10 10 10 10 10 10 10 10 10 10 10 9 9 9 9
11 11 11 11 12 12 12 12 12 12 12 11 11 11 11 11 11 11 10 10 10 10 10 10 10 10 10 10 10 10 10 10 10 10 10 10 9 9 9 9 9 9 8 8

GEFSNGP_850_meantemp_210.txt.gz
Temperature
31 32 33 32 32 32 32 32 31 31 30 29 29 28 28 28 27 27 26 26 25 24 23 23 22 21 21 20 20 19 19 19 18 18 18 18 17 17 17 17 17 16 16 16
30 32 32 32 32 32 32 32 32 31 30 30 29 28 27 27 27 27 26 25 25 24 23 22 21 21 20 20 20 19 19 18 18 18 18 17 17 17 17 17 16 16 16 16
29 31 31 30 31 31 31 32 32 30 30 30 29 28 27 27 27 26 26 25 24 23 22 22 21 21 20 20 19 19 19 18 18 18 17 17 17 17 16 16 16 16 16 16
28 28 28 30 32 32 32 31 31 31 30 30 29 28 27 26 26 25 25 24 23 23 22 21 21 20 20 19 19 19 18 18 18 17 17 17 17 16 16 16 16 16 15 15
27 28 28 30 31 32 31 30 30 30 30 30 29 28 27 25 25 24 23 23 22 22 22 21 20 20 20 19 18 18 18 18 17 17 17 17 16 16 16 16 15 15 15 15
27 26 27 28 30 31 30 28 29 29 29 29 29 28 26 25 24 23 23 22 22 22 21 20 20 19 19 19 18 18 18 18 17 17 17 16 16 16 16 16 15 15 15 15
26 26 27 29 30 30 28 26 28 28 28 27 27 26 24 24 23 22 22 21 21 21 20 20 19 19 19 18 18 18 17 17 17 17 16 16 16 16 15 15 15 15 14 14
26 26 26 28 28 27 25 26 26 26 26 26 25 24 23 23 22 21 21 21 20 20 20 19 19 19 18 18 18 17 17 17 17 16 16 16 15 15 15 15 15 14 14 14
26 26 25 26 26 25 25 25 25 25 25 24 24 23 22 21 21 21 20 20 20 19 19 19 19 18 18 18 17 17 17 16 16 16 15 15 15 15 15 15 14 14 14 13
25 25 25 25 25 25 24 24 24 24 24 24 23 22 21 21 20 20 20 19 19 19 18 18 18 18 18 17 17 17 16 16 16 15 15 15 15 14 14 14 14 14 14 13
24 25 25 25 24 24 24 24 24 23 23 23 22 21 21 20 20 19 19 19 19 18 18 18 18 18 17 17 17 16 16 16 15 15 15 15 15 14 14 14 14 14 14 13
23 24 24 23 23 23 23 23 23 23 22 22 21 20 20 19 19 19 18 18 18 17 17 17 17 17 17 17 16 16 15 15 15 15 15 14 14 14 14 14 14 13 13 13
22 22 22 22 22 22 22 22 22 21 21 20 20 19 19 18 18 18 17 17 17 17 16 16 16 16 16 16 16 16 15 15 15 15 15 14 14 14 14 14 13 13 13 13
20 21 21 21 21 21 21 21 21 20 20 19 19 18 18 18 17 17 17 17 16 16 16 16 16 16 16 15 15 15 15 15 15 15 15 14 14 14 14 13 13 13 12 12
20 20 20 20 20 20 20 20 20 19 19 19 18 18 17 17 17 16 16 16 16 16 15 15 15 15 15 15 15 15 15 15 15 15 15 14 14 14 13 13 13 12 12 12
19 19 19 19 19 19 19 19 19 18 18 18 17 17 17 16 16 16 15 15 15 15 15 15 15 15 14 14 15 14 15 15 15 14 14 14 14 14 13 13 13 12 12 12
18 18 18 18 18 17 18 18 18 17 17 17 16 16 16 16 15 15 15 15 15 15 15 15 14 14 14 14 14 14 14 14 14 14 14 14 14 13 13 13 13 12 12 12
17 17 17 17 17 17 17 17 17 16 16 16 16 15 15 15 15 14 14 14 14 14 14 14 14 14 14 14 14 14 14 14 14 14 14 14 13 13 13 13 12 12 12 11
17 17 17 17 16 16 16 16 16 16 16 15 15 15 15 14 14 14 14 14 14 14 14 14 14 13 13 14 14 14 14 14 14 14 13 13 13 13 13 12 12 12 12 11
16 16 16 16 16 16 16 16 15 15 15 15 15 14 14 14 14 14 14 13 13 13 13 13 13 13 13 13 14 14 14 14 13 13 13 13 13 13 13 12 12 12 12 11
16 16 16 16 16 16 16 15 15 15 14 14 14 14 14 14 13 13 13 13 13 13 13 13 13 13 13 13 13 13 14 14 13 13 13 13 13 13 12 12 12 12 11 11
15 15 15 15 15 15 15 15 14 14 14 14 14 14 14 13 13 13 13 13 13 13 13 13 13 13 13 13 13 13 13 13 13 13 13 13 13 12 12 12 12 11 11 11
15 15 15 15 15 14 14 14 14 14 14 14 14 14 13 13 13 13 13 13 13 13 13 13 13 13 13 13 13 13 13 13 13 13 13 13 12 12 12 12 12 11 11 11
14 14 14 14 14 14 14 14 14 14 14 13 13 13 13 13 13 13 13 13 12 12 12 12 12 12 12 12 12 12 12 12 12 12 12 12 12 12 12 12 11 11 11 11
14 14 14 14 14 14 13 13 13 13 13 13 13 13 13 13 13 13 13 12 12 12 12 12 12 12 12 12 12 12 12 12 12 12 12 12 12 12 12 11 11 11 11 11
14 14 13 13 13 13 13 13 13 13 13 13 13 13 13 13 13 13 12 12 12 12 12 12 12 12 12 12 12 12 12 12 12 12 12 12 12 11 11 11 11 11 10 10
13 13 13 13 13 13 13 13 13 13 13 13 13 13 13 13 12 12 12 12 12 12 12 12 12 12 12 12 12 12 12 12 11 11 11 11 11 11 11 10 10 10 10 10

GEFSNGP_850_meantemp_216.txt.gz
Temperature
24 25 26 26 26 26 25 23 22 22 22 22 22 21 22 22 22 22 22 22 22 22 21 21 21 21 21 20 20 20 19 19 19 18 18 17 17 17 17 17 17 17 16 16
24 25 25 26 26 26 25 25 24 23 22 22 22 22 22 22 22 22 22 22 22 22 21 21 21 21 21 20 20 19 19 19 18 18 17 17 17 17 17 16 16 16 16 16
21 23 24 24 24 25 24 24 24 23 22 21 21 21 21 21 22 22 22 22 22 22 22 22 21 21 21 20 20 19 19 19 18 18 17 17 17 17 16 16 16 16 16 16
20 22 23 22 23 25 24 23 22 22 22 21 21 21 22 22 22 22 22 22 22 22 22 22 21 21 20 20 19 19 18 18 18 17 17 17 17 16 16 16 16 16 16 15
18 20 21 23 24 24 23 21 22 21 21 21 22 21 21 21 22 22 22 22 22 22 22 22 21 20 20 19 19 19 18 18 17 17 17 17 16 16 16 16 15 15 15 15
18 21 21 21 23 24 23 20 21 21 21 21 21 19 19 21 21 21 21 21 21 21 21 21 20 20 19 19 19 18 18 17 17 17 16 16 16 16 16 15 15 15 15 15
18 19 20 21 23 23 21 20 21 21 21 21 20 20 21 21 21 21 21 21 21 21 21 20 20 19 19 19 18 18 18 17 17 16 16 16 16 16 15 15 15 14 14 14
17 18 19 21 21 20 19 21 21 21 21 21 21 21 21 21 21 21 20 20 20 20 20 19 19 19 19 18 18 18 17 17 16 16 16 16 15 15 15 15 14 14 14 14
16 17 18 20 20 21 21 21 21 21 21 22 21 21 21 20 21 20 20 20 20 20 19 19 18 18 18 18 18 17 17 17 16 16 16 15 15 15 14 14 14 14 14 14
16 17 18 20 20 21 21 20 21 21 21 21 21 21 20 20 20 20 20 19 19 19 19 18 18 18 18 18 17 17 16 16 16 16 16 15 15 15 14 14 14 14 14 13
15 16 18 19 20 20 20 20 20 20 21 21 21 20 20 19 19 19 19 19 18 18 18 18 18 18 17 17 17 16 16 16 16 15 15 15 15 14 14 14 14 14 14 14
15 16 16 18 19 19 19 19 20 20 20 20 20 20 19 19 19 19 19 18 18 18 18 17 17 17 17 17 16 16 16 16 15 15 15 15 14 14 14 14 14 13 13 13
18 18 18 18 18 19 19 19 19 19 19 19 19 19 19 18 18 18 18 18 18 17 17 17 17 17 16 16 16 16 15 15 15 15 15 14 14 14 14 14 13 13 13 13
18 18 17 17 17 18 18 18 18 18 19 18 18 18 18 17 17 17 17 17 17 17 16 16 16 16 16 16 16 15 15 15 15 15 14 14 14 14 14 14 13 13 13 13
17 18 17 17 17 17 17 17 17 17 17 17 17 17 17 17 17 16 16 16 16 16 16 15 15 15 15 15 15 15 15 15 14 14 14 14 14 14 14 13 13 13 13 13
17 17 16 16 17 17 17 17 16 16 16 16 16 16 16 16 16 16 15 15 15 15 15 15 15 15 14 14 14 14 14 14 14 14 14 14 14 14 13 13 13 13 13 13
16 15 15 15 16 16 16 16 16 16 16 16 16 15 15 15 15 15 15 15 15 15 14 14 14 14 14 14 14 14 14 14 14 14 14 14 13 13 13 13 13 13 12 12
16 15 15 15 15 16 16 16 16 15 15 15 15 15 15 15 15 15 14 14 14 14 14 14 14 13 13 13 14 14 13 13 13 14 14 13 13 13 13 13 13 12 12 12
15 15 15 15 15 15 16 16 15 15 15 15 15 15 15 15 14 14 14 14 14 13 13 13 13 13 13 13 13 13 13 13 13 13 13 13 13 13 13 13 12 12 12 12
15 15 15 15 15 15 15 15 15 15 15 15 15 15 14 14 14 14 14 14 14 14 13 13 13 13 13 13 13 13 13 13 13 13 13 13 13 13 12 12 12 12 12 12
15 15 15 15 15 15 15 15 15 15 15 15 14 14 14 14 14 13 13 13 13 13 13 13 13 13 13 13 13 13 13 13 13 13 13 13 13 12 12 12 12 12 12 11
14 14 14 14 14 14 14 14 14 14 14 14 14 14 14 13 13 13 13 13 13 13 13 13 13 13 12 12 12 12 12 12 12 12 12 12 12 12 12 12 12 12 11 11
14 14 14 14 14 14 14 14 14 14 14 14 14 14 14 13 13 13 13 13 13 13 13 12 12 12 12 12 12 12 12 12 12 12 12 12 12 12 12 12 12 11 11 11
14 14 14 14 14 14 14 14 14 14 14 14 13 13 13 13 13 13 13 13 12 12 12 12 12 12 12 12 12 12 12 12 12 12 12 12 12 12 11 11 11 11 11 11
14 14 14 14 14 13 13 13 13 13 13 13 13 13 13 13 13 13 12 12 12 12 12 12 12 12 12 12 11 11 11 11 11 11 11 11 11 11 11 11 11 11 11 11
13 13 14 14 13 13 13 13 13 13 13 12 12 12 12 12 12 12 12 12 12 12 11 11 11 11 11 11 11 11 11 11 11 11 11 11 11 11 11 11 11 10 10 10
13 13 13 13 13 13 13 13 13 13 12 12 12 12 12 12 12 12 12 12 11 11 11 11 11 11 11 11 11 11 11 11 11 10 10 10 10 10 10 10 10 10 10 10

GEFSNGP_850_meantemp_222.txt.gz
Temperature
21 22 22 22 22 21 21 20 20 20 20 20 19 19 19 20 20 20 20 20 21 21 21 21 21 21 21 20 20 19 19 19 18 18 17 17 17 17 16 16 16 16 16 16
21 21 22 22 22 21 21 20 20 20 20 19 19 19 19 19 20 20 20 21 21 21 21 21 21 21 20 20 20 19 19 19 18 18 17 17 17 17 16 16 16 16 15 15
19 20 22 21 21 21 21 20 20 20 20 19 18 18 19 19 20 20 20 21 21 21 21 21 21 21 20 20 20 19 19 18 18 17 17 17 17 17 16 16 16 15 15 15
17 20 21 20 20 20 20 19 19 19 19 18 18 19 20 20 20 20 20 20 21 21 21 21 21 20 20 20 19 19 19 18 18 17 17 17 17 16 16 16 15 15 15 15
15 18 19 20 20 20 19 19 18 18 18 18 19 19 19 20 20 20 20 20 20 21 21 21 20 20 20 20 19 19 18 18 18 17 17 17 16 16 16 15 15 15 15 15
15 18 19 19 20 20 20 19 18 18 17 18 18 17 18 20 20 20 20 20 20 20 20 20 20 20 20 19 19 19 18 18 18 17 17 16 16 16 15 15 15 14 14 14
16 17 18 18 18 20 20 19 18 18 18 18 18 18 20 20 20 20 20 20 20 20 20 19 19 19 19 19 19 18 18 17 17 17 16 16 16 15 15 15 14 14 14 14
14 17 17 17 18 18 17 18 19 18 19 19 19 19 19 20 20 19 19 19 19 19 19 19 19 19 19 18 18 18 17 17 17 16 16 16 15 15 14 14 14 14 14 14
14 15 16 16 17 18 18 18 18 19 19 19 19 19 19 19 19 19 19 19 19 19 19 19 18 18 18 18 18 17 17 17 16 16 16 16 15 15 14 14 14 14 13 13
13 15 15 17 17 18 18 18 19 19 19 19 19 19 19 19 18 19 19 18 18 18 18 18 18 18 18 18 17 17 17 16 16 16 16 15 15 14 14 14 14 13 13 13
13 14 15 17 17 18 18 19 18 18 18 18 19 18 19 18 18 18 18 18 18 18 18 18 18 17 18 17 17 17 16 16 16 15 15 15 14 14 14 14 14 13 13 13
14 15 14 16 18 18 18 18 18 18 18 18 18 18 18 18 18 18 18 17 18 18 18 18 17 17 17 17 17 16 16 16 15 15 15 14 14 14 14 14 13 13 13 13
16 16 16 16 17 17 17 18 17 17 17 17 18 18 18 17 17 17 17 17 17 17 17 17 17 17 17 16 16 16 16 15 15 15 14 14 14 14 14 13 13 13 13 13
16 16 15 16 16 17 17 17 17 17 17 17 17 17 17 17 16 16 16 16 16 16 16 16 16 16 16 16 16 15 15 15 15 14 14 14 14 13 13 13 13 13 13 13
15 16 15 16 16 16 17 16 16 16 16 16 16 16 16 16 16 16 16 15 15 15 15 15 15 15 15 15 15 15 14 14 14 14 14 13 13 13 13 13 13 13 13 13
15 15 15 15 16 16 16 16 16 16 16 16 16 16 16 16 15 15 15 15 15 15 15 15 15 15 15 14 14 14 14 14 14 13 13 13 13 13 13 13 12 13 12 12
14 14 15 15 15 15 15 15 15 15 15 15 15 15 16 15 15 15 15 14 14 14 14 14 14 14 14 14 14 14 13 13 13 13 13 13 13 13 12 12 12 12 12 12
15 14 15 14 15 15 15 15 15 15 15 15 15 15 15 15 15 14 14 14 14 14 14 14 14 14 13 13 13 13 13 13 13 12 12 12 12 12 12 12 12 12 12 12
14 14 14 14 14 14 14 14 15 15 15 15 15 15 15 14 14 14 14 14 14 13 13 13 13 13 13 13 13 13 13 12 12 12 12 12 12 12 12 12 12 12 11 11
14 14 14 14 14 14 14 14 14 14 14 14 14 14 14 14 14 14 14 13 13 13 13 13 13 12 12 12 12 12 12 12 12 12 12 12 12 11 11 11 11 11 11 11
13 14 14 14 14 14 14 14 14 14 14 14 14 14 14 14 13 13 13 13 13 13 13 12 12 12 12 12 12 12 12 12 12 11 11 11 11 11 11 11 11 11 11 11
13 13 13 13 13 14 14 14 14 14 14 14 14 13 13 13 13 13 13 13 13 12 12 12 12 12 12 12 12 12 11 11 11 11 11 11 11 11 11 11 11 11 11 11
13 13 13 13 13 13 13 13 13 14 14 13 13 13 13 13 13 13 13 12 12 12 12 12 12 11 11 11 11 11 11 11 11 11 11 11 10 10 10 10 10 10 10 10
13 13 13 13 13 13 13 13 13 13 13 13 13 13 13 13 13 12 12 12 12 12 12 11 11 11 11 11 11 11 11 11 11 11 10 10 10 10 10 10 10 10 10 10
12 12 13 13 13 13 13 13 13 13 13 13 13 13 12 12 12 12 12 12 11 11 11 11 11 11 11 11 11 11 10 10 10 10 10 10 10 10 10 10 10 10 10 10
12 12 12 12 12 13 13 13 13 13 13 12 12 12 12 12 12 12 11 11 11 11 11 11 10 10 10 10 10 10 10 10 10 10 10 10 9 9 9 9 9 9 9 9
12 12 12 12 12 12 12 12 12 12 12 12 12 12 11 11 11 11 11 11 11 10 10 10 10 10 10 10 10 10 10 10 10 10 9 9 9 9 9 9 9 9 9 9

GEFSNGP_850_meantemp_228.txt.gz
Temperature
30 30 30 30 30 30 30 31 31 31 30 29 28 28 26 25 24 23 23 22 22 21 21 20 20 20 19 19 19 19 18 18 18 18 17 17 17 16 16 16 16 16 16 16
28 29 29 29 29 29 30 30 30 30 29 29 27 26 25 24 24 23 22 22 21 21 20 20 20 19 19 19 19 19 18 18 18 18 17 17 16 16 16 16 16 16 16 15
28 28 28 28 29 29 29 29 30 29 29 28 27 26 25 24 23 22 22 21 21 20 20 20 19 19 19 19 19 18 18 18 18 17 17 17 16 16 16 16 16 15 15 15
28 27 26 28 29 28 28 28 28 28 27 27 26 24 23 23 22 21 21 21 20 20 20 20 19 19 19 19 18 18 18 18 17 17 17 17 16 16 16 16 15 15 15 15
27 27 27 27 27 28 27 27 27 27 26 26 25 24 24 22 21 21 20 20 20 20 20 19 19 19 19 18 18 18 18 17 17 17 17 16 16 16 16 15 15 15 14 14
26 26 26 27 27 26 27 26 26 26 25 25 25 27 25 21 20 20 19 19 19 19 19 19 18 18 18 18 18 18 18 17 17 17 17 16 16 16 15 15 15 14 14 14
26 26 26 25 25 25 25 25 24 24 24 24 24 24 22 20 20 19 19 19 18 18 18 18 18 18 18 18 17 17 17 17 17 17 17 16 16 15 15 15 14 14 14 14
25 25 25 24 24 25 24 22 22 22 22 22 21 20 20 20 19 19 19 18 18 18 18 18 18 18 17 17 17 17 17 17 16 16 16 16 16 15 15 14 14 14 14 14
24 24 22 21 22 21 21 21 21 21 21 21 20 20 20 19 19 18 18 18 18 18 17 17 17 17 17 17 17 17 16 16 16 16 16 16 15 15 15 14 14 14 14 14
22 22 21 21 20 20 20 20 20 20 20 20 20 20 19 19 18 18 18 17 17 17 17 17 17 17 17 17 17 16 16 16 16 16 16 15 15 15 14 14 14 14 14 14
21 21 21 20 19 19 19 19 19 19 19 19 19 19 19 18 18 17 17 17 17 17 16 16 16 16 16 16 16 16 16 15 15 15 15 15 15 14 14 14 14 14 14 13
21 20 20 19 19 18 18 18 19 18 18 18 18 18 18 18 17 17 17 17 16 16 16 16 16 16 16 16 16 15 15 15 15 15 15 15 14 14 14 14 14 14 13 13
18 18 18 18 18 18 18 18 18 18 18 18 17 17 17 17 17 17 17 16 16 16 16 15 15 15 15 15 15 15 15 15 14 14 14 14 14 14 14 14 14 13 13 13
17 17 17 17 17 17 17 17 17 17 17 17 17 17 17 16 16 16 16 16 16 16 15 15 15 15 15 15 15 14 14 14 14 14 14 13 13 13 13 13 13 13 13 13
16 16 17 17 16 16 16 16 16 16 16 16 16 16 16 16 16 16 16 15 15 15 15 15 14 14 15 15 14 14 14 14 14 14 13 13 13 13 13 13 13 12 12 12
16 16 16 16 16 16 16 16 16 16 16 16 16 16 16 16 16 15 15 15 15 15 15 14 14 14 14 14 14 14 13 13 13 13 13 13 13 13 13 13 12 12 12 12
15 15 15 15 15 16 16 16 15 15 15 16 16 15 15 15 15 15 15 15 15 14 14 14 14 14 14 14 14 14 14 14 13 13 13 13 13 13 13 12 12 12 12 12
14 14 14 15 15 15 15 15 15 15 15 15 15 15 15 15 15 15 15 14 14 14 13 13 14 13 13 13 13 14 14 13 13 13 13 13 12 12 12 12 12 12 12 12
14 14 14 14 14 14 14 14 14 14 14 14 14 14 14 14 14 14 14 14 14 13 13 13 13 13 13 13 13 13 13 13 13 12 12 12 12 12 12 12 12 12 11 11
13 13 13 13 14 14 14 14 14 14 14 14 14 14 14 14 14 14 13 13 13 13 13 13 13 13 13 13 13 13 13 13 13 12 12 12 12 12 12 12 11 11 11 11
13 13 13 13 13 13 13 13 13 13 13 13 13 13 13 13 13 13 13 13 13 13 13 13 13 12 12 12 12 12 12 12 12 12 12 12 12 12 11 11 11 11 11 11
13 13 13 13 13 13 13 13 13 13 13 13 13 13 13 13 13 13 13 13 13 13 13 12 12 12 12 12 12 12 12 12 12 12 11 11 11 11 11 11 11 11 11 10
12 12 12 12 12 12 13 13 13 13 13 13 13 13 13 13 13 13 13 12 12 12 12 12 12 12 12 11 11 11 11 11 11 11 11 11 11 11 11 11 10 10 10 10
12 12 12 12 12 12 12 12 12 12 12 12 12 12 12 12 12 12 12 12 12 12 12 11 11 11 11 11 11 11 11 11 11 11 11 11 11 11 10 10 10 10 10 10
12 12 12 12 12 12 12 12 12 12 12 12 12 12 12 12 12 12 12 12 11 11 11 11 11 11 11 11 11 11 11 11 11 11 10 10 10 10 10 10 10 10 9 9
12 12 12 12 12 12 12 12 12 12 12 12 12 12 12 12 11 11 11 11 11 11 11 11 11 11 11 11 11 10 10 10 10 10 10 10 10 10 10 10 9 9 9 9
12 12 12 12 12 12 12 12 12 12 12 12 12 11 11 11 11 11 11 11 11 11 10 10 10 11 11 10 10 10 10 10 10 10 10 10 10 9 9 9 9 9 9 9

GEFSNGP_850_meantemp_234.txt.gz
Temperature
30 32 32 32 32 33 32 32 31 31 30 30 29 29 28 27 27 26 25 25 24 23 23 23 22 22 21 21 20 20 19 19 19 18 18 18 18 18 18 17 17 17 17 16
30 31 31 31 32 32 32 32 32 31 30 30 30 29 28 27 27 26 25 24 23 23 22 22 22 21 21 20 20 20 19 19 18 18 18 18 18 17 17 17 17 17 16 16
29 30 30 30 31 32 32 32 32 31 30 30 29 28 28 27 26 25 25 24 23 22 22 22 21 21 20 20 20 19 19 19 18 18 18 17 17 17 17 17 17 16 16 16
28 29 28 30 32 32 32 31 31 30 30 29 28 27 26 26 25 24 24 23 22 22 22 21 21 21 20 20 19 19 18 18 18 18 17 17 17 17 17 16 16 16 16 15
28 28 28 30 31 31 30 29 30 30 29 29 27 27 26 25 24 23 23 22 21 21 21 21 21 20 20 19 19 18 18 18 18 18 17 17 17 17 17 16 16 16 15 15
27 27 27 28 30 30 30 28 29 29 28 28 27 27 25 24 24 23 22 22 21 21 21 20 20 20 19 19 19 18 18 18 18 17 17 17 17 17 16 16 16 15 15 15
27 26 27 28 29 29 27 26 27 27 27 26 25 25 24 23 23 22 22 21 21 20 20 19 19 19 19 19 18 18 18 18 18 17 17 17 17 16 16 16 16 15 15 15
26 26 25 27 27 26 25 26 26 26 25 24 23 23 23 22 22 21 21 21 20 20 19 19 19 18 18 18 18 17 17 17 17 17 17 17 16 16 16 15 15 15 15 15
26 25 25 25 25 25 25 25 25 25 24 23 23 22 22 21 21 21 20 20 20 19 19 19 18 18 18 17 17 17 17 17 17 17 17 17 16 16 16 15 15 15 15 14
24 24 25 25 24 24 24 24 24 24 23 23 22 22 21 21 21 20 20 19 19 19 19 18 18 18 17 17 17 16 16 16 16 16 17 16 16 16 15 15 15 14 14 14
24 24 24 24 24 23 23 23 23 23 23 22 22 21 21 20 20 19 19 19 19 18 18 18 18 17 17 17 16 16 16 16 16 16 16 16 16 15 15 15 15 15 15 14
23 23 23 23 22 22 22 22 22 22 22 22 21 21 20 19 19 19 18 18 18 18 18 18 17 17 17 16 16 16 16 16 16 16 16 16 15 15 15 15 15 15 15 14
22 22 22 22 21 21 21 21 21 21 21 21 20 20 20 19 18 18 18 18 18 18 18 17 17 17 16 16 16 16 15 15 15 16 16 15 15 15 15 15 14 14 14 14
20 20 21 21 20 20 20 20 20 20 20 20 19 19 19 18 18 18 18 17 17 17 17 17 17 16 16 16 16 15 15 15 15 15 15 15 15 15 15 14 14 14 14 14
19 20 20 20 19 19 19 19 19 19 19 19 19 18 18 18 17 17 17 17 17 17 17 17 16 16 16 15 15 15 15 15 15 15 15 15 14 14 14 14 14 14 14 13
19 19 19 19 19 19 19 19 19 18 18 18 18 18 17 17 17 17 17 17 17 16 16 16 16 16 15 15 15 15 15 15 15 15 14 14 14 14 14 14 14 14 14 13
18 18 18 18 18 18 18 18 18 17 17 17 17 17 17 17 17 16 16 16 16 16 16 16 15 15 15 15 15 14 14 14 14 14 14 14 14 14 14 14 13 13 13 13
17 17 17 17 17 17 17 17 17 17 17 17 16 16 16 16 16 16 16 16 15 15 15 15 15 15 15 14 14 14 14 14 14 14 14 14 14 13 13 13 13 13 13 13
17 16 16 16 16 16 16 16 16 16 16 16 16 16 16 15 15 15 15 15 15 15 15 15 14 14 14 14 14 14 14 14 14 14 14 14 13 13 13 13 13 13 13 13
16 16 16 16 16 15 15 15 15 15 15 15 15 15 15 15 15 15 15 15 15 15 14 14 14 14 14 14 14 14 14 14 14 14 13 13 13 13 13 13 13 13 12 12
16 15 15 15 15 15 15 15 15 15 15 15 15 15 15 14 14 14 14 14 14 14 14 14 14 14 13 13 14 14 14 14 14 14 13 13 13 13 13 12 12 12 12 12
15 15 15 15 15 14 14 14 14 14 14 14 14 14 14 14 14 14 14 14 14 14 14 13 13 13 13 13 13 13 13 13 13 13 13 13 13 12 12 12 12 12 11 11
14 14 14 14 14 14 14 14 14 14 14 14 14 14 14 14 14 14 14 14 14 13 13 13 13 13 13 13 13 13 13 13 13 13 13 13 12 12 12 12 11 11 11 11
14 14 14 14 14 14 14 14 14 14 14 14 14 14 14 14 14 14 14 13 13 13 13 13 13 13 13 13 13 13 13 13 13 13 12 12 12 12 12 12 11 11 11 11
13 13 13 13 13 14 13 14 14 14 14 14 14 14 14 14 14 14 13 13 13 13 13 13 13 13 13 13 13 13 13 13 12 12 12 12 12 12 12 11 11 11 11 10
13 13 13 13 13 13 14 14 14 14 14 13 13 14 13 13 13 13 13 13 13 13 13 12 12 12 12 12 12 12 12 12 12 12 12 12 12 11 11 11 11 11 10 10
13 13 13 13 14 14 14 14 13 13 13 13 13 13 13 13 13 13 12 12 12 12 12 12 12 12 12 12 12 12 12 12 12 11 11 11 11 11 11 10 10 10 10 10